<?xml version="1.0" encoding="UTF-8" standalone="no" ?>
<gpx xmlns="http://www.topografix.com/GPX/1/1" xmlns:xsi="http://www.w3.org/2001/XMLSchema-instance" xsi:schemaLocation="http://www.topografix.com/GPX/1/1 http://www.topografix.com/GPX/1/1/gpx.xsd" version="1.1" creator="VisuGPX - https://www.visugpx.com">
  <metadata>
    <name>12 octobre 2013 - Mer Au gré des courants, dessus, dessous ...</name>
    <desc><![CDATA[Sortie Kayak samedi 12 octobre 2013 matin]]></desc>
  </metadata>
  <trk>
    <name><![CDATA[Parcours 2013-10-12 08:37]]></name>
    <trkseg>
      <trkpt lat="47.5819" lon="-2.89523">
        <ele>4</ele>
        <time>2013-10-12T06:37:07Z</time>
      </trkpt>
      <trkpt lat="47.58188" lon="-2.89517">
        <ele>4</ele>
        <time>2013-10-12T06:40:56Z</time>
      </trkpt>
      <trkpt lat="47.5819" lon="-2.8951">
        <ele>4</ele>
        <time>2013-10-12T06:49:28Z</time>
      </trkpt>
      <trkpt lat="47.58185" lon="-2.89511">
        <ele>4</ele>
        <time>2013-10-12T06:52:43Z</time>
      </trkpt>
      <trkpt lat="47.5818" lon="-2.89513">
        <ele>4</ele>
        <time>2013-10-12T06:52:48Z</time>
      </trkpt>
      <trkpt lat="47.58175" lon="-2.89515">
        <ele>4</ele>
        <time>2013-10-12T06:52:53Z</time>
      </trkpt>
      <trkpt lat="47.5817" lon="-2.89516">
        <ele>4</ele>
        <time>2013-10-12T06:52:57Z</time>
      </trkpt>
      <trkpt lat="47.58165" lon="-2.89518">
        <time>2013-10-12T06:54:20Z</time>
      </trkpt>
      <trkpt lat="47.58161" lon="-2.89521">
        <time>2013-10-12T06:54:41Z</time>
      </trkpt>
      <trkpt lat="47.58157" lon="-2.89517">
        <time>2013-10-12T06:55:29Z</time>
      </trkpt>
      <trkpt lat="47.58152" lon="-2.89513">
        <time>2013-10-12T06:55:36Z</time>
      </trkpt>
      <trkpt lat="47.58149" lon="-2.89507">
        <time>2013-10-12T06:55:42Z</time>
      </trkpt>
      <trkpt lat="47.58149" lon="-2.895">
        <time>2013-10-12T06:55:47Z</time>
      </trkpt>
      <trkpt lat="47.5815" lon="-2.89493">
        <time>2013-10-12T06:55:55Z</time>
      </trkpt>
      <trkpt lat="47.58151" lon="-2.89486">
        <time>2013-10-12T06:56:01Z</time>
      </trkpt>
      <trkpt lat="47.58153" lon="-2.89479">
        <time>2013-10-12T06:56:08Z</time>
      </trkpt>
      <trkpt lat="47.58156" lon="-2.89472">
        <time>2013-10-12T06:56:12Z</time>
      </trkpt>
      <trkpt lat="47.58158" lon="-2.89466">
        <time>2013-10-12T06:56:16Z</time>
      </trkpt>
      <trkpt lat="47.5816" lon="-2.8946">
        <time>2013-10-12T06:56:23Z</time>
      </trkpt>
      <trkpt lat="47.58162" lon="-2.89453">
        <time>2013-10-12T06:56:32Z</time>
      </trkpt>
      <trkpt lat="47.58162" lon="-2.89446">
        <time>2013-10-12T06:56:41Z</time>
      </trkpt>
      <trkpt lat="47.58159" lon="-2.89441">
        <time>2013-10-12T06:56:50Z</time>
      </trkpt>
      <trkpt lat="47.58156" lon="-2.89436">
        <time>2013-10-12T06:57:03Z</time>
      </trkpt>
      <trkpt lat="47.58152" lon="-2.89432">
        <time>2013-10-12T06:57:10Z</time>
      </trkpt>
      <trkpt lat="47.58149" lon="-2.89428">
        <time>2013-10-12T06:57:21Z</time>
      </trkpt>
      <trkpt lat="47.58145" lon="-2.89423">
        <time>2013-10-12T06:57:31Z</time>
      </trkpt>
      <trkpt lat="47.58141" lon="-2.89424">
        <time>2013-10-12T06:58:22Z</time>
      </trkpt>
      <trkpt lat="47.58136" lon="-2.89428">
        <time>2013-10-12T06:58:26Z</time>
      </trkpt>
      <trkpt lat="47.58133" lon="-2.89434">
        <time>2013-10-12T06:58:31Z</time>
      </trkpt>
      <trkpt lat="47.5813" lon="-2.89439">
        <time>2013-10-12T06:58:38Z</time>
      </trkpt>
      <trkpt lat="47.58129" lon="-2.89446">
        <time>2013-10-12T06:58:46Z</time>
      </trkpt>
      <trkpt lat="47.58131" lon="-2.89452">
        <time>2013-10-12T06:59:24Z</time>
      </trkpt>
      <trkpt lat="47.58134" lon="-2.89457">
        <time>2013-10-12T06:59:29Z</time>
      </trkpt>
      <trkpt lat="47.58138" lon="-2.89464">
        <time>2013-10-12T06:59:32Z</time>
      </trkpt>
      <trkpt lat="47.5814" lon="-2.8947">
        <time>2013-10-12T06:59:38Z</time>
      </trkpt>
      <trkpt lat="47.58141" lon="-2.89477">
        <time>2013-10-12T07:00:55Z</time>
      </trkpt>
      <trkpt lat="47.58142" lon="-2.8947">
        <time>2013-10-12T07:01:06Z</time>
      </trkpt>
      <trkpt lat="47.58147" lon="-2.89467">
        <time>2013-10-12T07:01:13Z</time>
      </trkpt>
      <trkpt lat="47.58148" lon="-2.89461">
        <time>2013-10-12T07:02:16Z</time>
      </trkpt>
      <trkpt lat="47.58147" lon="-2.89454">
        <time>2013-10-12T07:04:03Z</time>
      </trkpt>
      <trkpt lat="47.58147" lon="-2.89446">
        <time>2013-10-12T07:04:30Z</time>
      </trkpt>
      <trkpt lat="47.58147" lon="-2.89439">
        <time>2013-10-12T07:04:34Z</time>
      </trkpt>
      <trkpt lat="47.58145" lon="-2.89431">
        <time>2013-10-12T07:04:37Z</time>
      </trkpt>
      <trkpt lat="47.58142" lon="-2.89426">
        <time>2013-10-12T07:04:47Z</time>
      </trkpt>
      <trkpt lat="47.58138" lon="-2.89429">
        <time>2013-10-12T07:05:00Z</time>
      </trkpt>
      <trkpt lat="47.58134" lon="-2.89434">
        <time>2013-10-12T07:05:08Z</time>
      </trkpt>
      <trkpt lat="47.58129" lon="-2.89439">
        <time>2013-10-12T07:05:13Z</time>
      </trkpt>
      <trkpt lat="47.58126" lon="-2.89445">
        <time>2013-10-12T07:05:15Z</time>
      </trkpt>
      <trkpt lat="47.58124" lon="-2.89451">
        <time>2013-10-12T07:05:18Z</time>
      </trkpt>
      <trkpt lat="47.58122" lon="-2.89458">
        <time>2013-10-12T07:05:21Z</time>
      </trkpt>
      <trkpt lat="47.58121" lon="-2.89465">
        <time>2013-10-12T07:05:26Z</time>
      </trkpt>
      <trkpt lat="47.58118" lon="-2.89471">
        <time>2013-10-12T07:05:33Z</time>
      </trkpt>
      <trkpt lat="47.58118" lon="-2.89478">
        <time>2013-10-12T07:05:41Z</time>
      </trkpt>
      <trkpt lat="47.5812" lon="-2.89484">
        <time>2013-10-12T07:05:46Z</time>
      </trkpt>
      <trkpt lat="47.58122" lon="-2.89491">
        <time>2013-10-12T07:05:49Z</time>
      </trkpt>
      <trkpt lat="47.58125" lon="-2.89497">
        <time>2013-10-12T07:05:53Z</time>
      </trkpt>
      <trkpt lat="47.58127" lon="-2.89503">
        <time>2013-10-12T07:05:57Z</time>
      </trkpt>
      <trkpt lat="47.58129" lon="-2.8951">
        <time>2013-10-12T07:06:01Z</time>
      </trkpt>
      <trkpt lat="47.58131" lon="-2.89517">
        <time>2013-10-12T07:06:06Z</time>
      </trkpt>
      <trkpt lat="47.58133" lon="-2.89524">
        <time>2013-10-12T07:06:09Z</time>
      </trkpt>
      <trkpt lat="47.58136" lon="-2.89529">
        <time>2013-10-12T07:06:14Z</time>
      </trkpt>
      <trkpt lat="47.58138" lon="-2.89535">
        <time>2013-10-12T07:06:17Z</time>
      </trkpt>
      <trkpt lat="47.58142" lon="-2.8954">
        <time>2013-10-12T07:06:21Z</time>
      </trkpt>
      <trkpt lat="47.58146" lon="-2.89544">
        <time>2013-10-12T07:06:26Z</time>
      </trkpt>
      <trkpt lat="47.5815" lon="-2.89549">
        <time>2013-10-12T07:06:29Z</time>
      </trkpt>
      <trkpt lat="47.58154" lon="-2.89554">
        <time>2013-10-12T07:06:33Z</time>
      </trkpt>
      <trkpt lat="47.58159" lon="-2.89558">
        <time>2013-10-12T07:06:37Z</time>
      </trkpt>
      <trkpt lat="47.58163" lon="-2.89562">
        <time>2013-10-12T07:06:42Z</time>
      </trkpt>
      <trkpt lat="47.58167" lon="-2.89566">
        <ele>4</ele>
        <time>2013-10-12T07:06:46Z</time>
      </trkpt>
      <trkpt lat="47.58172" lon="-2.8957">
        <ele>4</ele>
        <time>2013-10-12T07:06:50Z</time>
      </trkpt>
      <trkpt lat="47.58176" lon="-2.89575">
        <ele>4</ele>
        <time>2013-10-12T07:06:54Z</time>
      </trkpt>
      <trkpt lat="47.5818" lon="-2.8958">
        <ele>4</ele>
        <time>2013-10-12T07:06:56Z</time>
      </trkpt>
      <trkpt lat="47.58183" lon="-2.89585">
        <time>2013-10-12T07:06:59Z</time>
      </trkpt>
      <trkpt lat="47.58186" lon="-2.8959">
        <time>2013-10-12T07:07:02Z</time>
      </trkpt>
      <trkpt lat="47.58189" lon="-2.89596">
        <time>2013-10-12T07:07:05Z</time>
      </trkpt>
      <trkpt lat="47.58191" lon="-2.89602">
        <time>2013-10-12T07:07:08Z</time>
      </trkpt>
      <trkpt lat="47.58194" lon="-2.89608">
        <time>2013-10-12T07:07:11Z</time>
      </trkpt>
      <trkpt lat="47.58196" lon="-2.89614">
        <time>2013-10-12T07:07:15Z</time>
      </trkpt>
      <trkpt lat="47.58198" lon="-2.8962">
        <time>2013-10-12T07:07:17Z</time>
      </trkpt>
      <trkpt lat="47.582" lon="-2.89627">
        <time>2013-10-12T07:07:21Z</time>
      </trkpt>
      <trkpt lat="47.58203" lon="-2.89634">
        <time>2013-10-12T07:07:23Z</time>
      </trkpt>
      <trkpt lat="47.58205" lon="-2.89641">
        <time>2013-10-12T07:07:27Z</time>
      </trkpt>
      <trkpt lat="47.58208" lon="-2.89648">
        <time>2013-10-12T07:07:30Z</time>
      </trkpt>
      <trkpt lat="47.5821" lon="-2.89655">
        <time>2013-10-12T07:07:33Z</time>
      </trkpt>
      <trkpt lat="47.58213" lon="-2.89662">
        <time>2013-10-12T07:07:35Z</time>
      </trkpt>
      <trkpt lat="47.58217" lon="-2.89669">
        <time>2013-10-12T07:07:38Z</time>
      </trkpt>
      <trkpt lat="47.5822" lon="-2.89675">
        <time>2013-10-12T07:07:41Z</time>
      </trkpt>
      <trkpt lat="47.58223" lon="-2.89682">
        <time>2013-10-12T07:07:44Z</time>
      </trkpt>
      <trkpt lat="47.58226" lon="-2.89688">
        <time>2013-10-12T07:07:48Z</time>
      </trkpt>
      <trkpt lat="47.58229" lon="-2.89694">
        <time>2013-10-12T07:07:50Z</time>
      </trkpt>
      <trkpt lat="47.58231" lon="-2.897">
        <time>2013-10-12T07:07:53Z</time>
      </trkpt>
      <trkpt lat="47.58235" lon="-2.89707">
        <time>2013-10-12T07:07:57Z</time>
      </trkpt>
      <trkpt lat="47.58238" lon="-2.89714">
        <time>2013-10-12T07:07:59Z</time>
      </trkpt>
      <trkpt lat="47.58242" lon="-2.89721">
        <time>2013-10-12T07:08:02Z</time>
      </trkpt>
      <trkpt lat="47.58245" lon="-2.89727">
        <time>2013-10-12T07:08:06Z</time>
      </trkpt>
      <trkpt lat="47.58248" lon="-2.89734">
        <time>2013-10-12T07:08:08Z</time>
      </trkpt>
      <trkpt lat="47.58251" lon="-2.89741">
        <time>2013-10-12T07:08:11Z</time>
      </trkpt>
      <trkpt lat="47.58254" lon="-2.89747">
        <time>2013-10-12T07:08:14Z</time>
      </trkpt>
      <trkpt lat="47.58257" lon="-2.89754">
        <time>2013-10-12T07:08:18Z</time>
      </trkpt>
      <trkpt lat="47.5826" lon="-2.89762">
        <time>2013-10-12T07:08:20Z</time>
      </trkpt>
      <trkpt lat="47.58263" lon="-2.89769">
        <time>2013-10-12T07:08:24Z</time>
      </trkpt>
      <trkpt lat="47.58265" lon="-2.89776">
        <time>2013-10-12T07:08:27Z</time>
      </trkpt>
      <trkpt lat="47.58267" lon="-2.89783">
        <time>2013-10-12T07:08:29Z</time>
      </trkpt>
      <trkpt lat="47.5827" lon="-2.89791">
        <time>2013-10-12T07:08:33Z</time>
      </trkpt>
      <trkpt lat="47.58271" lon="-2.89799">
        <time>2013-10-12T07:08:35Z</time>
      </trkpt>
      <trkpt lat="47.58273" lon="-2.89807">
        <time>2013-10-12T07:08:39Z</time>
      </trkpt>
      <trkpt lat="47.58275" lon="-2.89814">
        <time>2013-10-12T07:08:41Z</time>
      </trkpt>
      <trkpt lat="47.58277" lon="-2.89821">
        <time>2013-10-12T07:08:44Z</time>
      </trkpt>
      <trkpt lat="47.58279" lon="-2.89828">
        <time>2013-10-12T07:08:47Z</time>
      </trkpt>
      <trkpt lat="47.58281" lon="-2.89836">
        <time>2013-10-12T07:08:50Z</time>
      </trkpt>
      <trkpt lat="47.58283" lon="-2.89843">
        <time>2013-10-12T07:08:54Z</time>
      </trkpt>
      <trkpt lat="47.58285" lon="-2.89852">
        <time>2013-10-12T07:08:57Z</time>
      </trkpt>
      <trkpt lat="47.58286" lon="-2.8986">
        <time>2013-10-12T07:09:00Z</time>
      </trkpt>
      <trkpt lat="47.58288" lon="-2.89868">
        <time>2013-10-12T07:09:02Z</time>
      </trkpt>
      <trkpt lat="47.58289" lon="-2.89875">
        <time>2013-10-12T07:09:06Z</time>
      </trkpt>
      <trkpt lat="47.5829" lon="-2.89881">
        <time>2013-10-12T07:09:08Z</time>
      </trkpt>
      <trkpt lat="47.58292" lon="-2.89889">
        <time>2013-10-12T07:09:12Z</time>
      </trkpt>
      <trkpt lat="47.58293" lon="-2.89897">
        <time>2013-10-12T07:09:14Z</time>
      </trkpt>
      <trkpt lat="47.58294" lon="-2.89905">
        <time>2013-10-12T07:09:17Z</time>
      </trkpt>
      <trkpt lat="47.58294" lon="-2.89912">
        <time>2013-10-12T07:09:20Z</time>
      </trkpt>
      <trkpt lat="47.58294" lon="-2.89919">
        <time>2013-10-12T07:09:23Z</time>
      </trkpt>
      <trkpt lat="47.58295" lon="-2.89927">
        <time>2013-10-12T07:09:26Z</time>
      </trkpt>
      <trkpt lat="47.58296" lon="-2.89934">
        <time>2013-10-12T07:09:29Z</time>
      </trkpt>
      <trkpt lat="47.58297" lon="-2.89942">
        <time>2013-10-12T07:09:33Z</time>
      </trkpt>
      <trkpt lat="47.58299" lon="-2.8995">
        <time>2013-10-12T07:09:35Z</time>
      </trkpt>
      <trkpt lat="47.583" lon="-2.89958">
        <time>2013-10-12T07:09:38Z</time>
      </trkpt>
      <trkpt lat="47.58301" lon="-2.89965">
        <time>2013-10-12T07:09:41Z</time>
      </trkpt>
      <trkpt lat="47.58302" lon="-2.89973">
        <time>2013-10-12T07:09:44Z</time>
      </trkpt>
      <trkpt lat="47.58303" lon="-2.89981">
        <time>2013-10-12T07:09:47Z</time>
      </trkpt>
      <trkpt lat="47.58304" lon="-2.8999">
        <time>2013-10-12T07:09:51Z</time>
      </trkpt>
      <trkpt lat="47.58305" lon="-2.89998">
        <time>2013-10-12T07:09:53Z</time>
      </trkpt>
      <trkpt lat="47.58305" lon="-2.90006">
        <ele>1</ele>
        <time>2013-10-12T07:09:57Z</time>
      </trkpt>
      <trkpt lat="47.58306" lon="-2.90014">
        <ele>1</ele>
        <time>2013-10-12T07:10:00Z</time>
      </trkpt>
      <trkpt lat="47.58306" lon="-2.90021">
        <ele>1</ele>
        <time>2013-10-12T07:10:02Z</time>
      </trkpt>
      <trkpt lat="47.58306" lon="-2.90029">
        <ele>1</ele>
        <time>2013-10-12T07:10:05Z</time>
      </trkpt>
      <trkpt lat="47.58306" lon="-2.90037">
        <ele>1</ele>
        <time>2013-10-12T07:10:08Z</time>
      </trkpt>
      <trkpt lat="47.58306" lon="-2.90045">
        <ele>1</ele>
        <time>2013-10-12T07:10:11Z</time>
      </trkpt>
      <trkpt lat="47.58306" lon="-2.90053">
        <ele>1</ele>
        <time>2013-10-12T07:10:14Z</time>
      </trkpt>
      <trkpt lat="47.58306" lon="-2.90062">
        <ele>1</ele>
        <time>2013-10-12T07:10:18Z</time>
      </trkpt>
      <trkpt lat="47.58306" lon="-2.9007">
        <ele>1</ele>
        <time>2013-10-12T07:10:21Z</time>
      </trkpt>
      <trkpt lat="47.58305" lon="-2.90079">
        <ele>1</ele>
        <time>2013-10-12T07:10:24Z</time>
      </trkpt>
      <trkpt lat="47.58305" lon="-2.90088">
        <ele>2</ele>
        <time>2013-10-12T07:10:27Z</time>
      </trkpt>
      <trkpt lat="47.58305" lon="-2.90097">
        <ele>2</ele>
        <time>2013-10-12T07:10:29Z</time>
      </trkpt>
      <trkpt lat="47.58304" lon="-2.90106">
        <ele>2</ele>
        <time>2013-10-12T07:10:33Z</time>
      </trkpt>
      <trkpt lat="47.58303" lon="-2.90115">
        <ele>2</ele>
        <time>2013-10-12T07:10:35Z</time>
      </trkpt>
      <trkpt lat="47.58303" lon="-2.90123">
        <ele>2</ele>
        <time>2013-10-12T07:10:39Z</time>
      </trkpt>
      <trkpt lat="47.58302" lon="-2.90131">
        <ele>3</ele>
        <time>2013-10-12T07:10:41Z</time>
      </trkpt>
      <trkpt lat="47.583" lon="-2.90139">
        <ele>3</ele>
        <time>2013-10-12T07:10:45Z</time>
      </trkpt>
      <trkpt lat="47.58299" lon="-2.90147">
        <ele>3</ele>
        <time>2013-10-12T07:10:47Z</time>
      </trkpt>
      <trkpt lat="47.58297" lon="-2.90155">
        <ele>3</ele>
        <time>2013-10-12T07:10:51Z</time>
      </trkpt>
      <trkpt lat="47.58295" lon="-2.90162">
        <ele>3</ele>
        <time>2013-10-12T07:10:53Z</time>
      </trkpt>
      <trkpt lat="47.58292" lon="-2.90169">
        <ele>4</ele>
        <time>2013-10-12T07:10:56Z</time>
      </trkpt>
      <trkpt lat="47.5829" lon="-2.90175">
        <ele>4</ele>
        <time>2013-10-12T07:10:59Z</time>
      </trkpt>
      <trkpt lat="47.58288" lon="-2.90181">
        <ele>4</ele>
        <time>2013-10-12T07:11:02Z</time>
      </trkpt>
      <trkpt lat="47.58286" lon="-2.90189">
        <ele>4</ele>
        <time>2013-10-12T07:11:06Z</time>
      </trkpt>
      <trkpt lat="47.58284" lon="-2.90196">
        <ele>4</ele>
        <time>2013-10-12T07:11:11Z</time>
      </trkpt>
      <trkpt lat="47.58282" lon="-2.90203">
        <ele>4</ele>
        <time>2013-10-12T07:11:14Z</time>
      </trkpt>
      <trkpt lat="47.58279" lon="-2.9021">
        <ele>4</ele>
        <time>2013-10-12T07:11:19Z</time>
      </trkpt>
      <trkpt lat="47.58276" lon="-2.90218">
        <ele>4</ele>
        <time>2013-10-12T07:11:25Z</time>
      </trkpt>
      <trkpt lat="47.58272" lon="-2.90223">
        <ele>4</ele>
        <time>2013-10-12T07:11:28Z</time>
      </trkpt>
      <trkpt lat="47.58269" lon="-2.90229">
        <ele>4</ele>
        <time>2013-10-12T07:11:34Z</time>
      </trkpt>
      <trkpt lat="47.58266" lon="-2.90235">
        <ele>3</ele>
        <time>2013-10-12T07:11:38Z</time>
      </trkpt>
      <trkpt lat="47.58262" lon="-2.90242">
        <ele>3</ele>
        <time>2013-10-12T07:11:42Z</time>
      </trkpt>
      <trkpt lat="47.5826" lon="-2.90248">
        <ele>3</ele>
        <time>2013-10-12T07:11:45Z</time>
      </trkpt>
      <trkpt lat="47.58257" lon="-2.90255">
        <ele>3</ele>
        <time>2013-10-12T07:11:49Z</time>
      </trkpt>
      <trkpt lat="47.58254" lon="-2.90262">
        <ele>4</ele>
        <time>2013-10-12T07:11:52Z</time>
      </trkpt>
      <trkpt lat="47.58251" lon="-2.90269">
        <ele>5</ele>
        <time>2013-10-12T07:11:54Z</time>
      </trkpt>
      <trkpt lat="47.58249" lon="-2.90276">
        <ele>4</ele>
        <time>2013-10-12T07:11:58Z</time>
      </trkpt>
      <trkpt lat="47.58246" lon="-2.90283">
        <ele>4</ele>
        <time>2013-10-12T07:12:01Z</time>
      </trkpt>
      <trkpt lat="47.58244" lon="-2.9029">
        <ele>4</ele>
        <time>2013-10-12T07:12:03Z</time>
      </trkpt>
      <trkpt lat="47.58242" lon="-2.90297">
        <ele>5</ele>
        <time>2013-10-12T07:12:07Z</time>
      </trkpt>
      <trkpt lat="47.58241" lon="-2.90304">
        <ele>5</ele>
        <time>2013-10-12T07:12:10Z</time>
      </trkpt>
      <trkpt lat="47.58238" lon="-2.9031">
        <ele>6</ele>
        <time>2013-10-12T07:12:12Z</time>
      </trkpt>
      <trkpt lat="47.58236" lon="-2.90317">
        <ele>6</ele>
        <time>2013-10-12T07:12:16Z</time>
      </trkpt>
      <trkpt lat="47.58234" lon="-2.90325">
        <ele>6</ele>
        <time>2013-10-12T07:12:18Z</time>
      </trkpt>
      <trkpt lat="47.58231" lon="-2.90335">
        <ele>8</ele>
        <time>2013-10-12T07:12:22Z</time>
      </trkpt>
      <trkpt lat="47.58228" lon="-2.90342">
        <ele>8</ele>
        <time>2013-10-12T07:12:26Z</time>
      </trkpt>
      <trkpt lat="47.58226" lon="-2.9035">
        <ele>8</ele>
        <time>2013-10-12T07:12:29Z</time>
      </trkpt>
      <trkpt lat="47.58223" lon="-2.90358">
        <ele>8</ele>
        <time>2013-10-12T07:12:31Z</time>
      </trkpt>
      <trkpt lat="47.58221" lon="-2.90366">
        <ele>8</ele>
        <time>2013-10-12T07:12:35Z</time>
      </trkpt>
      <trkpt lat="47.58218" lon="-2.90373">
        <ele>8</ele>
        <time>2013-10-12T07:12:38Z</time>
      </trkpt>
      <trkpt lat="47.58216" lon="-2.90381">
        <ele>9</ele>
        <time>2013-10-12T07:12:40Z</time>
      </trkpt>
      <trkpt lat="47.58214" lon="-2.90389">
        <ele>9</ele>
        <time>2013-10-12T07:12:44Z</time>
      </trkpt>
      <trkpt lat="47.58211" lon="-2.90397">
        <ele>9</ele>
        <time>2013-10-12T07:12:47Z</time>
      </trkpt>
      <trkpt lat="47.58209" lon="-2.90406">
        <ele>9</ele>
        <time>2013-10-12T07:12:49Z</time>
      </trkpt>
      <trkpt lat="47.58206" lon="-2.90415">
        <ele>9</ele>
        <time>2013-10-12T07:12:52Z</time>
      </trkpt>
      <trkpt lat="47.58204" lon="-2.90423">
        <ele>10</ele>
        <time>2013-10-12T07:12:56Z</time>
      </trkpt>
      <trkpt lat="47.58201" lon="-2.90432">
        <ele>10</ele>
        <time>2013-10-12T07:12:58Z</time>
      </trkpt>
      <trkpt lat="47.58199" lon="-2.9044">
        <ele>10</ele>
        <time>2013-10-12T07:13:01Z</time>
      </trkpt>
      <trkpt lat="47.58197" lon="-2.90447">
        <ele>10</ele>
        <time>2013-10-12T07:13:05Z</time>
      </trkpt>
      <trkpt lat="47.58194" lon="-2.90455">
        <ele>10</ele>
        <time>2013-10-12T07:13:07Z</time>
      </trkpt>
      <trkpt lat="47.58192" lon="-2.90463">
        <ele>9</ele>
        <time>2013-10-12T07:13:11Z</time>
      </trkpt>
      <trkpt lat="47.58191" lon="-2.90471">
        <ele>9</ele>
        <time>2013-10-12T07:13:14Z</time>
      </trkpt>
      <trkpt lat="47.5819" lon="-2.90478">
        <ele>9</ele>
        <time>2013-10-12T07:13:16Z</time>
      </trkpt>
      <trkpt lat="47.58188" lon="-2.90484">
        <ele>9</ele>
        <time>2013-10-12T07:13:20Z</time>
      </trkpt>
      <trkpt lat="47.58186" lon="-2.90492">
        <ele>9</ele>
        <time>2013-10-12T07:13:24Z</time>
      </trkpt>
      <trkpt lat="47.58185" lon="-2.90498">
        <ele>9</ele>
        <time>2013-10-12T07:13:28Z</time>
      </trkpt>
      <trkpt lat="47.58184" lon="-2.90506">
        <ele>8</ele>
        <time>2013-10-12T07:13:33Z</time>
      </trkpt>
      <trkpt lat="47.58181" lon="-2.90512">
        <ele>8</ele>
        <time>2013-10-12T07:13:37Z</time>
      </trkpt>
      <trkpt lat="47.58178" lon="-2.90518">
        <ele>8</ele>
        <time>2013-10-12T07:13:41Z</time>
      </trkpt>
      <trkpt lat="47.58174" lon="-2.90524">
        <ele>8</ele>
        <time>2013-10-12T07:13:43Z</time>
      </trkpt>
      <trkpt lat="47.58171" lon="-2.90529">
        <ele>8</ele>
        <time>2013-10-12T07:13:47Z</time>
      </trkpt>
      <trkpt lat="47.58169" lon="-2.90535">
        <ele>8</ele>
        <time>2013-10-12T07:13:50Z</time>
      </trkpt>
      <trkpt lat="47.58166" lon="-2.90541">
        <time>2013-10-12T07:13:53Z</time>
      </trkpt>
      <trkpt lat="47.58164" lon="-2.90547">
        <time>2013-10-12T07:13:56Z</time>
      </trkpt>
      <trkpt lat="47.58162" lon="-2.90554">
        <time>2013-10-12T07:13:59Z</time>
      </trkpt>
      <trkpt lat="47.5816" lon="-2.9056">
        <time>2013-10-12T07:14:02Z</time>
      </trkpt>
      <trkpt lat="47.58157" lon="-2.90567">
        <time>2013-10-12T07:14:09Z</time>
      </trkpt>
      <trkpt lat="47.58156" lon="-2.90574">
        <time>2013-10-12T07:14:13Z</time>
      </trkpt>
      <trkpt lat="47.58158" lon="-2.90581">
        <time>2013-10-12T07:14:19Z</time>
      </trkpt>
      <trkpt lat="47.5816" lon="-2.90588">
        <time>2013-10-12T07:14:25Z</time>
      </trkpt>
      <trkpt lat="47.58163" lon="-2.90594">
        <time>2013-10-12T07:14:32Z</time>
      </trkpt>
      <trkpt lat="47.58166" lon="-2.906">
        <time>2013-10-12T07:14:39Z</time>
      </trkpt>
      <trkpt lat="47.5817" lon="-2.90603">
        <ele>4</ele>
        <time>2013-10-12T07:14:47Z</time>
      </trkpt>
      <trkpt lat="47.58175" lon="-2.90603">
        <ele>4</ele>
        <time>2013-10-12T07:14:55Z</time>
      </trkpt>
      <trkpt lat="47.5818" lon="-2.90603">
        <ele>4</ele>
        <time>2013-10-12T07:15:01Z</time>
      </trkpt>
      <trkpt lat="47.58184" lon="-2.90603">
        <ele>4</ele>
        <time>2013-10-12T07:15:10Z</time>
      </trkpt>
      <trkpt lat="47.58189" lon="-2.90602">
        <ele>4</ele>
        <time>2013-10-12T07:15:15Z</time>
      </trkpt>
      <trkpt lat="47.58194" lon="-2.90602">
        <ele>4</ele>
        <time>2013-10-12T07:15:19Z</time>
      </trkpt>
      <trkpt lat="47.58198" lon="-2.90602">
        <ele>4</ele>
        <time>2013-10-12T07:15:23Z</time>
      </trkpt>
      <trkpt lat="47.58203" lon="-2.90603">
        <ele>4</ele>
        <time>2013-10-12T07:15:26Z</time>
      </trkpt>
      <trkpt lat="47.58208" lon="-2.90604">
        <ele>4</ele>
        <time>2013-10-12T07:15:29Z</time>
      </trkpt>
      <trkpt lat="47.58213" lon="-2.90606">
        <ele>4</ele>
        <time>2013-10-12T07:15:33Z</time>
      </trkpt>
      <trkpt lat="47.58218" lon="-2.90609">
        <ele>4</ele>
        <time>2013-10-12T07:15:38Z</time>
      </trkpt>
      <trkpt lat="47.58224" lon="-2.9061">
        <ele>5</ele>
        <time>2013-10-12T07:15:42Z</time>
      </trkpt>
      <trkpt lat="47.58229" lon="-2.90611">
        <ele>5</ele>
        <time>2013-10-12T07:15:46Z</time>
      </trkpt>
      <trkpt lat="47.58234" lon="-2.90612">
        <ele>5</ele>
        <time>2013-10-12T07:15:49Z</time>
      </trkpt>
      <trkpt lat="47.58238" lon="-2.90613">
        <ele>5</ele>
        <time>2013-10-12T07:15:51Z</time>
      </trkpt>
      <trkpt lat="47.58243" lon="-2.90615">
        <ele>4</ele>
        <time>2013-10-12T07:15:55Z</time>
      </trkpt>
      <trkpt lat="47.58248" lon="-2.90618">
        <ele>4</ele>
        <time>2013-10-12T07:15:57Z</time>
      </trkpt>
      <trkpt lat="47.58253" lon="-2.9062">
        <ele>6</ele>
        <time>2013-10-12T07:16:01Z</time>
      </trkpt>
      <trkpt lat="47.58257" lon="-2.90621">
        <ele>6</ele>
        <time>2013-10-12T07:16:07Z</time>
      </trkpt>
      <trkpt lat="47.58261" lon="-2.90617">
        <ele>6</ele>
        <time>2013-10-12T07:16:46Z</time>
      </trkpt>
      <trkpt lat="47.58266" lon="-2.90615">
        <ele>7</ele>
        <time>2013-10-12T07:16:58Z</time>
      </trkpt>
      <trkpt lat="47.5827" lon="-2.90616">
        <ele>7</ele>
        <time>2013-10-12T07:17:09Z</time>
      </trkpt>
      <trkpt lat="47.58274" lon="-2.90619">
        <ele>7</ele>
        <time>2013-10-12T07:17:30Z</time>
      </trkpt>
      <trkpt lat="47.58277" lon="-2.90625">
        <ele>7</ele>
        <time>2013-10-12T07:18:13Z</time>
      </trkpt>
      <trkpt lat="47.58277" lon="-2.90632">
        <ele>7</ele>
        <time>2013-10-12T07:18:24Z</time>
      </trkpt>
      <trkpt lat="47.5828" lon="-2.90638">
        <ele>6</ele>
        <time>2013-10-12T07:18:29Z</time>
      </trkpt>
      <trkpt lat="47.58283" lon="-2.90644">
        <ele>6</ele>
        <time>2013-10-12T07:18:32Z</time>
      </trkpt>
      <trkpt lat="47.58287" lon="-2.9065">
        <ele>7</ele>
        <time>2013-10-12T07:18:36Z</time>
      </trkpt>
      <trkpt lat="47.5829" lon="-2.90655">
        <ele>7</ele>
        <time>2013-10-12T07:18:39Z</time>
      </trkpt>
      <trkpt lat="47.58293" lon="-2.90661">
        <ele>7</ele>
        <time>2013-10-12T07:18:42Z</time>
      </trkpt>
      <trkpt lat="47.58296" lon="-2.90666">
        <ele>7</ele>
        <time>2013-10-12T07:18:45Z</time>
      </trkpt>
      <trkpt lat="47.583" lon="-2.90673">
        <ele>6</ele>
        <time>2013-10-12T07:18:48Z</time>
      </trkpt>
      <trkpt lat="47.58303" lon="-2.90679">
        <ele>6</ele>
        <time>2013-10-12T07:18:52Z</time>
      </trkpt>
      <trkpt lat="47.58307" lon="-2.90686">
        <ele>6</ele>
        <time>2013-10-12T07:18:55Z</time>
      </trkpt>
      <trkpt lat="47.58311" lon="-2.90693">
        <ele>6</ele>
        <time>2013-10-12T07:18:59Z</time>
      </trkpt>
      <trkpt lat="47.58313" lon="-2.907">
        <ele>6</ele>
        <time>2013-10-12T07:19:03Z</time>
      </trkpt>
      <trkpt lat="47.58314" lon="-2.90707">
        <ele>6</ele>
        <time>2013-10-12T07:19:09Z</time>
      </trkpt>
      <trkpt lat="47.58317" lon="-2.90714">
        <ele>6</ele>
        <time>2013-10-12T07:19:14Z</time>
      </trkpt>
      <trkpt lat="47.58318" lon="-2.9072">
        <ele>6</ele>
        <time>2013-10-12T07:19:19Z</time>
      </trkpt>
      <trkpt lat="47.58318" lon="-2.90728">
        <ele>6</ele>
        <time>2013-10-12T07:19:24Z</time>
      </trkpt>
      <trkpt lat="47.58318" lon="-2.90735">
        <ele>6</ele>
        <time>2013-10-12T07:19:30Z</time>
      </trkpt>
      <trkpt lat="47.58318" lon="-2.90742">
        <ele>6</ele>
        <time>2013-10-12T07:19:35Z</time>
      </trkpt>
      <trkpt lat="47.58316" lon="-2.90748">
        <ele>6</ele>
        <time>2013-10-12T07:19:40Z</time>
      </trkpt>
      <trkpt lat="47.58315" lon="-2.90756">
        <ele>5</ele>
        <time>2013-10-12T07:19:43Z</time>
      </trkpt>
      <trkpt lat="47.58316" lon="-2.90763">
        <ele>5</ele>
        <time>2013-10-12T07:19:48Z</time>
      </trkpt>
      <trkpt lat="47.58318" lon="-2.90769">
        <ele>5</ele>
        <time>2013-10-12T07:19:52Z</time>
      </trkpt>
      <trkpt lat="47.5832" lon="-2.90776">
        <ele>5</ele>
        <time>2013-10-12T07:19:56Z</time>
      </trkpt>
      <trkpt lat="47.58322" lon="-2.90783">
        <ele>5</ele>
        <time>2013-10-12T07:20:00Z</time>
      </trkpt>
      <trkpt lat="47.58323" lon="-2.9079">
        <ele>5</ele>
        <time>2013-10-12T07:20:06Z</time>
      </trkpt>
      <trkpt lat="47.58326" lon="-2.90795">
        <ele>4</ele>
        <time>2013-10-12T07:20:11Z</time>
      </trkpt>
      <trkpt lat="47.58329" lon="-2.90801">
        <ele>4</ele>
        <time>2013-10-12T07:20:16Z</time>
      </trkpt>
      <trkpt lat="47.58332" lon="-2.90808">
        <ele>4</ele>
        <time>2013-10-12T07:20:20Z</time>
      </trkpt>
      <trkpt lat="47.58336" lon="-2.90813">
        <ele>4</ele>
        <time>2013-10-12T07:20:25Z</time>
      </trkpt>
      <trkpt lat="47.58339" lon="-2.90819">
        <ele>4</ele>
        <time>2013-10-12T07:20:28Z</time>
      </trkpt>
      <trkpt lat="47.58343" lon="-2.90825">
        <ele>4</ele>
        <time>2013-10-12T07:20:32Z</time>
      </trkpt>
      <trkpt lat="47.58346" lon="-2.9083">
        <ele>4</ele>
        <time>2013-10-12T07:20:37Z</time>
      </trkpt>
      <trkpt lat="47.58349" lon="-2.90836">
        <ele>3</ele>
        <time>2013-10-12T07:20:41Z</time>
      </trkpt>
      <trkpt lat="47.58352" lon="-2.90843">
        <ele>3</ele>
        <time>2013-10-12T07:20:46Z</time>
      </trkpt>
      <trkpt lat="47.58354" lon="-2.90849">
        <ele>3</ele>
        <time>2013-10-12T07:20:50Z</time>
      </trkpt>
      <trkpt lat="47.58357" lon="-2.90856">
        <ele>3</ele>
        <time>2013-10-12T07:20:53Z</time>
      </trkpt>
      <trkpt lat="47.58359" lon="-2.90862">
        <ele>3</ele>
        <time>2013-10-12T07:20:57Z</time>
      </trkpt>
      <trkpt lat="47.58361" lon="-2.90869">
        <ele>3</ele>
        <time>2013-10-12T07:21:02Z</time>
      </trkpt>
      <trkpt lat="47.58364" lon="-2.90875">
        <ele>3</ele>
        <time>2013-10-12T07:21:05Z</time>
      </trkpt>
      <trkpt lat="47.58366" lon="-2.90882">
        <ele>3</ele>
        <time>2013-10-12T07:21:09Z</time>
      </trkpt>
      <trkpt lat="47.58368" lon="-2.90889">
        <ele>3</ele>
        <time>2013-10-12T07:21:13Z</time>
      </trkpt>
      <trkpt lat="47.58371" lon="-2.90896">
        <ele>3</ele>
        <time>2013-10-12T07:21:17Z</time>
      </trkpt>
      <trkpt lat="47.58373" lon="-2.90904">
        <ele>3</ele>
        <time>2013-10-12T07:21:21Z</time>
      </trkpt>
      <trkpt lat="47.58376" lon="-2.90911">
        <ele>3</ele>
        <time>2013-10-12T07:21:26Z</time>
      </trkpt>
      <trkpt lat="47.58379" lon="-2.90918">
        <time>2013-10-12T07:21:30Z</time>
      </trkpt>
      <trkpt lat="47.58381" lon="-2.90924">
        <time>2013-10-12T07:21:33Z</time>
      </trkpt>
      <trkpt lat="47.58383" lon="-2.90931">
        <time>2013-10-12T07:21:35Z</time>
      </trkpt>
      <trkpt lat="47.58385" lon="-2.90937">
        <time>2013-10-12T07:21:39Z</time>
      </trkpt>
      <trkpt lat="47.58386" lon="-2.90944">
        <time>2013-10-12T07:21:42Z</time>
      </trkpt>
      <trkpt lat="47.58388" lon="-2.9095">
        <time>2013-10-12T07:21:44Z</time>
      </trkpt>
      <trkpt lat="47.5839" lon="-2.90958">
        <time>2013-10-12T07:21:49Z</time>
      </trkpt>
      <trkpt lat="47.58391" lon="-2.90966">
        <time>2013-10-12T07:21:51Z</time>
      </trkpt>
      <trkpt lat="47.58393" lon="-2.90972">
        <time>2013-10-12T07:21:54Z</time>
      </trkpt>
      <trkpt lat="47.58395" lon="-2.90981">
        <time>2013-10-12T07:21:58Z</time>
      </trkpt>
      <trkpt lat="47.58396" lon="-2.9099">
        <time>2013-10-12T07:22:02Z</time>
      </trkpt>
      <trkpt lat="47.58397" lon="-2.90996">
        <time>2013-10-12T07:22:05Z</time>
      </trkpt>
      <trkpt lat="47.58397" lon="-2.91003">
        <time>2013-10-12T07:22:09Z</time>
      </trkpt>
      <trkpt lat="47.58398" lon="-2.9101">
        <time>2013-10-12T07:22:12Z</time>
      </trkpt>
      <trkpt lat="47.58399" lon="-2.91017">
        <time>2013-10-12T07:22:15Z</time>
      </trkpt>
      <trkpt lat="47.584" lon="-2.91024">
        <time>2013-10-12T07:22:18Z</time>
      </trkpt>
      <trkpt lat="47.584" lon="-2.91032">
        <time>2013-10-12T07:22:21Z</time>
      </trkpt>
      <trkpt lat="47.584" lon="-2.9104">
        <time>2013-10-12T07:22:25Z</time>
      </trkpt>
      <trkpt lat="47.58401" lon="-2.91048">
        <time>2013-10-12T07:22:29Z</time>
      </trkpt>
      <trkpt lat="47.58402" lon="-2.91056">
        <time>2013-10-12T07:22:33Z</time>
      </trkpt>
      <trkpt lat="47.58403" lon="-2.91064">
        <time>2013-10-12T07:22:37Z</time>
      </trkpt>
      <trkpt lat="47.58404" lon="-2.91072">
        <time>2013-10-12T07:22:41Z</time>
      </trkpt>
      <trkpt lat="47.58405" lon="-2.9108">
        <time>2013-10-12T07:22:46Z</time>
      </trkpt>
      <trkpt lat="47.58405" lon="-2.91087">
        <time>2013-10-12T07:22:48Z</time>
      </trkpt>
      <trkpt lat="47.58406" lon="-2.91095">
        <time>2013-10-12T07:22:53Z</time>
      </trkpt>
      <trkpt lat="47.58406" lon="-2.91104">
        <time>2013-10-12T07:22:57Z</time>
      </trkpt>
      <trkpt lat="47.58407" lon="-2.91112">
        <time>2013-10-12T07:22:59Z</time>
      </trkpt>
      <trkpt lat="47.58408" lon="-2.91119">
        <time>2013-10-12T07:23:02Z</time>
      </trkpt>
      <trkpt lat="47.5841" lon="-2.91126">
        <time>2013-10-12T07:23:05Z</time>
      </trkpt>
      <trkpt lat="47.58411" lon="-2.91135">
        <time>2013-10-12T07:23:09Z</time>
      </trkpt>
      <trkpt lat="47.58412" lon="-2.91142">
        <time>2013-10-12T07:23:13Z</time>
      </trkpt>
      <trkpt lat="47.58412" lon="-2.9115">
        <time>2013-10-12T07:23:16Z</time>
      </trkpt>
      <trkpt lat="47.58413" lon="-2.91157">
        <time>2013-10-12T07:23:19Z</time>
      </trkpt>
      <trkpt lat="47.58414" lon="-2.91164">
        <time>2013-10-12T07:23:22Z</time>
      </trkpt>
      <trkpt lat="47.58415" lon="-2.91171">
        <time>2013-10-12T07:23:25Z</time>
      </trkpt>
      <trkpt lat="47.58415" lon="-2.91178">
        <time>2013-10-12T07:23:28Z</time>
      </trkpt>
      <trkpt lat="47.58416" lon="-2.91185">
        <time>2013-10-12T07:23:31Z</time>
      </trkpt>
      <trkpt lat="47.58416" lon="-2.91192">
        <time>2013-10-12T07:23:34Z</time>
      </trkpt>
      <trkpt lat="47.58417" lon="-2.91199">
        <time>2013-10-12T07:23:38Z</time>
      </trkpt>
      <trkpt lat="47.58418" lon="-2.91207">
        <time>2013-10-12T07:23:43Z</time>
      </trkpt>
      <trkpt lat="47.58418" lon="-2.91214">
        <time>2013-10-12T07:23:45Z</time>
      </trkpt>
      <trkpt lat="47.58419" lon="-2.91223">
        <time>2013-10-12T07:23:50Z</time>
      </trkpt>
      <trkpt lat="47.58418" lon="-2.91231">
        <time>2013-10-12T07:23:52Z</time>
      </trkpt>
      <trkpt lat="47.58418" lon="-2.91238">
        <time>2013-10-12T07:23:55Z</time>
      </trkpt>
      <trkpt lat="47.58418" lon="-2.91246">
        <time>2013-10-12T07:23:59Z</time>
      </trkpt>
      <trkpt lat="47.58418" lon="-2.91253">
        <time>2013-10-12T07:24:02Z</time>
      </trkpt>
      <trkpt lat="47.58418" lon="-2.91261">
        <time>2013-10-12T07:24:06Z</time>
      </trkpt>
      <trkpt lat="47.58418" lon="-2.91268">
        <time>2013-10-12T07:24:09Z</time>
      </trkpt>
      <trkpt lat="47.58418" lon="-2.91274">
        <time>2013-10-12T07:24:12Z</time>
      </trkpt>
      <trkpt lat="47.58417" lon="-2.91283">
        <time>2013-10-12T07:24:16Z</time>
      </trkpt>
      <trkpt lat="47.58417" lon="-2.9129">
        <time>2013-10-12T07:24:19Z</time>
      </trkpt>
      <trkpt lat="47.58417" lon="-2.91298">
        <time>2013-10-12T07:24:23Z</time>
      </trkpt>
      <trkpt lat="47.58417" lon="-2.91306">
        <time>2013-10-12T07:24:26Z</time>
      </trkpt>
      <trkpt lat="47.58416" lon="-2.91313">
        <time>2013-10-12T07:24:32Z</time>
      </trkpt>
      <trkpt lat="47.58414" lon="-2.9132">
        <time>2013-10-12T07:24:38Z</time>
      </trkpt>
      <trkpt lat="47.58412" lon="-2.91327">
        <time>2013-10-12T07:24:42Z</time>
      </trkpt>
      <trkpt lat="47.58412" lon="-2.91336">
        <time>2013-10-12T07:24:46Z</time>
      </trkpt>
      <trkpt lat="47.58412" lon="-2.91343">
        <time>2013-10-12T07:24:49Z</time>
      </trkpt>
      <trkpt lat="47.58412" lon="-2.91352">
        <time>2013-10-12T07:24:52Z</time>
      </trkpt>
      <trkpt lat="47.58411" lon="-2.91359">
        <time>2013-10-12T07:24:56Z</time>
      </trkpt>
      <trkpt lat="47.58409" lon="-2.91367">
        <time>2013-10-12T07:24:58Z</time>
      </trkpt>
      <trkpt lat="47.58408" lon="-2.91374">
        <time>2013-10-12T07:25:02Z</time>
      </trkpt>
      <trkpt lat="47.58407" lon="-2.91381">
        <time>2013-10-12T07:25:05Z</time>
      </trkpt>
      <trkpt lat="47.58405" lon="-2.91388">
        <time>2013-10-12T07:25:08Z</time>
      </trkpt>
      <trkpt lat="47.58404" lon="-2.91396">
        <time>2013-10-12T07:25:11Z</time>
      </trkpt>
      <trkpt lat="47.58403" lon="-2.91404">
        <time>2013-10-12T07:25:13Z</time>
      </trkpt>
      <trkpt lat="47.58402" lon="-2.91411">
        <time>2013-10-12T07:25:17Z</time>
      </trkpt>
      <trkpt lat="47.58401" lon="-2.9142">
        <time>2013-10-12T07:25:19Z</time>
      </trkpt>
      <trkpt lat="47.58399" lon="-2.91427">
        <time>2013-10-12T07:25:22Z</time>
      </trkpt>
      <trkpt lat="47.58398" lon="-2.91435">
        <time>2013-10-12T07:25:26Z</time>
      </trkpt>
      <trkpt lat="47.58397" lon="-2.91444">
        <time>2013-10-12T07:25:29Z</time>
      </trkpt>
      <trkpt lat="47.58396" lon="-2.91452">
        <time>2013-10-12T07:25:32Z</time>
      </trkpt>
      <trkpt lat="47.58395" lon="-2.9146">
        <time>2013-10-12T07:25:34Z</time>
      </trkpt>
      <trkpt lat="47.58394" lon="-2.91468">
        <time>2013-10-12T07:25:38Z</time>
      </trkpt>
      <trkpt lat="47.58393" lon="-2.91476">
        <time>2013-10-12T07:25:41Z</time>
      </trkpt>
      <trkpt lat="47.58391" lon="-2.91484">
        <time>2013-10-12T07:25:44Z</time>
      </trkpt>
      <trkpt lat="47.58389" lon="-2.91491">
        <time>2013-10-12T07:25:46Z</time>
      </trkpt>
      <trkpt lat="47.58388" lon="-2.91499">
        <time>2013-10-12T07:25:50Z</time>
      </trkpt>
      <trkpt lat="47.58386" lon="-2.91507">
        <time>2013-10-12T07:25:52Z</time>
      </trkpt>
      <trkpt lat="47.58384" lon="-2.91515">
        <time>2013-10-12T07:25:56Z</time>
      </trkpt>
      <trkpt lat="47.58383" lon="-2.91524">
        <time>2013-10-12T07:25:59Z</time>
      </trkpt>
      <trkpt lat="47.58381" lon="-2.91531">
        <time>2013-10-12T07:26:02Z</time>
      </trkpt>
      <trkpt lat="47.5838" lon="-2.91539">
        <time>2013-10-12T07:26:05Z</time>
      </trkpt>
      <trkpt lat="47.58377" lon="-2.91547">
        <time>2013-10-12T07:26:08Z</time>
      </trkpt>
      <trkpt lat="47.58376" lon="-2.91554">
        <time>2013-10-12T07:26:11Z</time>
      </trkpt>
      <trkpt lat="47.58374" lon="-2.91562">
        <time>2013-10-12T07:26:13Z</time>
      </trkpt>
      <trkpt lat="47.58372" lon="-2.9157">
        <time>2013-10-12T07:26:17Z</time>
      </trkpt>
      <trkpt lat="47.5837" lon="-2.91578">
        <time>2013-10-12T07:26:19Z</time>
      </trkpt>
      <trkpt lat="47.58368" lon="-2.91585">
        <time>2013-10-12T07:26:23Z</time>
      </trkpt>
      <trkpt lat="47.58366" lon="-2.91593">
        <time>2013-10-12T07:26:25Z</time>
      </trkpt>
      <trkpt lat="47.58364" lon="-2.91601">
        <time>2013-10-12T07:26:28Z</time>
      </trkpt>
      <trkpt lat="47.58362" lon="-2.91608">
        <time>2013-10-12T07:26:31Z</time>
      </trkpt>
      <trkpt lat="47.5836" lon="-2.91615">
        <time>2013-10-12T07:26:34Z</time>
      </trkpt>
      <trkpt lat="47.58358" lon="-2.91623">
        <time>2013-10-12T07:26:38Z</time>
      </trkpt>
      <trkpt lat="47.58356" lon="-2.9163">
        <time>2013-10-12T07:26:41Z</time>
      </trkpt>
      <trkpt lat="47.58354" lon="-2.91638">
        <time>2013-10-12T07:26:44Z</time>
      </trkpt>
      <trkpt lat="47.58352" lon="-2.91645">
        <time>2013-10-12T07:26:47Z</time>
      </trkpt>
      <trkpt lat="47.58351" lon="-2.91652">
        <time>2013-10-12T07:26:50Z</time>
      </trkpt>
      <trkpt lat="47.58349" lon="-2.9166">
        <time>2013-10-12T07:26:52Z</time>
      </trkpt>
      <trkpt lat="47.58347" lon="-2.91667">
        <ele>5</ele>
        <time>2013-10-12T07:26:56Z</time>
      </trkpt>
      <trkpt lat="47.58345" lon="-2.91672">
        <ele>5</ele>
        <time>2013-10-12T07:26:58Z</time>
      </trkpt>
      <trkpt lat="47.58342" lon="-2.91679">
        <ele>5</ele>
        <time>2013-10-12T07:27:03Z</time>
      </trkpt>
      <trkpt lat="47.58339" lon="-2.91684">
        <ele>5</ele>
        <time>2013-10-12T07:27:06Z</time>
      </trkpt>
      <trkpt lat="47.58335" lon="-2.91688">
        <ele>5</ele>
        <time>2013-10-12T07:27:11Z</time>
      </trkpt>
      <trkpt lat="47.5833" lon="-2.91691">
        <ele>4</ele>
        <time>2013-10-12T07:27:16Z</time>
      </trkpt>
      <trkpt lat="47.58326" lon="-2.91695">
        <ele>4</ele>
        <time>2013-10-12T07:27:18Z</time>
      </trkpt>
      <trkpt lat="47.58321" lon="-2.91698">
        <ele>4</ele>
        <time>2013-10-12T07:27:21Z</time>
      </trkpt>
      <trkpt lat="47.58315" lon="-2.917">
        <ele>4</ele>
        <time>2013-10-12T07:27:25Z</time>
      </trkpt>
      <trkpt lat="47.58311" lon="-2.91702">
        <ele>4</ele>
        <time>2013-10-12T07:27:27Z</time>
      </trkpt>
      <trkpt lat="47.58306" lon="-2.91704">
        <ele>4</ele>
        <time>2013-10-12T07:27:30Z</time>
      </trkpt>
      <trkpt lat="47.58301" lon="-2.91705">
        <ele>4</ele>
        <time>2013-10-12T07:27:35Z</time>
      </trkpt>
      <trkpt lat="47.58296" lon="-2.91707">
        <ele>4</ele>
        <time>2013-10-12T07:27:39Z</time>
      </trkpt>
      <trkpt lat="47.58291" lon="-2.91708">
        <ele>4</ele>
        <time>2013-10-12T07:27:43Z</time>
      </trkpt>
      <trkpt lat="47.58286" lon="-2.91706">
        <ele>4</ele>
        <time>2013-10-12T07:27:49Z</time>
      </trkpt>
      <trkpt lat="47.58282" lon="-2.91705">
        <ele>4</ele>
        <time>2013-10-12T07:27:52Z</time>
      </trkpt>
      <trkpt lat="47.58277" lon="-2.91705">
        <ele>4</ele>
        <time>2013-10-12T07:27:57Z</time>
      </trkpt>
      <trkpt lat="47.58272" lon="-2.91707">
        <ele>4</ele>
        <time>2013-10-12T07:28:04Z</time>
      </trkpt>
      <trkpt lat="47.58267" lon="-2.9171">
        <ele>4</ele>
        <time>2013-10-12T07:28:09Z</time>
      </trkpt>
      <trkpt lat="47.58262" lon="-2.91712">
        <ele>4</ele>
        <time>2013-10-12T07:28:13Z</time>
      </trkpt>
      <trkpt lat="47.58258" lon="-2.91714">
        <ele>4</ele>
        <time>2013-10-12T07:28:21Z</time>
      </trkpt>
      <trkpt lat="47.58252" lon="-2.91716">
        <ele>4</ele>
        <time>2013-10-12T07:28:27Z</time>
      </trkpt>
      <trkpt lat="47.58247" lon="-2.91718">
        <ele>3</ele>
        <time>2013-10-12T07:28:37Z</time>
      </trkpt>
      <trkpt lat="47.58243" lon="-2.91721">
        <ele>3</ele>
        <time>2013-10-12T07:28:40Z</time>
      </trkpt>
      <trkpt lat="47.58238" lon="-2.91724">
        <ele>3</ele>
        <time>2013-10-12T07:28:44Z</time>
      </trkpt>
      <trkpt lat="47.58233" lon="-2.91728">
        <ele>3</ele>
        <time>2013-10-12T07:28:46Z</time>
      </trkpt>
      <trkpt lat="47.58228" lon="-2.91731">
        <ele>3</ele>
        <time>2013-10-12T07:28:49Z</time>
      </trkpt>
      <trkpt lat="47.58223" lon="-2.91735">
        <ele>3</ele>
        <time>2013-10-12T07:28:52Z</time>
      </trkpt>
      <trkpt lat="47.58218" lon="-2.91739">
        <ele>3</ele>
        <time>2013-10-12T07:28:55Z</time>
      </trkpt>
      <trkpt lat="47.58214" lon="-2.91743">
        <ele>3</ele>
        <time>2013-10-12T07:28:58Z</time>
      </trkpt>
      <trkpt lat="47.5821" lon="-2.91748">
        <ele>3</ele>
        <time>2013-10-12T07:29:01Z</time>
      </trkpt>
      <trkpt lat="47.58206" lon="-2.91754">
        <ele>3</ele>
        <time>2013-10-12T07:29:04Z</time>
      </trkpt>
      <trkpt lat="47.58204" lon="-2.9176">
        <ele>3</ele>
        <time>2013-10-12T07:29:08Z</time>
      </trkpt>
      <trkpt lat="47.58201" lon="-2.91767">
        <ele>3</ele>
        <time>2013-10-12T07:29:11Z</time>
      </trkpt>
      <trkpt lat="47.58197" lon="-2.91769">
        <ele>3</ele>
        <time>2013-10-12T07:29:14Z</time>
      </trkpt>
      <trkpt lat="47.58193" lon="-2.91771">
        <ele>3</ele>
        <time>2013-10-12T07:29:21Z</time>
      </trkpt>
      <trkpt lat="47.58194" lon="-2.91777">
        <ele>3</ele>
        <time>2013-10-12T07:29:32Z</time>
      </trkpt>
      <trkpt lat="47.58198" lon="-2.91782">
        <ele>3</ele>
        <time>2013-10-12T07:29:37Z</time>
      </trkpt>
      <trkpt lat="47.58201" lon="-2.91788">
        <ele>3</ele>
        <time>2013-10-12T07:29:43Z</time>
      </trkpt>
      <trkpt lat="47.58205" lon="-2.91793">
        <ele>4</ele>
        <time>2013-10-12T07:29:46Z</time>
      </trkpt>
      <trkpt lat="47.58206" lon="-2.918">
        <ele>4</ele>
        <time>2013-10-12T07:29:50Z</time>
      </trkpt>
      <trkpt lat="47.58208" lon="-2.91808">
        <ele>4</ele>
        <time>2013-10-12T07:29:54Z</time>
      </trkpt>
      <trkpt lat="47.5821" lon="-2.91814">
        <ele>4</ele>
        <time>2013-10-12T07:29:57Z</time>
      </trkpt>
      <trkpt lat="47.58211" lon="-2.91821">
        <ele>4</ele>
        <time>2013-10-12T07:30:01Z</time>
      </trkpt>
      <trkpt lat="47.58212" lon="-2.91828">
        <ele>4</ele>
        <time>2013-10-12T07:30:06Z</time>
      </trkpt>
      <trkpt lat="47.58212" lon="-2.91835">
        <ele>4</ele>
        <time>2013-10-12T07:30:10Z</time>
      </trkpt>
      <trkpt lat="47.5821" lon="-2.91841">
        <ele>4</ele>
        <time>2013-10-12T07:33:47Z</time>
      </trkpt>
      <trkpt lat="47.58208" lon="-2.91849">
        <ele>4</ele>
        <time>2013-10-12T07:33:51Z</time>
      </trkpt>
      <trkpt lat="47.58208" lon="-2.91857">
        <ele>4</ele>
        <time>2013-10-12T07:33:54Z</time>
      </trkpt>
      <trkpt lat="47.58207" lon="-2.91864">
        <ele>4</ele>
        <time>2013-10-12T07:33:58Z</time>
      </trkpt>
      <trkpt lat="47.58206" lon="-2.91871">
        <ele>4</ele>
        <time>2013-10-12T07:34:04Z</time>
      </trkpt>
      <trkpt lat="47.58206" lon="-2.91878">
        <ele>4</ele>
        <time>2013-10-12T07:34:10Z</time>
      </trkpt>
      <trkpt lat="47.58208" lon="-2.91885">
        <ele>4</ele>
        <time>2013-10-12T07:34:15Z</time>
      </trkpt>
      <trkpt lat="47.58209" lon="-2.91893">
        <ele>4</ele>
        <time>2013-10-12T07:34:20Z</time>
      </trkpt>
      <trkpt lat="47.58211" lon="-2.91899">
        <ele>4</ele>
        <time>2013-10-12T07:34:26Z</time>
      </trkpt>
      <trkpt lat="47.58213" lon="-2.91906">
        <ele>4</ele>
        <time>2013-10-12T07:34:35Z</time>
      </trkpt>
      <trkpt lat="47.58212" lon="-2.91912">
        <ele>4</ele>
        <time>2013-10-12T07:35:08Z</time>
      </trkpt>
      <trkpt lat="47.58211" lon="-2.9192">
        <ele>4</ele>
        <time>2013-10-12T07:35:12Z</time>
      </trkpt>
      <trkpt lat="47.58212" lon="-2.91927">
        <ele>4</ele>
        <time>2013-10-12T07:35:16Z</time>
      </trkpt>
      <trkpt lat="47.5821" lon="-2.91935">
        <ele>4</ele>
        <time>2013-10-12T07:35:23Z</time>
      </trkpt>
      <trkpt lat="47.58213" lon="-2.9194">
        <ele>4</ele>
        <time>2013-10-12T07:35:30Z</time>
      </trkpt>
      <trkpt lat="47.58216" lon="-2.91946">
        <ele>4</ele>
        <time>2013-10-12T07:35:35Z</time>
      </trkpt>
      <trkpt lat="47.58218" lon="-2.91953">
        <ele>4</ele>
        <time>2013-10-12T07:35:42Z</time>
      </trkpt>
      <trkpt lat="47.5822" lon="-2.9196">
        <ele>3</ele>
        <time>2013-10-12T07:35:47Z</time>
      </trkpt>
      <trkpt lat="47.58221" lon="-2.91967">
        <ele>3</ele>
        <time>2013-10-12T07:35:51Z</time>
      </trkpt>
      <trkpt lat="47.58222" lon="-2.91976">
        <ele>3</ele>
        <time>2013-10-12T07:35:55Z</time>
      </trkpt>
      <trkpt lat="47.58223" lon="-2.91985">
        <ele>3</ele>
        <time>2013-10-12T07:35:58Z</time>
      </trkpt>
      <trkpt lat="47.58224" lon="-2.91991">
        <ele>3</ele>
        <time>2013-10-12T07:36:01Z</time>
      </trkpt>
      <trkpt lat="47.58224" lon="-2.92">
        <ele>3</ele>
        <time>2013-10-12T07:36:05Z</time>
      </trkpt>
      <trkpt lat="47.58224" lon="-2.92008">
        <ele>3</ele>
        <time>2013-10-12T07:36:10Z</time>
      </trkpt>
      <trkpt lat="47.58224" lon="-2.92016">
        <ele>3</ele>
        <time>2013-10-12T07:36:14Z</time>
      </trkpt>
      <trkpt lat="47.58225" lon="-2.92023">
        <ele>3</ele>
        <time>2013-10-12T07:36:18Z</time>
      </trkpt>
      <trkpt lat="47.58225" lon="-2.9203">
        <ele>3</ele>
        <time>2013-10-12T07:36:21Z</time>
      </trkpt>
      <trkpt lat="47.58224" lon="-2.92037">
        <ele>3</ele>
        <time>2013-10-12T07:36:26Z</time>
      </trkpt>
      <trkpt lat="47.58224" lon="-2.92044">
        <ele>3</ele>
        <time>2013-10-12T07:36:30Z</time>
      </trkpt>
      <trkpt lat="47.58225" lon="-2.92052">
        <ele>3</ele>
        <time>2013-10-12T07:36:35Z</time>
      </trkpt>
      <trkpt lat="47.58226" lon="-2.9206">
        <ele>3</ele>
        <time>2013-10-12T07:36:39Z</time>
      </trkpt>
      <trkpt lat="47.58227" lon="-2.92067">
        <ele>3</ele>
        <time>2013-10-12T07:36:44Z</time>
      </trkpt>
      <trkpt lat="47.58227" lon="-2.92075">
        <ele>3</ele>
        <time>2013-10-12T07:36:48Z</time>
      </trkpt>
      <trkpt lat="47.58227" lon="-2.92083">
        <ele>3</ele>
        <time>2013-10-12T07:36:52Z</time>
      </trkpt>
      <trkpt lat="47.58228" lon="-2.92092">
        <time>2013-10-12T07:36:56Z</time>
      </trkpt>
      <trkpt lat="47.58229" lon="-2.921">
        <time>2013-10-12T07:37:00Z</time>
      </trkpt>
      <trkpt lat="47.58229" lon="-2.92108">
        <time>2013-10-12T07:37:03Z</time>
      </trkpt>
      <trkpt lat="47.5823" lon="-2.92117">
        <time>2013-10-12T07:37:07Z</time>
      </trkpt>
      <trkpt lat="47.58232" lon="-2.92125">
        <time>2013-10-12T07:37:11Z</time>
      </trkpt>
      <trkpt lat="47.58232" lon="-2.92132">
        <time>2013-10-12T07:37:16Z</time>
      </trkpt>
      <trkpt lat="47.58233" lon="-2.9214">
        <time>2013-10-12T07:37:20Z</time>
      </trkpt>
      <trkpt lat="47.58234" lon="-2.92146">
        <time>2013-10-12T07:37:22Z</time>
      </trkpt>
      <trkpt lat="47.58236" lon="-2.92153">
        <time>2013-10-12T07:37:25Z</time>
      </trkpt>
      <trkpt lat="47.58238" lon="-2.9216">
        <time>2013-10-12T07:37:28Z</time>
      </trkpt>
      <trkpt lat="47.58238" lon="-2.92168">
        <time>2013-10-12T07:37:32Z</time>
      </trkpt>
      <trkpt lat="47.58238" lon="-2.92176">
        <time>2013-10-12T07:37:39Z</time>
      </trkpt>
      <trkpt lat="47.58239" lon="-2.92183">
        <time>2013-10-12T07:37:42Z</time>
      </trkpt>
      <trkpt lat="47.5824" lon="-2.92192">
        <time>2013-10-12T07:37:46Z</time>
      </trkpt>
      <trkpt lat="47.58242" lon="-2.92199">
        <time>2013-10-12T07:37:50Z</time>
      </trkpt>
      <trkpt lat="47.58243" lon="-2.92207">
        <time>2013-10-12T07:37:53Z</time>
      </trkpt>
      <trkpt lat="47.58245" lon="-2.92216">
        <time>2013-10-12T07:37:55Z</time>
      </trkpt>
      <trkpt lat="47.58246" lon="-2.92225">
        <time>2013-10-12T07:37:59Z</time>
      </trkpt>
      <trkpt lat="47.58248" lon="-2.92234">
        <time>2013-10-12T07:38:01Z</time>
      </trkpt>
      <trkpt lat="47.5825" lon="-2.92243">
        <time>2013-10-12T07:38:04Z</time>
      </trkpt>
      <trkpt lat="47.58252" lon="-2.92251">
        <time>2013-10-12T07:38:08Z</time>
      </trkpt>
      <trkpt lat="47.58254" lon="-2.92259">
        <time>2013-10-12T07:38:10Z</time>
      </trkpt>
      <trkpt lat="47.58255" lon="-2.92268">
        <time>2013-10-12T07:38:13Z</time>
      </trkpt>
      <trkpt lat="47.58256" lon="-2.92277">
        <time>2013-10-12T07:38:16Z</time>
      </trkpt>
      <trkpt lat="47.58258" lon="-2.92285">
        <time>2013-10-12T07:38:19Z</time>
      </trkpt>
      <trkpt lat="47.58259" lon="-2.92293">
        <time>2013-10-12T07:38:23Z</time>
      </trkpt>
      <trkpt lat="47.58259" lon="-2.92301">
        <time>2013-10-12T07:38:26Z</time>
      </trkpt>
      <trkpt lat="47.58261" lon="-2.9231">
        <time>2013-10-12T07:38:29Z</time>
      </trkpt>
      <trkpt lat="47.58262" lon="-2.92318">
        <time>2013-10-12T07:38:32Z</time>
      </trkpt>
      <trkpt lat="47.58263" lon="-2.92326">
        <time>2013-10-12T07:38:35Z</time>
      </trkpt>
      <trkpt lat="47.58264" lon="-2.92335">
        <time>2013-10-12T07:38:38Z</time>
      </trkpt>
      <trkpt lat="47.58266" lon="-2.92343">
        <time>2013-10-12T07:38:41Z</time>
      </trkpt>
      <trkpt lat="47.58267" lon="-2.92352">
        <time>2013-10-12T07:38:44Z</time>
      </trkpt>
      <trkpt lat="47.58269" lon="-2.9236">
        <time>2013-10-12T07:38:47Z</time>
      </trkpt>
      <trkpt lat="47.5827" lon="-2.92368">
        <time>2013-10-12T07:38:50Z</time>
      </trkpt>
      <trkpt lat="47.58271" lon="-2.92377">
        <time>2013-10-12T07:38:53Z</time>
      </trkpt>
      <trkpt lat="47.58273" lon="-2.92386">
        <time>2013-10-12T07:38:56Z</time>
      </trkpt>
      <trkpt lat="47.58275" lon="-2.92394">
        <time>2013-10-12T07:38:59Z</time>
      </trkpt>
      <trkpt lat="47.58276" lon="-2.92403">
        <time>2013-10-12T07:39:01Z</time>
      </trkpt>
      <trkpt lat="47.58277" lon="-2.92411">
        <time>2013-10-12T07:39:05Z</time>
      </trkpt>
      <trkpt lat="47.58278" lon="-2.92419">
        <time>2013-10-12T07:39:08Z</time>
      </trkpt>
      <trkpt lat="47.58279" lon="-2.92427">
        <time>2013-10-12T07:39:10Z</time>
      </trkpt>
      <trkpt lat="47.5828" lon="-2.92435">
        <time>2013-10-12T07:39:14Z</time>
      </trkpt>
      <trkpt lat="47.58281" lon="-2.92443">
        <time>2013-10-12T07:39:17Z</time>
      </trkpt>
      <trkpt lat="47.58282" lon="-2.92452">
        <time>2013-10-12T07:39:19Z</time>
      </trkpt>
      <trkpt lat="47.58283" lon="-2.92461">
        <time>2013-10-12T07:39:23Z</time>
      </trkpt>
      <trkpt lat="47.58284" lon="-2.9247">
        <time>2013-10-12T07:39:26Z</time>
      </trkpt>
      <trkpt lat="47.58285" lon="-2.92479">
        <time>2013-10-12T07:39:28Z</time>
      </trkpt>
      <trkpt lat="47.58286" lon="-2.92487">
        <time>2013-10-12T07:39:32Z</time>
      </trkpt>
      <trkpt lat="47.58286" lon="-2.92496">
        <time>2013-10-12T07:39:35Z</time>
      </trkpt>
      <trkpt lat="47.58287" lon="-2.92505">
        <time>2013-10-12T07:39:37Z</time>
      </trkpt>
      <trkpt lat="47.58286" lon="-2.92515">
        <time>2013-10-12T07:39:41Z</time>
      </trkpt>
      <trkpt lat="47.58285" lon="-2.92524">
        <time>2013-10-12T07:39:44Z</time>
      </trkpt>
      <trkpt lat="47.58284" lon="-2.92532">
        <time>2013-10-12T07:39:46Z</time>
      </trkpt>
      <trkpt lat="47.58283" lon="-2.92541">
        <time>2013-10-12T07:39:49Z</time>
      </trkpt>
      <trkpt lat="47.58284" lon="-2.9255">
        <time>2013-10-12T07:39:52Z</time>
      </trkpt>
      <trkpt lat="47.58283" lon="-2.92559">
        <time>2013-10-12T07:39:56Z</time>
      </trkpt>
      <trkpt lat="47.58283" lon="-2.92567">
        <time>2013-10-12T07:39:59Z</time>
      </trkpt>
      <trkpt lat="47.58283" lon="-2.92575">
        <time>2013-10-12T07:40:02Z</time>
      </trkpt>
      <trkpt lat="47.58284" lon="-2.92583">
        <time>2013-10-12T07:40:05Z</time>
      </trkpt>
      <trkpt lat="47.58285" lon="-2.92591">
        <time>2013-10-12T07:40:08Z</time>
      </trkpt>
      <trkpt lat="47.58285" lon="-2.92599">
        <time>2013-10-12T07:40:11Z</time>
      </trkpt>
      <trkpt lat="47.58286" lon="-2.92607">
        <time>2013-10-12T07:40:13Z</time>
      </trkpt>
      <trkpt lat="47.58286" lon="-2.92615">
        <time>2013-10-12T07:40:16Z</time>
      </trkpt>
      <trkpt lat="47.58286" lon="-2.92623">
        <time>2013-10-12T07:40:20Z</time>
      </trkpt>
      <trkpt lat="47.58286" lon="-2.92631">
        <time>2013-10-12T07:40:23Z</time>
      </trkpt>
      <trkpt lat="47.58287" lon="-2.92639">
        <time>2013-10-12T07:40:25Z</time>
      </trkpt>
      <trkpt lat="47.58288" lon="-2.92648">
        <time>2013-10-12T07:40:28Z</time>
      </trkpt>
      <trkpt lat="47.58289" lon="-2.92656">
        <time>2013-10-12T07:40:31Z</time>
      </trkpt>
      <trkpt lat="47.58288" lon="-2.92664">
        <time>2013-10-12T07:40:34Z</time>
      </trkpt>
      <trkpt lat="47.58288" lon="-2.92673">
        <time>2013-10-12T07:40:37Z</time>
      </trkpt>
      <trkpt lat="47.58288" lon="-2.92682">
        <time>2013-10-12T07:40:40Z</time>
      </trkpt>
      <trkpt lat="47.58288" lon="-2.9269">
        <time>2013-10-12T07:40:44Z</time>
      </trkpt>
      <trkpt lat="47.58288" lon="-2.927">
        <time>2013-10-12T07:40:48Z</time>
      </trkpt>
      <trkpt lat="47.58289" lon="-2.92708">
        <time>2013-10-12T07:40:50Z</time>
      </trkpt>
      <trkpt lat="47.58288" lon="-2.92716">
        <time>2013-10-12T07:40:54Z</time>
      </trkpt>
      <trkpt lat="47.58287" lon="-2.92723">
        <time>2013-10-12T07:40:56Z</time>
      </trkpt>
      <trkpt lat="47.58287" lon="-2.92731">
        <time>2013-10-12T07:41:00Z</time>
      </trkpt>
      <trkpt lat="47.58288" lon="-2.92738">
        <time>2013-10-12T07:41:03Z</time>
      </trkpt>
      <trkpt lat="47.58288" lon="-2.9275">
        <time>2013-10-12T07:41:06Z</time>
      </trkpt>
      <trkpt lat="47.58289" lon="-2.92758">
        <time>2013-10-12T07:41:10Z</time>
      </trkpt>
      <trkpt lat="47.5829" lon="-2.92765">
        <time>2013-10-12T07:41:12Z</time>
      </trkpt>
      <trkpt lat="47.5829" lon="-2.92772">
        <time>2013-10-12T07:41:15Z</time>
      </trkpt>
      <trkpt lat="47.5829" lon="-2.9278">
        <time>2013-10-12T07:41:18Z</time>
      </trkpt>
      <trkpt lat="47.5829" lon="-2.92788">
        <time>2013-10-12T07:41:22Z</time>
      </trkpt>
      <trkpt lat="47.58289" lon="-2.92796">
        <time>2013-10-12T07:41:25Z</time>
      </trkpt>
      <trkpt lat="47.58288" lon="-2.92806">
        <time>2013-10-12T07:41:28Z</time>
      </trkpt>
      <trkpt lat="47.58287" lon="-2.92813">
        <time>2013-10-12T07:41:32Z</time>
      </trkpt>
      <trkpt lat="47.58287" lon="-2.9282">
        <time>2013-10-12T07:41:35Z</time>
      </trkpt>
      <trkpt lat="47.58285" lon="-2.92828">
        <time>2013-10-12T07:41:38Z</time>
      </trkpt>
      <trkpt lat="47.58284" lon="-2.92837">
        <time>2013-10-12T07:41:43Z</time>
      </trkpt>
      <trkpt lat="47.58283" lon="-2.92843">
        <time>2013-10-12T07:41:45Z</time>
      </trkpt>
      <trkpt lat="47.58282" lon="-2.92853">
        <time>2013-10-12T07:41:50Z</time>
      </trkpt>
      <trkpt lat="47.58283" lon="-2.92862">
        <time>2013-10-12T07:41:53Z</time>
      </trkpt>
      <trkpt lat="47.58283" lon="-2.9287">
        <time>2013-10-12T07:41:55Z</time>
      </trkpt>
      <trkpt lat="47.58283" lon="-2.92878">
        <time>2013-10-12T07:41:58Z</time>
      </trkpt>
      <trkpt lat="47.58283" lon="-2.92885">
        <time>2013-10-12T07:42:02Z</time>
      </trkpt>
      <trkpt lat="47.58283" lon="-2.92891">
        <time>2013-10-12T07:42:05Z</time>
      </trkpt>
      <trkpt lat="47.58283" lon="-2.92898">
        <time>2013-10-12T07:42:08Z</time>
      </trkpt>
      <trkpt lat="47.58283" lon="-2.92906">
        <time>2013-10-12T07:42:11Z</time>
      </trkpt>
      <trkpt lat="47.58283" lon="-2.92913">
        <time>2013-10-12T07:42:14Z</time>
      </trkpt>
      <trkpt lat="47.58283" lon="-2.9292">
        <time>2013-10-12T07:42:17Z</time>
      </trkpt>
      <trkpt lat="47.58284" lon="-2.92927">
        <time>2013-10-12T07:42:20Z</time>
      </trkpt>
      <trkpt lat="47.58285" lon="-2.92934">
        <time>2013-10-12T07:42:23Z</time>
      </trkpt>
      <trkpt lat="47.58286" lon="-2.92942">
        <time>2013-10-12T07:42:25Z</time>
      </trkpt>
      <trkpt lat="47.58288" lon="-2.92949">
        <time>2013-10-12T07:42:29Z</time>
      </trkpt>
      <trkpt lat="47.58288" lon="-2.92956">
        <time>2013-10-12T07:42:32Z</time>
      </trkpt>
      <trkpt lat="47.58288" lon="-2.92963">
        <time>2013-10-12T07:42:35Z</time>
      </trkpt>
      <trkpt lat="47.58288" lon="-2.9297">
        <time>2013-10-12T07:42:37Z</time>
      </trkpt>
      <trkpt lat="47.58287" lon="-2.92978">
        <time>2013-10-12T07:42:41Z</time>
      </trkpt>
      <trkpt lat="47.58286" lon="-2.92985">
        <time>2013-10-12T07:42:44Z</time>
      </trkpt>
      <trkpt lat="47.58286" lon="-2.92991">
        <time>2013-10-12T07:42:47Z</time>
      </trkpt>
      <trkpt lat="47.58285" lon="-2.93">
        <time>2013-10-12T07:42:51Z</time>
      </trkpt>
      <trkpt lat="47.58285" lon="-2.93007">
        <time>2013-10-12T07:42:54Z</time>
      </trkpt>
      <trkpt lat="47.58284" lon="-2.93017">
        <time>2013-10-12T07:42:58Z</time>
      </trkpt>
      <trkpt lat="47.58284" lon="-2.93024">
        <time>2013-10-12T07:43:00Z</time>
      </trkpt>
      <trkpt lat="47.58284" lon="-2.93031">
        <time>2013-10-12T07:43:03Z</time>
      </trkpt>
      <trkpt lat="47.58283" lon="-2.93038">
        <time>2013-10-12T07:43:06Z</time>
      </trkpt>
      <trkpt lat="47.58283" lon="-2.93046">
        <time>2013-10-12T07:43:10Z</time>
      </trkpt>
      <trkpt lat="47.58283" lon="-2.93053">
        <time>2013-10-12T07:43:13Z</time>
      </trkpt>
      <trkpt lat="47.58283" lon="-2.9306">
        <time>2013-10-12T07:43:16Z</time>
      </trkpt>
      <trkpt lat="47.58283" lon="-2.93068">
        <time>2013-10-12T07:43:19Z</time>
      </trkpt>
      <trkpt lat="47.58282" lon="-2.93076">
        <time>2013-10-12T07:43:22Z</time>
      </trkpt>
      <trkpt lat="47.58282" lon="-2.93084">
        <time>2013-10-12T07:43:25Z</time>
      </trkpt>
      <trkpt lat="47.58282" lon="-2.93092">
        <time>2013-10-12T07:43:28Z</time>
      </trkpt>
      <trkpt lat="47.58283" lon="-2.931">
        <time>2013-10-12T07:43:30Z</time>
      </trkpt>
      <trkpt lat="47.58283" lon="-2.93109">
        <time>2013-10-12T07:43:34Z</time>
      </trkpt>
      <trkpt lat="47.58284" lon="-2.93116">
        <time>2013-10-12T07:43:37Z</time>
      </trkpt>
      <trkpt lat="47.58284" lon="-2.93124">
        <time>2013-10-12T07:43:39Z</time>
      </trkpt>
      <trkpt lat="47.58283" lon="-2.93132">
        <time>2013-10-12T07:43:43Z</time>
      </trkpt>
      <trkpt lat="47.58282" lon="-2.93139">
        <time>2013-10-12T07:43:45Z</time>
      </trkpt>
      <trkpt lat="47.58283" lon="-2.93146">
        <time>2013-10-12T07:43:48Z</time>
      </trkpt>
      <trkpt lat="47.58284" lon="-2.93154">
        <time>2013-10-12T07:43:52Z</time>
      </trkpt>
      <trkpt lat="47.58284" lon="-2.93163">
        <time>2013-10-12T07:43:55Z</time>
      </trkpt>
      <trkpt lat="47.58285" lon="-2.9317">
        <time>2013-10-12T07:43:57Z</time>
      </trkpt>
      <trkpt lat="47.58286" lon="-2.93179">
        <time>2013-10-12T07:44:00Z</time>
      </trkpt>
      <trkpt lat="47.58287" lon="-2.93188">
        <time>2013-10-12T07:44:04Z</time>
      </trkpt>
      <trkpt lat="47.58288" lon="-2.93198">
        <time>2013-10-12T07:44:06Z</time>
      </trkpt>
      <trkpt lat="47.58289" lon="-2.93206">
        <time>2013-10-12T07:44:10Z</time>
      </trkpt>
      <trkpt lat="47.58291" lon="-2.93214">
        <time>2013-10-12T07:44:12Z</time>
      </trkpt>
      <trkpt lat="47.58291" lon="-2.93221">
        <time>2013-10-12T07:44:16Z</time>
      </trkpt>
      <trkpt lat="47.58292" lon="-2.93228">
        <time>2013-10-12T07:44:19Z</time>
      </trkpt>
      <trkpt lat="47.58293" lon="-2.93235">
        <time>2013-10-12T07:44:22Z</time>
      </trkpt>
      <trkpt lat="47.58294" lon="-2.93243">
        <time>2013-10-12T07:44:25Z</time>
      </trkpt>
      <trkpt lat="47.58294" lon="-2.9325">
        <time>2013-10-12T07:44:28Z</time>
      </trkpt>
      <trkpt lat="47.58296" lon="-2.93258">
        <time>2013-10-12T07:44:32Z</time>
      </trkpt>
      <trkpt lat="47.58297" lon="-2.93266">
        <time>2013-10-12T07:44:35Z</time>
      </trkpt>
      <trkpt lat="47.58298" lon="-2.93274">
        <time>2013-10-12T07:44:38Z</time>
      </trkpt>
      <trkpt lat="47.58298" lon="-2.93282">
        <time>2013-10-12T07:44:41Z</time>
      </trkpt>
      <trkpt lat="47.58299" lon="-2.93289">
        <time>2013-10-12T07:44:44Z</time>
      </trkpt>
      <trkpt lat="47.583" lon="-2.93296">
        <time>2013-10-12T07:44:47Z</time>
      </trkpt>
      <trkpt lat="47.58301" lon="-2.93305">
        <time>2013-10-12T07:44:50Z</time>
      </trkpt>
      <trkpt lat="47.58302" lon="-2.93313">
        <time>2013-10-12T07:44:53Z</time>
      </trkpt>
      <trkpt lat="47.58304" lon="-2.93322">
        <time>2013-10-12T07:44:57Z</time>
      </trkpt>
      <trkpt lat="47.58305" lon="-2.9333">
        <time>2013-10-12T07:44:59Z</time>
      </trkpt>
      <trkpt lat="47.58306" lon="-2.93339">
        <time>2013-10-12T07:45:03Z</time>
      </trkpt>
      <trkpt lat="47.58307" lon="-2.93347">
        <time>2013-10-12T07:45:05Z</time>
      </trkpt>
      <trkpt lat="47.58307" lon="-2.93355">
        <time>2013-10-12T07:45:09Z</time>
      </trkpt>
      <trkpt lat="47.58308" lon="-2.93362">
        <time>2013-10-12T07:45:12Z</time>
      </trkpt>
      <trkpt lat="47.58309" lon="-2.93369">
        <time>2013-10-12T07:45:15Z</time>
      </trkpt>
      <trkpt lat="47.5831" lon="-2.93375">
        <time>2013-10-12T07:45:17Z</time>
      </trkpt>
      <trkpt lat="47.5831" lon="-2.93383">
        <time>2013-10-12T07:45:22Z</time>
      </trkpt>
      <trkpt lat="47.5831" lon="-2.93391">
        <time>2013-10-12T07:45:26Z</time>
      </trkpt>
      <trkpt lat="47.5831" lon="-2.93401">
        <time>2013-10-12T07:45:29Z</time>
      </trkpt>
      <trkpt lat="47.5831" lon="-2.93409">
        <time>2013-10-12T07:45:32Z</time>
      </trkpt>
      <trkpt lat="47.58311" lon="-2.93416">
        <time>2013-10-12T07:45:36Z</time>
      </trkpt>
      <trkpt lat="47.58312" lon="-2.93424">
        <time>2013-10-12T07:45:39Z</time>
      </trkpt>
      <trkpt lat="47.58313" lon="-2.93432">
        <time>2013-10-12T07:45:42Z</time>
      </trkpt>
      <trkpt lat="47.58313" lon="-2.9344">
        <time>2013-10-12T07:45:45Z</time>
      </trkpt>
      <trkpt lat="47.58314" lon="-2.93448">
        <time>2013-10-12T07:45:48Z</time>
      </trkpt>
      <trkpt lat="47.58314" lon="-2.93455">
        <time>2013-10-12T07:45:50Z</time>
      </trkpt>
      <trkpt lat="47.58315" lon="-2.93463">
        <time>2013-10-12T07:45:54Z</time>
      </trkpt>
      <trkpt lat="47.58315" lon="-2.93472">
        <time>2013-10-12T07:45:59Z</time>
      </trkpt>
      <trkpt lat="47.58315" lon="-2.93479">
        <time>2013-10-12T07:46:02Z</time>
      </trkpt>
      <trkpt lat="47.58314" lon="-2.93487">
        <time>2013-10-12T07:46:06Z</time>
      </trkpt>
      <trkpt lat="47.58314" lon="-2.93494">
        <time>2013-10-12T07:46:09Z</time>
      </trkpt>
      <trkpt lat="47.58313" lon="-2.93501">
        <time>2013-10-12T07:46:13Z</time>
      </trkpt>
      <trkpt lat="47.58313" lon="-2.93509">
        <time>2013-10-12T07:46:17Z</time>
      </trkpt>
      <trkpt lat="47.58312" lon="-2.93515">
        <time>2013-10-12T07:46:21Z</time>
      </trkpt>
      <trkpt lat="47.58312" lon="-2.93523">
        <time>2013-10-12T07:46:24Z</time>
      </trkpt>
      <trkpt lat="47.58312" lon="-2.9353">
        <time>2013-10-12T07:46:26Z</time>
      </trkpt>
      <trkpt lat="47.58312" lon="-2.93538">
        <time>2013-10-12T07:46:29Z</time>
      </trkpt>
      <trkpt lat="47.58312" lon="-2.93547">
        <time>2013-10-12T07:46:33Z</time>
      </trkpt>
      <trkpt lat="47.58312" lon="-2.93556">
        <time>2013-10-12T07:46:35Z</time>
      </trkpt>
      <trkpt lat="47.58312" lon="-2.93564">
        <time>2013-10-12T07:46:38Z</time>
      </trkpt>
      <trkpt lat="47.58312" lon="-2.93571">
        <time>2013-10-12T07:46:41Z</time>
      </trkpt>
      <trkpt lat="47.58312" lon="-2.93579">
        <time>2013-10-12T07:46:44Z</time>
      </trkpt>
      <trkpt lat="47.58313" lon="-2.93586">
        <time>2013-10-12T07:46:48Z</time>
      </trkpt>
      <trkpt lat="47.58312" lon="-2.93594">
        <time>2013-10-12T07:46:51Z</time>
      </trkpt>
      <trkpt lat="47.58312" lon="-2.93603">
        <time>2013-10-12T07:46:54Z</time>
      </trkpt>
      <trkpt lat="47.58313" lon="-2.9361">
        <time>2013-10-12T07:46:57Z</time>
      </trkpt>
      <trkpt lat="47.58314" lon="-2.93618">
        <time>2013-10-12T07:47:01Z</time>
      </trkpt>
      <trkpt lat="47.58314" lon="-2.93626">
        <time>2013-10-12T07:47:04Z</time>
      </trkpt>
      <trkpt lat="47.58313" lon="-2.93633">
        <time>2013-10-12T07:47:08Z</time>
      </trkpt>
      <trkpt lat="47.58313" lon="-2.93641">
        <ele>1</ele>
        <time>2013-10-12T07:47:12Z</time>
      </trkpt>
      <trkpt lat="47.58312" lon="-2.93648">
        <ele>1</ele>
        <time>2013-10-12T07:47:17Z</time>
      </trkpt>
      <trkpt lat="47.58313" lon="-2.93656">
        <ele>1</ele>
        <time>2013-10-12T07:47:20Z</time>
      </trkpt>
      <trkpt lat="47.58313" lon="-2.93663">
        <ele>1</ele>
        <time>2013-10-12T07:47:25Z</time>
      </trkpt>
      <trkpt lat="47.58313" lon="-2.9367">
        <ele>1.4</ele>
        <time>2013-10-12T07:47:30Z</time>
      </trkpt>
      <trkpt lat="47.58309" lon="-2.93673">
        <ele>1.9</ele>
        <time>2013-10-12T07:48:29Z</time>
      </trkpt>
      <trkpt lat="47.58304" lon="-2.93674">
        <ele>2.1</ele>
        <time>2013-10-12T07:53:48Z</time>
      </trkpt>
      <trkpt lat="47.58303" lon="-2.93667">
        <ele>1.1</ele>
        <time>2013-10-12T07:54:01Z</time>
      </trkpt>
      <trkpt lat="47.58305" lon="-2.9366">
        <ele>1.01</ele>
        <time>2013-10-12T07:54:06Z</time>
      </trkpt>
      <trkpt lat="47.58308" lon="-2.93654">
        <ele>1</ele>
        <time>2013-10-12T07:54:12Z</time>
      </trkpt>
      <trkpt lat="47.58312" lon="-2.93652">
        <ele>1</ele>
        <time>2013-10-12T07:54:21Z</time>
      </trkpt>
      <trkpt lat="47.58317" lon="-2.93656">
        <ele>1</ele>
        <time>2013-10-12T07:54:26Z</time>
      </trkpt>
      <trkpt lat="47.58321" lon="-2.93661">
        <ele>1</ele>
        <time>2013-10-12T07:54:30Z</time>
      </trkpt>
      <trkpt lat="47.58324" lon="-2.93666">
        <ele>1</ele>
        <time>2013-10-12T07:54:35Z</time>
      </trkpt>
      <trkpt lat="47.58328" lon="-2.93671">
        <ele>1.6</ele>
        <time>2013-10-12T07:54:41Z</time>
      </trkpt>
      <trkpt lat="47.58332" lon="-2.93676">
        <ele>2.3</ele>
        <time>2013-10-12T07:54:47Z</time>
      </trkpt>
      <trkpt lat="47.58335" lon="-2.93681">
        <time>2013-10-12T07:54:55Z</time>
      </trkpt>
      <trkpt lat="47.58338" lon="-2.93688">
        <time>2013-10-12T07:55:01Z</time>
      </trkpt>
      <trkpt lat="47.5834" lon="-2.93695">
        <ele>1</ele>
        <time>2013-10-12T07:55:07Z</time>
      </trkpt>
      <trkpt lat="47.58341" lon="-2.93701">
        <ele>1</ele>
        <time>2013-10-12T07:55:11Z</time>
      </trkpt>
      <trkpt lat="47.58342" lon="-2.93709">
        <ele>1</ele>
        <time>2013-10-12T07:55:15Z</time>
      </trkpt>
      <trkpt lat="47.58343" lon="-2.93717">
        <ele>1</ele>
        <time>2013-10-12T07:55:18Z</time>
      </trkpt>
      <trkpt lat="47.58342" lon="-2.93724">
        <ele>1</ele>
        <time>2013-10-12T07:55:19Z</time>
      </trkpt>
      <trkpt lat="47.5834" lon="-2.93733">
        <ele>1</ele>
        <time>2013-10-12T07:55:23Z</time>
      </trkpt>
      <trkpt lat="47.58336" lon="-2.9374">
        <ele>1</ele>
        <time>2013-10-12T07:55:26Z</time>
      </trkpt>
      <trkpt lat="47.58333" lon="-2.93748">
        <ele>1</ele>
        <time>2013-10-12T07:55:30Z</time>
      </trkpt>
      <trkpt lat="47.5833" lon="-2.93755">
        <ele>1</ele>
        <time>2013-10-12T07:55:33Z</time>
      </trkpt>
      <trkpt lat="47.58326" lon="-2.93759">
        <ele>1</ele>
        <time>2013-10-12T07:55:36Z</time>
      </trkpt>
      <trkpt lat="47.58323" lon="-2.93764">
        <ele>1</ele>
        <time>2013-10-12T07:55:39Z</time>
      </trkpt>
      <trkpt lat="47.5832" lon="-2.9377">
        <ele>1</ele>
        <time>2013-10-12T07:55:41Z</time>
      </trkpt>
      <trkpt lat="47.58318" lon="-2.93776">
        <ele>1</ele>
        <time>2013-10-12T07:55:45Z</time>
      </trkpt>
      <trkpt lat="47.58316" lon="-2.93783">
        <time>2013-10-12T07:55:47Z</time>
      </trkpt>
      <trkpt lat="47.58313" lon="-2.9379">
        <time>2013-10-12T07:55:51Z</time>
      </trkpt>
      <trkpt lat="47.58309" lon="-2.93798">
        <time>2013-10-12T07:55:54Z</time>
      </trkpt>
      <trkpt lat="47.58305" lon="-2.93805">
        <time>2013-10-12T07:55:57Z</time>
      </trkpt>
      <trkpt lat="47.58302" lon="-2.93811">
        <time>2013-10-12T07:56:00Z</time>
      </trkpt>
      <trkpt lat="47.58298" lon="-2.93819">
        <time>2013-10-12T07:56:03Z</time>
      </trkpt>
      <trkpt lat="47.58295" lon="-2.93824">
        <time>2013-10-12T07:56:05Z</time>
      </trkpt>
      <trkpt lat="47.58291" lon="-2.93831">
        <time>2013-10-12T07:56:08Z</time>
      </trkpt>
      <trkpt lat="47.58288" lon="-2.93837">
        <time>2013-10-12T07:56:10Z</time>
      </trkpt>
      <trkpt lat="47.58285" lon="-2.93843">
        <time>2013-10-12T07:56:13Z</time>
      </trkpt>
      <trkpt lat="47.58281" lon="-2.93849">
        <time>2013-10-12T07:56:16Z</time>
      </trkpt>
      <trkpt lat="47.58277" lon="-2.93856">
        <time>2013-10-12T07:56:19Z</time>
      </trkpt>
      <trkpt lat="47.58273" lon="-2.93862">
        <time>2013-10-12T07:56:22Z</time>
      </trkpt>
      <trkpt lat="47.58269" lon="-2.93869">
        <time>2013-10-12T07:56:25Z</time>
      </trkpt>
      <trkpt lat="47.58266" lon="-2.93876">
        <time>2013-10-12T07:56:28Z</time>
      </trkpt>
      <trkpt lat="47.58262" lon="-2.93883">
        <time>2013-10-12T07:56:31Z</time>
      </trkpt>
      <trkpt lat="47.58259" lon="-2.9389">
        <time>2013-10-12T07:56:33Z</time>
      </trkpt>
      <trkpt lat="47.58255" lon="-2.93896">
        <time>2013-10-12T07:56:37Z</time>
      </trkpt>
      <trkpt lat="47.58251" lon="-2.93902">
        <time>2013-10-12T07:56:40Z</time>
      </trkpt>
      <trkpt lat="47.58247" lon="-2.93907">
        <time>2013-10-12T07:56:43Z</time>
      </trkpt>
      <trkpt lat="47.58242" lon="-2.93914">
        <time>2013-10-12T07:56:47Z</time>
      </trkpt>
      <trkpt lat="47.58237" lon="-2.93919">
        <time>2013-10-12T07:56:49Z</time>
      </trkpt>
      <trkpt lat="47.58234" lon="-2.93922">
        <time>2013-10-12T07:56:51Z</time>
      </trkpt>
      <trkpt lat="47.5823" lon="-2.9393">
        <time>2013-10-12T07:56:54Z</time>
      </trkpt>
      <trkpt lat="47.58227" lon="-2.93936">
        <time>2013-10-12T07:56:57Z</time>
      </trkpt>
      <trkpt lat="47.58224" lon="-2.93944">
        <time>2013-10-12T07:57:00Z</time>
      </trkpt>
      <trkpt lat="47.58221" lon="-2.93951">
        <time>2013-10-12T07:57:03Z</time>
      </trkpt>
      <trkpt lat="47.58217" lon="-2.93958">
        <time>2013-10-12T07:57:06Z</time>
      </trkpt>
      <trkpt lat="47.58213" lon="-2.93965">
        <time>2013-10-12T07:57:09Z</time>
      </trkpt>
      <trkpt lat="47.5821" lon="-2.93973">
        <time>2013-10-12T07:57:12Z</time>
      </trkpt>
      <trkpt lat="47.58207" lon="-2.93979">
        <time>2013-10-12T07:57:15Z</time>
      </trkpt>
      <trkpt lat="47.58203" lon="-2.93986">
        <time>2013-10-12T07:57:18Z</time>
      </trkpt>
      <trkpt lat="47.58199" lon="-2.93992">
        <time>2013-10-12T07:57:21Z</time>
      </trkpt>
      <trkpt lat="47.58196" lon="-2.93999">
        <time>2013-10-12T07:57:24Z</time>
      </trkpt>
      <trkpt lat="47.58192" lon="-2.94005">
        <time>2013-10-12T07:57:27Z</time>
      </trkpt>
      <trkpt lat="47.58188" lon="-2.94011">
        <time>2013-10-12T07:57:30Z</time>
      </trkpt>
      <trkpt lat="47.58185" lon="-2.94018">
        <time>2013-10-12T07:57:33Z</time>
      </trkpt>
      <trkpt lat="47.58181" lon="-2.94024">
        <time>2013-10-12T07:57:37Z</time>
      </trkpt>
      <trkpt lat="47.58178" lon="-2.94029">
        <time>2013-10-12T07:57:40Z</time>
      </trkpt>
      <trkpt lat="47.58174" lon="-2.94035">
        <time>2013-10-12T07:57:44Z</time>
      </trkpt>
      <trkpt lat="47.58171" lon="-2.9404">
        <time>2013-10-12T07:57:47Z</time>
      </trkpt>
      <trkpt lat="47.58167" lon="-2.94046">
        <time>2013-10-12T07:57:50Z</time>
      </trkpt>
      <trkpt lat="47.58164" lon="-2.94051">
        <time>2013-10-12T07:57:53Z</time>
      </trkpt>
      <trkpt lat="47.58161" lon="-2.94056">
        <time>2013-10-12T07:57:56Z</time>
      </trkpt>
      <trkpt lat="47.58157" lon="-2.9406">
        <time>2013-10-12T07:57:59Z</time>
      </trkpt>
      <trkpt lat="47.58153" lon="-2.94065">
        <time>2013-10-12T07:58:02Z</time>
      </trkpt>
      <trkpt lat="47.58149" lon="-2.94069">
        <time>2013-10-12T07:58:05Z</time>
      </trkpt>
      <trkpt lat="47.58145" lon="-2.94074">
        <time>2013-10-12T07:58:08Z</time>
      </trkpt>
      <trkpt lat="47.58141" lon="-2.94078">
        <time>2013-10-12T07:58:11Z</time>
      </trkpt>
      <trkpt lat="47.58136" lon="-2.94082">
        <time>2013-10-12T07:58:15Z</time>
      </trkpt>
      <trkpt lat="47.58132" lon="-2.94087">
        <time>2013-10-12T07:58:19Z</time>
      </trkpt>
      <trkpt lat="47.58127" lon="-2.94095">
        <time>2013-10-12T07:58:23Z</time>
      </trkpt>
      <trkpt lat="47.58124" lon="-2.94099">
        <time>2013-10-12T07:58:26Z</time>
      </trkpt>
      <trkpt lat="47.5812" lon="-2.94104">
        <time>2013-10-12T07:58:29Z</time>
      </trkpt>
      <trkpt lat="47.58117" lon="-2.94109">
        <time>2013-10-12T07:58:32Z</time>
      </trkpt>
      <trkpt lat="47.58113" lon="-2.94113">
        <time>2013-10-12T07:58:35Z</time>
      </trkpt>
      <trkpt lat="47.58109" lon="-2.94117">
        <time>2013-10-12T07:58:38Z</time>
      </trkpt>
      <trkpt lat="47.58105" lon="-2.94122">
        <time>2013-10-12T07:58:41Z</time>
      </trkpt>
      <trkpt lat="47.58101" lon="-2.94127">
        <time>2013-10-12T07:58:44Z</time>
      </trkpt>
      <trkpt lat="47.58098" lon="-2.94132">
        <time>2013-10-12T07:58:47Z</time>
      </trkpt>
      <trkpt lat="47.58094" lon="-2.94137">
        <time>2013-10-12T07:58:50Z</time>
      </trkpt>
      <trkpt lat="47.58088" lon="-2.94144">
        <time>2013-10-12T07:58:54Z</time>
      </trkpt>
      <trkpt lat="47.58085" lon="-2.9415">
        <time>2013-10-12T07:58:57Z</time>
      </trkpt>
      <trkpt lat="47.58081" lon="-2.94156">
        <time>2013-10-12T07:59:00Z</time>
      </trkpt>
      <trkpt lat="47.58078" lon="-2.94161">
        <time>2013-10-12T07:59:03Z</time>
      </trkpt>
      <trkpt lat="47.58074" lon="-2.94167">
        <time>2013-10-12T07:59:06Z</time>
      </trkpt>
      <trkpt lat="47.58071" lon="-2.94171">
        <time>2013-10-12T07:59:09Z</time>
      </trkpt>
      <trkpt lat="47.58067" lon="-2.94175">
        <time>2013-10-12T07:59:12Z</time>
      </trkpt>
      <trkpt lat="47.58063" lon="-2.9418">
        <time>2013-10-12T07:59:15Z</time>
      </trkpt>
      <trkpt lat="47.5806" lon="-2.94185">
        <time>2013-10-12T07:59:18Z</time>
      </trkpt>
      <trkpt lat="47.58057" lon="-2.9419">
        <time>2013-10-12T07:59:21Z</time>
      </trkpt>
      <trkpt lat="47.58053" lon="-2.94195">
        <time>2013-10-12T07:59:24Z</time>
      </trkpt>
      <trkpt lat="47.5805" lon="-2.942">
        <time>2013-10-12T07:59:27Z</time>
      </trkpt>
      <trkpt lat="47.58046" lon="-2.94206">
        <time>2013-10-12T07:59:30Z</time>
      </trkpt>
      <trkpt lat="47.58043" lon="-2.94211">
        <time>2013-10-12T07:59:33Z</time>
      </trkpt>
      <trkpt lat="47.5804" lon="-2.94218">
        <time>2013-10-12T07:59:36Z</time>
      </trkpt>
      <trkpt lat="47.58036" lon="-2.94225">
        <time>2013-10-12T07:59:39Z</time>
      </trkpt>
      <trkpt lat="47.58033" lon="-2.94232">
        <time>2013-10-12T07:59:42Z</time>
      </trkpt>
      <trkpt lat="47.5803" lon="-2.94238">
        <time>2013-10-12T07:59:45Z</time>
      </trkpt>
      <trkpt lat="47.58027" lon="-2.94245">
        <time>2013-10-12T07:59:48Z</time>
      </trkpt>
      <trkpt lat="47.58024" lon="-2.94251">
        <time>2013-10-12T07:59:50Z</time>
      </trkpt>
      <trkpt lat="47.58022" lon="-2.94257">
        <time>2013-10-12T07:59:52Z</time>
      </trkpt>
      <trkpt lat="47.58018" lon="-2.94264">
        <time>2013-10-12T07:59:55Z</time>
      </trkpt>
      <trkpt lat="47.58013" lon="-2.94266">
        <time>2013-10-12T07:59:59Z</time>
      </trkpt>
      <trkpt lat="47.58009" lon="-2.94269">
        <time>2013-10-12T08:00:03Z</time>
      </trkpt>
      <trkpt lat="47.58005" lon="-2.94274">
        <time>2013-10-12T08:00:07Z</time>
      </trkpt>
      <trkpt lat="47.58003" lon="-2.9428">
        <time>2013-10-12T08:00:10Z</time>
      </trkpt>
      <trkpt lat="47.58" lon="-2.94285">
        <time>2013-10-12T08:00:13Z</time>
      </trkpt>
      <trkpt lat="47.57998" lon="-2.94291">
        <time>2013-10-12T08:00:16Z</time>
      </trkpt>
      <trkpt lat="47.57995" lon="-2.94297">
        <time>2013-10-12T08:00:19Z</time>
      </trkpt>
      <trkpt lat="47.57992" lon="-2.94302">
        <time>2013-10-12T08:00:22Z</time>
      </trkpt>
      <trkpt lat="47.57989" lon="-2.94308">
        <time>2013-10-12T08:00:25Z</time>
      </trkpt>
      <trkpt lat="47.57985" lon="-2.94314">
        <time>2013-10-12T08:00:28Z</time>
      </trkpt>
      <trkpt lat="47.57982" lon="-2.9432">
        <time>2013-10-12T08:00:31Z</time>
      </trkpt>
      <trkpt lat="47.57979" lon="-2.94327">
        <time>2013-10-12T08:00:34Z</time>
      </trkpt>
      <trkpt lat="47.57975" lon="-2.94333">
        <time>2013-10-12T08:00:37Z</time>
      </trkpt>
      <trkpt lat="47.57972" lon="-2.94338">
        <time>2013-10-12T08:00:40Z</time>
      </trkpt>
      <trkpt lat="47.57968" lon="-2.94344">
        <time>2013-10-12T08:00:43Z</time>
      </trkpt>
      <trkpt lat="47.57966" lon="-2.9435">
        <time>2013-10-12T08:00:46Z</time>
      </trkpt>
      <trkpt lat="47.57964" lon="-2.94356">
        <time>2013-10-12T08:00:50Z</time>
      </trkpt>
      <trkpt lat="47.5796" lon="-2.94362">
        <time>2013-10-12T08:00:55Z</time>
      </trkpt>
      <trkpt lat="47.57956" lon="-2.94369">
        <time>2013-10-12T08:00:59Z</time>
      </trkpt>
      <trkpt lat="47.57951" lon="-2.94376">
        <time>2013-10-12T08:01:02Z</time>
      </trkpt>
      <trkpt lat="47.57947" lon="-2.94384">
        <time>2013-10-12T08:01:05Z</time>
      </trkpt>
      <trkpt lat="47.57945" lon="-2.94393">
        <time>2013-10-12T08:01:08Z</time>
      </trkpt>
      <trkpt lat="47.57942" lon="-2.94399">
        <time>2013-10-12T08:01:10Z</time>
      </trkpt>
      <trkpt lat="47.5794" lon="-2.94408">
        <time>2013-10-12T08:01:13Z</time>
      </trkpt>
      <trkpt lat="47.57938" lon="-2.94415">
        <time>2013-10-12T08:01:16Z</time>
      </trkpt>
      <trkpt lat="47.57935" lon="-2.94422">
        <time>2013-10-12T08:01:19Z</time>
      </trkpt>
      <trkpt lat="47.57931" lon="-2.94427">
        <time>2013-10-12T08:01:21Z</time>
      </trkpt>
      <trkpt lat="47.57928" lon="-2.94434">
        <time>2013-10-12T08:01:24Z</time>
      </trkpt>
      <trkpt lat="47.57925" lon="-2.94441">
        <time>2013-10-12T08:01:27Z</time>
      </trkpt>
      <trkpt lat="47.57924" lon="-2.94448">
        <time>2013-10-12T08:01:29Z</time>
      </trkpt>
      <trkpt lat="47.57921" lon="-2.94455">
        <time>2013-10-12T08:01:32Z</time>
      </trkpt>
      <trkpt lat="47.57919" lon="-2.94463">
        <time>2013-10-12T08:01:35Z</time>
      </trkpt>
      <trkpt lat="47.57916" lon="-2.94471">
        <time>2013-10-12T08:01:38Z</time>
      </trkpt>
      <trkpt lat="47.57914" lon="-2.94478">
        <time>2013-10-12T08:01:41Z</time>
      </trkpt>
      <trkpt lat="47.57912" lon="-2.94486">
        <time>2013-10-12T08:01:44Z</time>
      </trkpt>
      <trkpt lat="47.57909" lon="-2.94495">
        <time>2013-10-12T08:01:48Z</time>
      </trkpt>
      <trkpt lat="47.57906" lon="-2.94501">
        <time>2013-10-12T08:01:51Z</time>
      </trkpt>
      <trkpt lat="47.57902" lon="-2.94507">
        <time>2013-10-12T08:01:54Z</time>
      </trkpt>
      <trkpt lat="47.57899" lon="-2.94514">
        <time>2013-10-12T08:01:57Z</time>
      </trkpt>
      <trkpt lat="47.57896" lon="-2.94523">
        <time>2013-10-12T08:02:00Z</time>
      </trkpt>
      <trkpt lat="47.57893" lon="-2.94531">
        <time>2013-10-12T08:02:03Z</time>
      </trkpt>
      <trkpt lat="47.57889" lon="-2.94539">
        <time>2013-10-12T08:02:06Z</time>
      </trkpt>
      <trkpt lat="47.57887" lon="-2.94545">
        <time>2013-10-12T08:02:08Z</time>
      </trkpt>
      <trkpt lat="47.57884" lon="-2.9455">
        <time>2013-10-12T08:02:10Z</time>
      </trkpt>
      <trkpt lat="47.5788" lon="-2.94558">
        <time>2013-10-12T08:02:13Z</time>
      </trkpt>
      <trkpt lat="47.57878" lon="-2.94567">
        <time>2013-10-12T08:02:16Z</time>
      </trkpt>
      <trkpt lat="47.57875" lon="-2.94576">
        <time>2013-10-12T08:02:19Z</time>
      </trkpt>
      <trkpt lat="47.57873" lon="-2.94584">
        <time>2013-10-12T08:02:22Z</time>
      </trkpt>
      <trkpt lat="47.57871" lon="-2.94591">
        <time>2013-10-12T08:02:25Z</time>
      </trkpt>
      <trkpt lat="47.57868" lon="-2.94598">
        <time>2013-10-12T08:02:29Z</time>
      </trkpt>
      <trkpt lat="47.57865" lon="-2.94604">
        <time>2013-10-12T08:02:32Z</time>
      </trkpt>
      <trkpt lat="47.57862" lon="-2.9461">
        <time>2013-10-12T08:02:35Z</time>
      </trkpt>
      <trkpt lat="47.57859" lon="-2.94616">
        <time>2013-10-12T08:02:38Z</time>
      </trkpt>
      <trkpt lat="47.57855" lon="-2.94621">
        <time>2013-10-12T08:02:41Z</time>
      </trkpt>
      <trkpt lat="47.57851" lon="-2.94627">
        <time>2013-10-12T08:02:44Z</time>
      </trkpt>
      <trkpt lat="47.57848" lon="-2.94633">
        <time>2013-10-12T08:02:47Z</time>
      </trkpt>
      <trkpt lat="47.57844" lon="-2.94637">
        <time>2013-10-12T08:02:51Z</time>
      </trkpt>
      <trkpt lat="47.57838" lon="-2.94636">
        <time>2013-10-12T08:02:57Z</time>
      </trkpt>
      <trkpt lat="47.57834" lon="-2.94634">
        <time>2013-10-12T08:03:01Z</time>
      </trkpt>
      <trkpt lat="47.57827" lon="-2.94634">
        <ele>2</ele>
        <time>2013-10-12T08:03:05Z</time>
      </trkpt>
      <trkpt lat="47.57823" lon="-2.94635">
        <ele>2</ele>
        <time>2013-10-12T08:03:08Z</time>
      </trkpt>
      <trkpt lat="47.57817" lon="-2.94637">
        <ele>2</ele>
        <time>2013-10-12T08:03:12Z</time>
      </trkpt>
      <trkpt lat="47.57812" lon="-2.94639">
        <ele>2</ele>
        <time>2013-10-12T08:03:15Z</time>
      </trkpt>
      <trkpt lat="47.57807" lon="-2.94639">
        <ele>2</ele>
        <time>2013-10-12T08:03:17Z</time>
      </trkpt>
      <trkpt lat="47.57802" lon="-2.9464">
        <ele>2</ele>
        <time>2013-10-12T08:03:20Z</time>
      </trkpt>
      <trkpt lat="47.57798" lon="-2.94642">
        <ele>2</ele>
        <time>2013-10-12T08:03:24Z</time>
      </trkpt>
      <trkpt lat="47.57793" lon="-2.94639">
        <ele>2</ele>
        <time>2013-10-12T08:03:33Z</time>
      </trkpt>
      <trkpt lat="47.57789" lon="-2.94635">
        <ele>2</ele>
        <time>2013-10-12T08:03:38Z</time>
      </trkpt>
      <trkpt lat="47.57785" lon="-2.94632">
        <ele>2</ele>
        <time>2013-10-12T08:03:42Z</time>
      </trkpt>
      <trkpt lat="47.5778" lon="-2.9463">
        <ele>2</ele>
        <time>2013-10-12T08:03:47Z</time>
      </trkpt>
      <trkpt lat="47.57776" lon="-2.94626">
        <ele>2</ele>
        <time>2013-10-12T08:03:52Z</time>
      </trkpt>
      <trkpt lat="47.57771" lon="-2.94624">
        <ele>2</ele>
        <time>2013-10-12T08:03:56Z</time>
      </trkpt>
      <trkpt lat="47.57766" lon="-2.94622">
        <ele>2</ele>
        <time>2013-10-12T08:04:01Z</time>
      </trkpt>
      <trkpt lat="47.57762" lon="-2.94617">
        <ele>2</ele>
        <time>2013-10-12T08:04:06Z</time>
      </trkpt>
      <trkpt lat="47.57757" lon="-2.94613">
        <ele>2</ele>
        <time>2013-10-12T08:04:10Z</time>
      </trkpt>
      <trkpt lat="47.57752" lon="-2.94609">
        <ele>2</ele>
        <time>2013-10-12T08:04:13Z</time>
      </trkpt>
      <trkpt lat="47.57747" lon="-2.94604">
        <ele>2</ele>
        <time>2013-10-12T08:04:16Z</time>
      </trkpt>
      <trkpt lat="47.57744" lon="-2.94598">
        <ele>2</ele>
        <time>2013-10-12T08:04:19Z</time>
      </trkpt>
      <trkpt lat="47.5774" lon="-2.94593">
        <ele>2</ele>
        <time>2013-10-12T08:04:22Z</time>
      </trkpt>
      <trkpt lat="47.57737" lon="-2.94588">
        <ele>2</ele>
        <time>2013-10-12T08:04:25Z</time>
      </trkpt>
      <trkpt lat="47.57733" lon="-2.94583">
        <time>2013-10-12T08:04:28Z</time>
      </trkpt>
      <trkpt lat="47.57729" lon="-2.94577">
        <time>2013-10-12T08:04:32Z</time>
      </trkpt>
      <trkpt lat="47.57726" lon="-2.94573">
        <time>2013-10-12T08:04:35Z</time>
      </trkpt>
      <trkpt lat="47.57721" lon="-2.94569">
        <ele>1</ele>
        <time>2013-10-12T08:04:38Z</time>
      </trkpt>
      <trkpt lat="47.57716" lon="-2.94565">
        <ele>1</ele>
        <time>2013-10-12T08:04:41Z</time>
      </trkpt>
      <trkpt lat="47.5771" lon="-2.94562">
        <ele>1</ele>
        <time>2013-10-12T08:04:44Z</time>
      </trkpt>
      <trkpt lat="47.57704" lon="-2.94559">
        <ele>1</ele>
        <time>2013-10-12T08:04:47Z</time>
      </trkpt>
      <trkpt lat="47.57698" lon="-2.94556">
        <ele>1</ele>
        <time>2013-10-12T08:04:50Z</time>
      </trkpt>
      <trkpt lat="47.57692" lon="-2.94554">
        <time>2013-10-12T08:04:53Z</time>
      </trkpt>
      <trkpt lat="47.57687" lon="-2.94551">
        <time>2013-10-12T08:04:56Z</time>
      </trkpt>
      <trkpt lat="47.57682" lon="-2.94548">
        <time>2013-10-12T08:04:59Z</time>
      </trkpt>
      <trkpt lat="47.57677" lon="-2.94545">
        <time>2013-10-12T08:05:02Z</time>
      </trkpt>
      <trkpt lat="47.57671" lon="-2.94542">
        <time>2013-10-12T08:05:05Z</time>
      </trkpt>
      <trkpt lat="47.57667" lon="-2.9454">
        <ele>5</ele>
        <time>2013-10-12T08:05:08Z</time>
      </trkpt>
      <trkpt lat="47.57661" lon="-2.94537">
        <ele>5</ele>
        <time>2013-10-12T08:05:11Z</time>
      </trkpt>
      <trkpt lat="47.57657" lon="-2.94533">
        <ele>5</ele>
        <time>2013-10-12T08:05:14Z</time>
      </trkpt>
      <trkpt lat="47.57653" lon="-2.9453">
        <ele>5</ele>
        <time>2013-10-12T08:05:17Z</time>
      </trkpt>
      <trkpt lat="47.57648" lon="-2.94525">
        <ele>5</ele>
        <time>2013-10-12T08:05:21Z</time>
      </trkpt>
      <trkpt lat="47.57643" lon="-2.9452">
        <ele>5</ele>
        <time>2013-10-12T08:05:25Z</time>
      </trkpt>
      <trkpt lat="47.57638" lon="-2.94515">
        <ele>5</ele>
        <time>2013-10-12T08:05:29Z</time>
      </trkpt>
      <trkpt lat="47.57631" lon="-2.94512">
        <ele>5</ele>
        <time>2013-10-12T08:05:32Z</time>
      </trkpt>
      <trkpt lat="47.57625" lon="-2.94509">
        <ele>5</ele>
        <time>2013-10-12T08:05:37Z</time>
      </trkpt>
      <trkpt lat="47.57619" lon="-2.94509">
        <ele>5</ele>
        <time>2013-10-12T08:05:41Z</time>
      </trkpt>
      <trkpt lat="47.57614" lon="-2.94509">
        <ele>5</ele>
        <time>2013-10-12T08:05:45Z</time>
      </trkpt>
      <trkpt lat="47.57609" lon="-2.94507">
        <ele>5</ele>
        <time>2013-10-12T08:05:48Z</time>
      </trkpt>
      <trkpt lat="47.57604" lon="-2.94504">
        <ele>5</ele>
        <time>2013-10-12T08:05:51Z</time>
      </trkpt>
      <trkpt lat="47.57592" lon="-2.94497">
        <time>2013-10-12T08:06:00Z</time>
      </trkpt>
      <trkpt lat="47.57588" lon="-2.94495">
        <time>2013-10-12T08:06:03Z</time>
      </trkpt>
      <trkpt lat="47.57584" lon="-2.94492">
        <time>2013-10-12T08:06:06Z</time>
      </trkpt>
      <trkpt lat="47.57574" lon="-2.94486">
        <ele>2</ele>
        <time>2013-10-12T08:06:12Z</time>
      </trkpt>
      <trkpt lat="47.57568" lon="-2.94484">
        <ele>2</ele>
        <time>2013-10-12T08:06:15Z</time>
      </trkpt>
      <trkpt lat="47.57563" lon="-2.94482">
        <ele>2</ele>
        <time>2013-10-12T08:06:18Z</time>
      </trkpt>
      <trkpt lat="47.57558" lon="-2.9448">
        <ele>2</ele>
        <time>2013-10-12T08:06:22Z</time>
      </trkpt>
      <trkpt lat="47.57552" lon="-2.94479">
        <ele>2</ele>
        <time>2013-10-12T08:06:25Z</time>
      </trkpt>
      <trkpt lat="47.57547" lon="-2.94478">
        <ele>2</ele>
        <time>2013-10-12T08:06:28Z</time>
      </trkpt>
      <trkpt lat="47.57541" lon="-2.94476">
        <ele>2</ele>
        <time>2013-10-12T08:06:31Z</time>
      </trkpt>
      <trkpt lat="47.57536" lon="-2.94475">
        <ele>2</ele>
        <time>2013-10-12T08:06:34Z</time>
      </trkpt>
      <trkpt lat="47.57532" lon="-2.94473">
        <ele>2</ele>
        <time>2013-10-12T08:06:39Z</time>
      </trkpt>
      <trkpt lat="47.57526" lon="-2.94472">
        <ele>2</ele>
        <time>2013-10-12T08:06:42Z</time>
      </trkpt>
      <trkpt lat="47.5752" lon="-2.9447">
        <ele>2</ele>
        <time>2013-10-12T08:06:45Z</time>
      </trkpt>
      <trkpt lat="47.57515" lon="-2.94468">
        <ele>2</ele>
        <time>2013-10-12T08:06:48Z</time>
      </trkpt>
      <trkpt lat="47.5751" lon="-2.94465">
        <ele>2</ele>
        <time>2013-10-12T08:06:51Z</time>
      </trkpt>
      <trkpt lat="47.57505" lon="-2.94463">
        <ele>2</ele>
        <time>2013-10-12T08:06:54Z</time>
      </trkpt>
      <trkpt lat="47.575" lon="-2.94461">
        <ele>2</ele>
        <time>2013-10-12T08:06:57Z</time>
      </trkpt>
      <trkpt lat="47.57495" lon="-2.94457">
        <ele>3</ele>
        <time>2013-10-12T08:07:01Z</time>
      </trkpt>
      <trkpt lat="47.5749" lon="-2.94452">
        <ele>3</ele>
        <time>2013-10-12T08:07:05Z</time>
      </trkpt>
      <trkpt lat="47.57486" lon="-2.94448">
        <ele>3</ele>
        <time>2013-10-12T08:07:08Z</time>
      </trkpt>
      <trkpt lat="47.57482" lon="-2.94444">
        <ele>3</ele>
        <time>2013-10-12T08:07:11Z</time>
      </trkpt>
      <trkpt lat="47.57478" lon="-2.94441">
        <ele>3</ele>
        <time>2013-10-12T08:07:14Z</time>
      </trkpt>
      <trkpt lat="47.57473" lon="-2.94439">
        <ele>3</ele>
        <time>2013-10-12T08:07:17Z</time>
      </trkpt>
      <trkpt lat="47.57469" lon="-2.94436">
        <ele>3</ele>
        <time>2013-10-12T08:07:20Z</time>
      </trkpt>
      <trkpt lat="47.57464" lon="-2.94434">
        <ele>3</ele>
        <time>2013-10-12T08:07:23Z</time>
      </trkpt>
      <trkpt lat="47.57458" lon="-2.94433">
        <ele>3</ele>
        <time>2013-10-12T08:07:26Z</time>
      </trkpt>
      <trkpt lat="47.57453" lon="-2.94434">
        <ele>3</ele>
        <time>2013-10-12T08:07:29Z</time>
      </trkpt>
      <trkpt lat="47.57448" lon="-2.94435">
        <ele>3</ele>
        <time>2013-10-12T08:07:32Z</time>
      </trkpt>
      <trkpt lat="47.57443" lon="-2.94436">
        <ele>3</ele>
        <time>2013-10-12T08:07:35Z</time>
      </trkpt>
      <trkpt lat="47.57439" lon="-2.94436">
        <ele>3</ele>
        <time>2013-10-12T08:07:38Z</time>
      </trkpt>
      <trkpt lat="47.57433" lon="-2.94436">
        <ele>3</ele>
        <time>2013-10-12T08:07:42Z</time>
      </trkpt>
      <trkpt lat="47.57428" lon="-2.94436">
        <ele>3</ele>
        <time>2013-10-12T08:07:45Z</time>
      </trkpt>
      <trkpt lat="47.57423" lon="-2.94435">
        <ele>3</ele>
        <time>2013-10-12T08:07:48Z</time>
      </trkpt>
      <trkpt lat="47.57417" lon="-2.94435">
        <ele>3</ele>
        <time>2013-10-12T08:07:51Z</time>
      </trkpt>
      <trkpt lat="47.57411" lon="-2.94435">
        <ele>4</ele>
        <time>2013-10-12T08:07:54Z</time>
      </trkpt>
      <trkpt lat="47.57406" lon="-2.94435">
        <ele>4</ele>
        <time>2013-10-12T08:07:57Z</time>
      </trkpt>
      <trkpt lat="47.57401" lon="-2.94433">
        <ele>4</ele>
        <time>2013-10-12T08:08:00Z</time>
      </trkpt>
      <trkpt lat="47.57395" lon="-2.94432">
        <ele>4</ele>
        <time>2013-10-12T08:08:03Z</time>
      </trkpt>
      <trkpt lat="47.57388" lon="-2.94431">
        <ele>4</ele>
        <time>2013-10-12T08:08:06Z</time>
      </trkpt>
      <trkpt lat="47.57382" lon="-2.94431">
        <ele>4</ele>
        <time>2013-10-12T08:08:09Z</time>
      </trkpt>
      <trkpt lat="47.57377" lon="-2.9443">
        <ele>4</ele>
        <time>2013-10-12T08:08:11Z</time>
      </trkpt>
      <trkpt lat="47.57371" lon="-2.9443">
        <ele>4</ele>
        <time>2013-10-12T08:08:14Z</time>
      </trkpt>
      <trkpt lat="47.57364" lon="-2.94428">
        <ele>4</ele>
        <time>2013-10-12T08:08:17Z</time>
      </trkpt>
      <trkpt lat="47.57358" lon="-2.94427">
        <ele>4</ele>
        <time>2013-10-12T08:08:20Z</time>
      </trkpt>
      <trkpt lat="47.57353" lon="-2.94425">
        <ele>4</ele>
        <time>2013-10-12T08:08:23Z</time>
      </trkpt>
      <trkpt lat="47.57347" lon="-2.94423">
        <ele>4</ele>
        <time>2013-10-12T08:08:26Z</time>
      </trkpt>
      <trkpt lat="47.57342" lon="-2.94422">
        <ele>4</ele>
        <time>2013-10-12T08:08:29Z</time>
      </trkpt>
      <trkpt lat="47.57335" lon="-2.94422">
        <ele>4</ele>
        <time>2013-10-12T08:08:32Z</time>
      </trkpt>
      <trkpt lat="47.5733" lon="-2.94422">
        <time>2013-10-12T08:08:34Z</time>
      </trkpt>
      <trkpt lat="47.57323" lon="-2.94421">
        <time>2013-10-12T08:08:37Z</time>
      </trkpt>
      <trkpt lat="47.57317" lon="-2.9442">
        <time>2013-10-12T08:08:40Z</time>
      </trkpt>
      <trkpt lat="47.57311" lon="-2.94419">
        <time>2013-10-12T08:08:43Z</time>
      </trkpt>
      <trkpt lat="47.57305" lon="-2.94418">
        <time>2013-10-12T08:08:46Z</time>
      </trkpt>
      <trkpt lat="47.57299" lon="-2.94417">
        <time>2013-10-12T08:08:49Z</time>
      </trkpt>
      <trkpt lat="47.57294" lon="-2.94416">
        <time>2013-10-12T08:08:52Z</time>
      </trkpt>
      <trkpt lat="47.57288" lon="-2.94414">
        <time>2013-10-12T08:08:55Z</time>
      </trkpt>
      <trkpt lat="47.57283" lon="-2.94414">
        <time>2013-10-12T08:08:57Z</time>
      </trkpt>
      <trkpt lat="47.57277" lon="-2.94413">
        <time>2013-10-12T08:09:00Z</time>
      </trkpt>
      <trkpt lat="47.57271" lon="-2.94412">
        <time>2013-10-12T08:09:03Z</time>
      </trkpt>
      <trkpt lat="47.57266" lon="-2.9441">
        <time>2013-10-12T08:09:05Z</time>
      </trkpt>
      <trkpt lat="47.57261" lon="-2.94409">
        <time>2013-10-12T08:09:07Z</time>
      </trkpt>
      <trkpt lat="47.57255" lon="-2.94407">
        <time>2013-10-12T08:09:10Z</time>
      </trkpt>
      <trkpt lat="47.57249" lon="-2.94406">
        <time>2013-10-12T08:09:13Z</time>
      </trkpt>
      <trkpt lat="47.57243" lon="-2.94405">
        <time>2013-10-12T08:09:16Z</time>
      </trkpt>
      <trkpt lat="47.57236" lon="-2.94404">
        <time>2013-10-12T08:09:19Z</time>
      </trkpt>
      <trkpt lat="47.57232" lon="-2.94404">
        <time>2013-10-12T08:09:21Z</time>
      </trkpt>
      <trkpt lat="47.57226" lon="-2.94403">
        <time>2013-10-12T08:09:24Z</time>
      </trkpt>
      <trkpt lat="47.5722" lon="-2.94404">
        <time>2013-10-12T08:09:27Z</time>
      </trkpt>
      <trkpt lat="47.57214" lon="-2.94404">
        <time>2013-10-12T08:09:30Z</time>
      </trkpt>
      <trkpt lat="47.57207" lon="-2.94404">
        <time>2013-10-12T08:09:33Z</time>
      </trkpt>
      <trkpt lat="47.57201" lon="-2.94402">
        <time>2013-10-12T08:09:36Z</time>
      </trkpt>
      <trkpt lat="47.57196" lon="-2.94401">
        <time>2013-10-12T08:09:38Z</time>
      </trkpt>
      <trkpt lat="47.57192" lon="-2.94399">
        <time>2013-10-12T08:09:40Z</time>
      </trkpt>
      <trkpt lat="47.57186" lon="-2.94397">
        <time>2013-10-12T08:09:43Z</time>
      </trkpt>
      <trkpt lat="47.57181" lon="-2.94396">
        <time>2013-10-12T08:09:45Z</time>
      </trkpt>
      <trkpt lat="47.57173" lon="-2.94393">
        <time>2013-10-12T08:09:49Z</time>
      </trkpt>
      <trkpt lat="47.57167" lon="-2.94392">
        <time>2013-10-12T08:09:52Z</time>
      </trkpt>
      <trkpt lat="47.57161" lon="-2.94391">
        <ele>3</ele>
        <time>2013-10-12T08:09:55Z</time>
      </trkpt>
      <trkpt lat="47.57156" lon="-2.94391">
        <ele>3</ele>
        <time>2013-10-12T08:09:58Z</time>
      </trkpt>
      <trkpt lat="47.57151" lon="-2.94391">
        <ele>3</ele>
        <time>2013-10-12T08:10:01Z</time>
      </trkpt>
      <trkpt lat="47.57147" lon="-2.94389">
        <ele>3</ele>
        <time>2013-10-12T08:10:04Z</time>
      </trkpt>
      <trkpt lat="47.57142" lon="-2.94386">
        <ele>3</ele>
        <time>2013-10-12T08:10:07Z</time>
      </trkpt>
      <trkpt lat="47.57136" lon="-2.94382">
        <ele>3</ele>
        <time>2013-10-12T08:10:10Z</time>
      </trkpt>
      <trkpt lat="47.57132" lon="-2.94377">
        <ele>3</ele>
        <time>2013-10-12T08:10:13Z</time>
      </trkpt>
      <trkpt lat="47.57128" lon="-2.94371">
        <ele>3</ele>
        <time>2013-10-12T08:10:16Z</time>
      </trkpt>
      <trkpt lat="47.57124" lon="-2.94367">
        <ele>3</ele>
        <time>2013-10-12T08:10:19Z</time>
      </trkpt>
      <trkpt lat="47.57119" lon="-2.94363">
        <ele>3</ele>
        <time>2013-10-12T08:10:22Z</time>
      </trkpt>
      <trkpt lat="47.57115" lon="-2.94359">
        <ele>3</ele>
        <time>2013-10-12T08:10:25Z</time>
      </trkpt>
      <trkpt lat="47.57109" lon="-2.94357">
        <ele>3</ele>
        <time>2013-10-12T08:10:29Z</time>
      </trkpt>
      <trkpt lat="47.57105" lon="-2.94354">
        <ele>3</ele>
        <time>2013-10-12T08:10:36Z</time>
      </trkpt>
      <trkpt lat="47.57107" lon="-2.94347">
        <ele>3</ele>
        <time>2013-10-12T08:10:47Z</time>
      </trkpt>
      <trkpt lat="47.57105" lon="-2.94341">
        <ele>3</ele>
        <time>2013-10-12T08:10:58Z</time>
      </trkpt>
      <trkpt lat="47.57104" lon="-2.94334">
        <ele>3</ele>
        <time>2013-10-12T08:11:07Z</time>
      </trkpt>
      <trkpt lat="47.57101" lon="-2.94328">
        <time>2013-10-12T08:11:17Z</time>
      </trkpt>
      <trkpt lat="47.57098" lon="-2.94322">
        <time>2013-10-12T08:11:24Z</time>
      </trkpt>
      <trkpt lat="47.57094" lon="-2.94318">
        <time>2013-10-12T08:11:36Z</time>
      </trkpt>
      <trkpt lat="47.5709" lon="-2.94315">
        <time>2013-10-12T08:11:52Z</time>
      </trkpt>
      <trkpt lat="47.57087" lon="-2.9431">
        <time>2013-10-12T08:12:01Z</time>
      </trkpt>
      <trkpt lat="47.57083" lon="-2.94306">
        <ele>4</ele>
        <time>2013-10-12T08:12:44Z</time>
      </trkpt>
      <trkpt lat="47.5708" lon="-2.94301">
        <ele>4</ele>
        <time>2013-10-12T08:13:04Z</time>
      </trkpt>
      <trkpt lat="47.57073" lon="-2.94291">
        <ele>4</ele>
        <time>2013-10-12T08:13:13Z</time>
      </trkpt>
      <trkpt lat="47.57071" lon="-2.94285">
        <ele>4</ele>
        <time>2013-10-12T08:13:25Z</time>
      </trkpt>
      <trkpt lat="47.57067" lon="-2.94281">
        <ele>4</ele>
        <time>2013-10-12T08:13:30Z</time>
      </trkpt>
      <trkpt lat="47.57063" lon="-2.94277">
        <ele>4</ele>
        <time>2013-10-12T08:13:35Z</time>
      </trkpt>
      <trkpt lat="47.57059" lon="-2.94273">
        <ele>4</ele>
        <time>2013-10-12T08:13:45Z</time>
      </trkpt>
      <trkpt lat="47.57056" lon="-2.94269">
        <ele>4</ele>
        <time>2013-10-12T08:13:53Z</time>
      </trkpt>
      <trkpt lat="47.57052" lon="-2.94263">
        <ele>4</ele>
        <time>2013-10-12T08:14:02Z</time>
      </trkpt>
      <trkpt lat="47.57048" lon="-2.94259">
        <ele>4</ele>
        <time>2013-10-12T08:14:13Z</time>
      </trkpt>
      <trkpt lat="47.57044" lon="-2.94256">
        <ele>4</ele>
        <time>2013-10-12T08:14:23Z</time>
      </trkpt>
      <trkpt lat="47.5704" lon="-2.94252">
        <ele>4</ele>
        <time>2013-10-12T08:14:35Z</time>
      </trkpt>
      <trkpt lat="47.57034" lon="-2.94254">
        <ele>4</ele>
        <time>2013-10-12T08:14:40Z</time>
      </trkpt>
      <trkpt lat="47.5703" lon="-2.94259">
        <ele>4</ele>
        <time>2013-10-12T08:14:44Z</time>
      </trkpt>
      <trkpt lat="47.57028" lon="-2.94266">
        <ele>4</ele>
        <time>2013-10-12T08:14:49Z</time>
      </trkpt>
      <trkpt lat="47.57029" lon="-2.94274">
        <ele>4</ele>
        <time>2013-10-12T08:14:55Z</time>
      </trkpt>
      <trkpt lat="47.57031" lon="-2.9428">
        <ele>4</ele>
        <time>2013-10-12T08:15:01Z</time>
      </trkpt>
      <trkpt lat="47.57034" lon="-2.94286">
        <ele>4</ele>
        <time>2013-10-12T08:15:06Z</time>
      </trkpt>
      <trkpt lat="47.57038" lon="-2.94293">
        <ele>4</ele>
        <time>2013-10-12T08:15:10Z</time>
      </trkpt>
      <trkpt lat="47.57041" lon="-2.94299">
        <ele>4</ele>
        <time>2013-10-12T08:15:13Z</time>
      </trkpt>
      <trkpt lat="47.57043" lon="-2.94305">
        <ele>4</ele>
        <time>2013-10-12T08:15:16Z</time>
      </trkpt>
      <trkpt lat="47.57047" lon="-2.94311">
        <ele>4</ele>
        <time>2013-10-12T08:15:19Z</time>
      </trkpt>
      <trkpt lat="47.57051" lon="-2.94317">
        <ele>4</ele>
        <time>2013-10-12T08:15:22Z</time>
      </trkpt>
      <trkpt lat="47.57055" lon="-2.94323">
        <ele>4</ele>
        <time>2013-10-12T08:15:25Z</time>
      </trkpt>
      <trkpt lat="47.57059" lon="-2.94329">
        <ele>4</ele>
        <time>2013-10-12T08:15:28Z</time>
      </trkpt>
      <trkpt lat="47.57064" lon="-2.94333">
        <ele>4</ele>
        <time>2013-10-12T08:15:31Z</time>
      </trkpt>
      <trkpt lat="47.57069" lon="-2.94338">
        <ele>4</ele>
        <time>2013-10-12T08:15:34Z</time>
      </trkpt>
      <trkpt lat="47.57074" lon="-2.94343">
        <ele>4</ele>
        <time>2013-10-12T08:15:37Z</time>
      </trkpt>
      <trkpt lat="47.57077" lon="-2.94348">
        <ele>4</ele>
        <time>2013-10-12T08:15:40Z</time>
      </trkpt>
      <trkpt lat="47.57081" lon="-2.94354">
        <ele>4</ele>
        <time>2013-10-12T08:15:44Z</time>
      </trkpt>
      <trkpt lat="47.57085" lon="-2.94359">
        <ele>3</ele>
        <time>2013-10-12T08:15:48Z</time>
      </trkpt>
      <trkpt lat="47.57086" lon="-2.94366">
        <ele>3</ele>
        <time>2013-10-12T08:15:53Z</time>
      </trkpt>
      <trkpt lat="47.57086" lon="-2.94374">
        <ele>3</ele>
        <time>2013-10-12T08:15:58Z</time>
      </trkpt>
      <trkpt lat="47.57086" lon="-2.94381">
        <ele>3</ele>
        <time>2013-10-12T08:16:05Z</time>
      </trkpt>
      <trkpt lat="47.57087" lon="-2.94388">
        <ele>3</ele>
        <time>2013-10-12T08:16:23Z</time>
      </trkpt>
      <trkpt lat="47.5709" lon="-2.94395">
        <ele>3</ele>
        <time>2013-10-12T08:16:36Z</time>
      </trkpt>
      <trkpt lat="47.57092" lon="-2.94401">
        <ele>3</ele>
        <time>2013-10-12T08:17:31Z</time>
      </trkpt>
      <trkpt lat="47.57093" lon="-2.94408">
        <ele>3</ele>
        <time>2013-10-12T08:17:39Z</time>
      </trkpt>
      <trkpt lat="47.57094" lon="-2.94415">
        <ele>3</ele>
        <time>2013-10-12T08:17:43Z</time>
      </trkpt>
      <trkpt lat="47.57093" lon="-2.94409">
        <ele>3</ele>
        <time>2013-10-12T08:28:01Z</time>
      </trkpt>
      <trkpt lat="47.57093" lon="-2.94401">
        <ele>3</ele>
        <time>2013-10-12T08:28:11Z</time>
      </trkpt>
      <trkpt lat="47.57092" lon="-2.94392">
        <ele>3</ele>
        <time>2013-10-12T08:28:14Z</time>
      </trkpt>
      <trkpt lat="47.57091" lon="-2.94383">
        <ele>3</ele>
        <time>2013-10-12T08:28:17Z</time>
      </trkpt>
      <trkpt lat="47.57091" lon="-2.94376">
        <ele>3</ele>
        <time>2013-10-12T08:28:19Z</time>
      </trkpt>
      <trkpt lat="47.57089" lon="-2.94369">
        <ele>3</ele>
        <time>2013-10-12T08:28:21Z</time>
      </trkpt>
      <trkpt lat="47.57087" lon="-2.94359">
        <ele>3</ele>
        <time>2013-10-12T08:28:24Z</time>
      </trkpt>
      <trkpt lat="47.57086" lon="-2.9435">
        <ele>3</ele>
        <time>2013-10-12T08:28:27Z</time>
      </trkpt>
      <trkpt lat="47.57085" lon="-2.94342">
        <ele>3</ele>
        <time>2013-10-12T08:28:30Z</time>
      </trkpt>
      <trkpt lat="47.57084" lon="-2.94333">
        <time>2013-10-12T08:28:33Z</time>
      </trkpt>
      <trkpt lat="47.57082" lon="-2.94323">
        <ele>4</ele>
        <time>2013-10-12T08:28:36Z</time>
      </trkpt>
      <trkpt lat="47.57081" lon="-2.94314">
        <ele>4</ele>
        <time>2013-10-12T08:28:39Z</time>
      </trkpt>
      <trkpt lat="47.57079" lon="-2.94304">
        <ele>4</ele>
        <time>2013-10-12T08:28:42Z</time>
      </trkpt>
      <trkpt lat="47.57077" lon="-2.94296">
        <ele>4</ele>
        <time>2013-10-12T08:28:45Z</time>
      </trkpt>
      <trkpt lat="47.57073" lon="-2.9429">
        <ele>4</ele>
        <time>2013-10-12T08:28:48Z</time>
      </trkpt>
      <trkpt lat="47.57069" lon="-2.94285">
        <ele>4</ele>
        <time>2013-10-12T08:28:51Z</time>
      </trkpt>
      <trkpt lat="47.57066" lon="-2.94279">
        <ele>4</ele>
        <time>2013-10-12T08:28:54Z</time>
      </trkpt>
      <trkpt lat="47.57059" lon="-2.94268">
        <ele>4</ele>
        <time>2013-10-12T08:29:01Z</time>
      </trkpt>
      <trkpt lat="47.57056" lon="-2.94261">
        <ele>4</ele>
        <time>2013-10-12T08:29:05Z</time>
      </trkpt>
      <trkpt lat="47.57054" lon="-2.94255">
        <ele>4</ele>
        <time>2013-10-12T08:29:09Z</time>
      </trkpt>
      <trkpt lat="47.57053" lon="-2.94248">
        <time>2013-10-12T08:29:12Z</time>
      </trkpt>
      <trkpt lat="47.57052" lon="-2.94241">
        <time>2013-10-12T08:29:15Z</time>
      </trkpt>
      <trkpt lat="47.5705" lon="-2.94233">
        <time>2013-10-12T08:29:18Z</time>
      </trkpt>
      <trkpt lat="47.57049" lon="-2.94224">
        <time>2013-10-12T08:29:21Z</time>
      </trkpt>
      <trkpt lat="47.57048" lon="-2.94216">
        <time>2013-10-12T08:29:24Z</time>
      </trkpt>
      <trkpt lat="47.57046" lon="-2.94205">
        <time>2013-10-12T08:29:28Z</time>
      </trkpt>
      <trkpt lat="47.57044" lon="-2.94199">
        <time>2013-10-12T08:29:31Z</time>
      </trkpt>
      <trkpt lat="47.57041" lon="-2.94191">
        <time>2013-10-12T08:29:34Z</time>
      </trkpt>
      <trkpt lat="47.57038" lon="-2.94182">
        <time>2013-10-12T08:29:37Z</time>
      </trkpt>
      <trkpt lat="47.57036" lon="-2.94175">
        <time>2013-10-12T08:29:40Z</time>
      </trkpt>
      <trkpt lat="47.57033" lon="-2.94166">
        <time>2013-10-12T08:29:43Z</time>
      </trkpt>
      <trkpt lat="47.57027" lon="-2.94153">
        <time>2013-10-12T08:29:48Z</time>
      </trkpt>
      <trkpt lat="47.57024" lon="-2.94148">
        <time>2013-10-12T08:29:50Z</time>
      </trkpt>
      <trkpt lat="47.5702" lon="-2.94139">
        <time>2013-10-12T08:29:53Z</time>
      </trkpt>
      <trkpt lat="47.57016" lon="-2.94132">
        <time>2013-10-12T08:29:56Z</time>
      </trkpt>
      <trkpt lat="47.57012" lon="-2.94128">
        <time>2013-10-12T08:29:59Z</time>
      </trkpt>
      <trkpt lat="47.57008" lon="-2.94124">
        <time>2013-10-12T08:30:02Z</time>
      </trkpt>
      <trkpt lat="47.57004" lon="-2.94118">
        <time>2013-10-12T08:30:05Z</time>
      </trkpt>
      <trkpt lat="47.57001" lon="-2.9411">
        <time>2013-10-12T08:30:08Z</time>
      </trkpt>
      <trkpt lat="47.56997" lon="-2.94103">
        <time>2013-10-12T08:30:11Z</time>
      </trkpt>
      <trkpt lat="47.56995" lon="-2.94096">
        <time>2013-10-12T08:30:14Z</time>
      </trkpt>
      <trkpt lat="47.56994" lon="-2.94089">
        <time>2013-10-12T08:30:17Z</time>
      </trkpt>
      <trkpt lat="47.56993" lon="-2.94082">
        <time>2013-10-12T08:30:20Z</time>
      </trkpt>
      <trkpt lat="47.56989" lon="-2.94077">
        <time>2013-10-12T08:30:31Z</time>
      </trkpt>
      <trkpt lat="47.56984" lon="-2.94072">
        <time>2013-10-12T08:30:33Z</time>
      </trkpt>
      <trkpt lat="47.5698" lon="-2.94067">
        <time>2013-10-12T08:30:35Z</time>
      </trkpt>
      <trkpt lat="47.56976" lon="-2.94061">
        <time>2013-10-12T08:30:37Z</time>
      </trkpt>
      <trkpt lat="47.56971" lon="-2.94053">
        <time>2013-10-12T08:30:40Z</time>
      </trkpt>
      <trkpt lat="47.56967" lon="-2.94046">
        <time>2013-10-12T08:30:43Z</time>
      </trkpt>
      <trkpt lat="47.56963" lon="-2.94041">
        <time>2013-10-12T08:30:46Z</time>
      </trkpt>
      <trkpt lat="47.56957" lon="-2.94036">
        <time>2013-10-12T08:30:49Z</time>
      </trkpt>
      <trkpt lat="47.56951" lon="-2.9403">
        <time>2013-10-12T08:30:53Z</time>
      </trkpt>
      <trkpt lat="47.56941" lon="-2.9402">
        <time>2013-10-12T08:30:59Z</time>
      </trkpt>
      <trkpt lat="47.56936" lon="-2.94014">
        <time>2013-10-12T08:31:02Z</time>
      </trkpt>
      <trkpt lat="47.56932" lon="-2.9401">
        <time>2013-10-12T08:31:04Z</time>
      </trkpt>
      <trkpt lat="47.56929" lon="-2.94004">
        <time>2013-10-12T08:31:06Z</time>
      </trkpt>
      <trkpt lat="47.56925" lon="-2.93998">
        <time>2013-10-12T08:31:08Z</time>
      </trkpt>
      <trkpt lat="47.56922" lon="-2.93993">
        <time>2013-10-12T08:31:10Z</time>
      </trkpt>
      <trkpt lat="47.56919" lon="-2.93986">
        <time>2013-10-12T08:31:13Z</time>
      </trkpt>
      <trkpt lat="47.56915" lon="-2.93978">
        <time>2013-10-12T08:31:16Z</time>
      </trkpt>
      <trkpt lat="47.56913" lon="-2.93972">
        <time>2013-10-12T08:31:18Z</time>
      </trkpt>
      <trkpt lat="47.56909" lon="-2.93965">
        <time>2013-10-12T08:31:20Z</time>
      </trkpt>
      <trkpt lat="47.56905" lon="-2.93958">
        <time>2013-10-12T08:31:22Z</time>
      </trkpt>
      <trkpt lat="47.56902" lon="-2.93952">
        <time>2013-10-12T08:31:24Z</time>
      </trkpt>
      <trkpt lat="47.56899" lon="-2.93944">
        <time>2013-10-12T08:31:27Z</time>
      </trkpt>
      <trkpt lat="47.56898" lon="-2.93937">
        <time>2013-10-12T08:31:30Z</time>
      </trkpt>
      <trkpt lat="47.56896" lon="-2.9393">
        <time>2013-10-12T08:31:33Z</time>
      </trkpt>
      <trkpt lat="47.56892" lon="-2.93917">
        <time>2013-10-12T08:31:39Z</time>
      </trkpt>
      <trkpt lat="47.56889" lon="-2.93911">
        <time>2013-10-12T08:31:42Z</time>
      </trkpt>
      <trkpt lat="47.56885" lon="-2.93905">
        <time>2013-10-12T08:31:46Z</time>
      </trkpt>
      <trkpt lat="47.56877" lon="-2.93893">
        <time>2013-10-12T08:31:52Z</time>
      </trkpt>
      <trkpt lat="47.56874" lon="-2.93887">
        <time>2013-10-12T08:31:55Z</time>
      </trkpt>
      <trkpt lat="47.56872" lon="-2.93876">
        <time>2013-10-12T08:31:59Z</time>
      </trkpt>
      <trkpt lat="47.5687" lon="-2.93866">
        <time>2013-10-12T08:32:02Z</time>
      </trkpt>
      <trkpt lat="47.56868" lon="-2.93855">
        <time>2013-10-12T08:32:06Z</time>
      </trkpt>
      <trkpt lat="47.56866" lon="-2.93848">
        <time>2013-10-12T08:32:08Z</time>
      </trkpt>
      <trkpt lat="47.56864" lon="-2.93841">
        <time>2013-10-12T08:32:10Z</time>
      </trkpt>
      <trkpt lat="47.56861" lon="-2.93834">
        <time>2013-10-12T08:32:12Z</time>
      </trkpt>
      <trkpt lat="47.56859" lon="-2.93828">
        <time>2013-10-12T08:32:14Z</time>
      </trkpt>
      <trkpt lat="47.56856" lon="-2.93821">
        <time>2013-10-12T08:32:17Z</time>
      </trkpt>
      <trkpt lat="47.56855" lon="-2.93813">
        <time>2013-10-12T08:32:20Z</time>
      </trkpt>
      <trkpt lat="47.56853" lon="-2.93806">
        <time>2013-10-12T08:32:23Z</time>
      </trkpt>
      <trkpt lat="47.56852" lon="-2.93796">
        <time>2013-10-12T08:32:27Z</time>
      </trkpt>
      <trkpt lat="47.5685" lon="-2.93788">
        <time>2013-10-12T08:32:30Z</time>
      </trkpt>
      <trkpt lat="47.56848" lon="-2.9378">
        <time>2013-10-12T08:32:33Z</time>
      </trkpt>
      <trkpt lat="47.56846" lon="-2.93772">
        <time>2013-10-12T08:32:36Z</time>
      </trkpt>
      <trkpt lat="47.56844" lon="-2.93765">
        <time>2013-10-12T08:32:38Z</time>
      </trkpt>
      <trkpt lat="47.56841" lon="-2.93759">
        <time>2013-10-12T08:32:40Z</time>
      </trkpt>
      <trkpt lat="47.56839" lon="-2.93752">
        <time>2013-10-12T08:32:42Z</time>
      </trkpt>
      <trkpt lat="47.56837" lon="-2.93745">
        <time>2013-10-12T08:32:44Z</time>
      </trkpt>
      <trkpt lat="47.56835" lon="-2.93738">
        <time>2013-10-12T08:32:46Z</time>
      </trkpt>
      <trkpt lat="47.56834" lon="-2.93732">
        <time>2013-10-12T08:32:48Z</time>
      </trkpt>
      <trkpt lat="47.56831" lon="-2.93717">
        <ele>2</ele>
        <time>2013-10-12T08:32:53Z</time>
      </trkpt>
      <trkpt lat="47.56828" lon="-2.93709">
        <ele>2</ele>
        <time>2013-10-12T08:32:57Z</time>
      </trkpt>
      <trkpt lat="47.56823" lon="-2.93706">
        <ele>2</ele>
        <time>2013-10-12T08:33:00Z</time>
      </trkpt>
      <trkpt lat="47.5682" lon="-2.937">
        <ele>2</ele>
        <time>2013-10-12T08:33:03Z</time>
      </trkpt>
      <trkpt lat="47.56817" lon="-2.93694">
        <ele>2</ele>
        <time>2013-10-12T08:33:06Z</time>
      </trkpt>
      <trkpt lat="47.56814" lon="-2.93687">
        <ele>2</ele>
        <time>2013-10-12T08:33:09Z</time>
      </trkpt>
      <trkpt lat="47.56811" lon="-2.93679">
        <ele>2</ele>
        <time>2013-10-12T08:33:12Z</time>
      </trkpt>
      <trkpt lat="47.56807" lon="-2.93673">
        <ele>2</ele>
        <time>2013-10-12T08:33:15Z</time>
      </trkpt>
      <trkpt lat="47.56805" lon="-2.93665">
        <time>2013-10-12T08:33:18Z</time>
      </trkpt>
      <trkpt lat="47.56803" lon="-2.93658">
        <time>2013-10-12T08:33:21Z</time>
      </trkpt>
      <trkpt lat="47.56801" lon="-2.93651">
        <time>2013-10-12T08:33:24Z</time>
      </trkpt>
      <trkpt lat="47.56797" lon="-2.93647">
        <time>2013-10-12T08:33:26Z</time>
      </trkpt>
      <trkpt lat="47.56792" lon="-2.93645">
        <time>2013-10-12T08:33:28Z</time>
      </trkpt>
      <trkpt lat="47.56787" lon="-2.93643">
        <time>2013-10-12T08:33:30Z</time>
      </trkpt>
      <trkpt lat="47.56782" lon="-2.93643">
        <time>2013-10-12T08:33:32Z</time>
      </trkpt>
      <trkpt lat="47.56777" lon="-2.93643">
        <time>2013-10-12T08:33:34Z</time>
      </trkpt>
      <trkpt lat="47.56772" lon="-2.93644">
        <time>2013-10-12T08:33:36Z</time>
      </trkpt>
      <trkpt lat="47.56767" lon="-2.93645">
        <time>2013-10-12T08:33:38Z</time>
      </trkpt>
      <trkpt lat="47.56761" lon="-2.93646">
        <time>2013-10-12T08:33:41Z</time>
      </trkpt>
      <trkpt lat="47.56753" lon="-2.93647">
        <time>2013-10-12T08:33:45Z</time>
      </trkpt>
      <trkpt lat="47.56747" lon="-2.9365">
        <time>2013-10-12T08:33:48Z</time>
      </trkpt>
      <trkpt lat="47.56742" lon="-2.93653">
        <time>2013-10-12T08:33:51Z</time>
      </trkpt>
      <trkpt lat="47.56733" lon="-2.93656">
        <time>2013-10-12T08:33:55Z</time>
      </trkpt>
      <trkpt lat="47.56728" lon="-2.93657">
        <time>2013-10-12T08:33:58Z</time>
      </trkpt>
      <trkpt lat="47.56723" lon="-2.93657">
        <time>2013-10-12T08:34:01Z</time>
      </trkpt>
      <trkpt lat="47.56718" lon="-2.93658">
        <time>2013-10-12T08:34:04Z</time>
      </trkpt>
      <trkpt lat="47.56713" lon="-2.93659">
        <time>2013-10-12T08:34:07Z</time>
      </trkpt>
      <trkpt lat="47.56706" lon="-2.93659">
        <time>2013-10-12T08:34:10Z</time>
      </trkpt>
      <trkpt lat="47.56698" lon="-2.9366">
        <time>2013-10-12T08:34:14Z</time>
      </trkpt>
      <trkpt lat="47.56693" lon="-2.93661">
        <time>2013-10-12T08:34:17Z</time>
      </trkpt>
      <trkpt lat="47.56687" lon="-2.93661">
        <time>2013-10-12T08:34:20Z</time>
      </trkpt>
      <trkpt lat="47.56681" lon="-2.9366">
        <time>2013-10-12T08:34:23Z</time>
      </trkpt>
      <trkpt lat="47.56674" lon="-2.93659">
        <time>2013-10-12T08:34:26Z</time>
      </trkpt>
      <trkpt lat="47.56668" lon="-2.93659">
        <time>2013-10-12T08:34:29Z</time>
      </trkpt>
      <trkpt lat="47.56659" lon="-2.9366">
        <time>2013-10-12T08:34:33Z</time>
      </trkpt>
      <trkpt lat="47.56653" lon="-2.93661">
        <time>2013-10-12T08:34:36Z</time>
      </trkpt>
      <trkpt lat="47.56646" lon="-2.93663">
        <time>2013-10-12T08:34:41Z</time>
      </trkpt>
      <trkpt lat="47.56641" lon="-2.93663">
        <time>2013-10-12T08:34:46Z</time>
      </trkpt>
      <trkpt lat="47.56636" lon="-2.93661">
        <time>2013-10-12T08:34:50Z</time>
      </trkpt>
      <trkpt lat="47.56629" lon="-2.93661">
        <time>2013-10-12T08:34:54Z</time>
      </trkpt>
      <trkpt lat="47.56623" lon="-2.93661">
        <time>2013-10-12T08:34:57Z</time>
      </trkpt>
      <trkpt lat="47.56618" lon="-2.9366">
        <time>2013-10-12T08:35:00Z</time>
      </trkpt>
      <trkpt lat="47.56612" lon="-2.93658">
        <time>2013-10-12T08:35:03Z</time>
      </trkpt>
      <trkpt lat="47.56607" lon="-2.93657">
        <time>2013-10-12T08:35:05Z</time>
      </trkpt>
      <trkpt lat="47.56601" lon="-2.93656">
        <time>2013-10-12T08:35:08Z</time>
      </trkpt>
      <trkpt lat="47.56596" lon="-2.93654">
        <time>2013-10-12T08:35:11Z</time>
      </trkpt>
      <trkpt lat="47.5659" lon="-2.93652">
        <time>2013-10-12T08:35:14Z</time>
      </trkpt>
      <trkpt lat="47.56585" lon="-2.93651">
        <time>2013-10-12T08:35:17Z</time>
      </trkpt>
      <trkpt lat="47.56579" lon="-2.93651">
        <time>2013-10-12T08:35:20Z</time>
      </trkpt>
      <trkpt lat="47.56574" lon="-2.9365">
        <time>2013-10-12T08:35:24Z</time>
      </trkpt>
      <trkpt lat="47.5657" lon="-2.93648">
        <time>2013-10-12T08:35:27Z</time>
      </trkpt>
      <trkpt lat="47.56562" lon="-2.93645">
        <time>2013-10-12T08:35:31Z</time>
      </trkpt>
      <trkpt lat="47.56553" lon="-2.93643">
        <time>2013-10-12T08:35:35Z</time>
      </trkpt>
      <trkpt lat="47.56548" lon="-2.93641">
        <time>2013-10-12T08:35:37Z</time>
      </trkpt>
      <trkpt lat="47.56543" lon="-2.93639">
        <time>2013-10-12T08:35:39Z</time>
      </trkpt>
      <trkpt lat="47.56536" lon="-2.93637">
        <time>2013-10-12T08:35:42Z</time>
      </trkpt>
      <trkpt lat="47.5653" lon="-2.93634">
        <time>2013-10-12T08:35:45Z</time>
      </trkpt>
      <trkpt lat="47.56524" lon="-2.93631">
        <time>2013-10-12T08:35:48Z</time>
      </trkpt>
      <trkpt lat="47.56519" lon="-2.93629">
        <time>2013-10-12T08:35:51Z</time>
      </trkpt>
      <trkpt lat="47.56513" lon="-2.93626">
        <time>2013-10-12T08:35:54Z</time>
      </trkpt>
      <trkpt lat="47.56509" lon="-2.93624">
        <time>2013-10-12T08:35:56Z</time>
      </trkpt>
      <trkpt lat="47.56503" lon="-2.9362">
        <time>2013-10-12T08:35:59Z</time>
      </trkpt>
      <trkpt lat="47.56498" lon="-2.93616">
        <time>2013-10-12T08:36:02Z</time>
      </trkpt>
      <trkpt lat="47.56492" lon="-2.93612">
        <time>2013-10-12T08:36:05Z</time>
      </trkpt>
      <trkpt lat="47.56486" lon="-2.93609">
        <time>2013-10-12T08:36:08Z</time>
      </trkpt>
      <trkpt lat="47.5648" lon="-2.93606">
        <time>2013-10-12T08:36:11Z</time>
      </trkpt>
      <trkpt lat="47.56474" lon="-2.93603">
        <time>2013-10-12T08:36:14Z</time>
      </trkpt>
      <trkpt lat="47.56469" lon="-2.93599">
        <time>2013-10-12T08:36:17Z</time>
      </trkpt>
      <trkpt lat="47.56464" lon="-2.93596">
        <time>2013-10-12T08:36:20Z</time>
      </trkpt>
      <trkpt lat="47.56458" lon="-2.93592">
        <time>2013-10-12T08:36:23Z</time>
      </trkpt>
      <trkpt lat="47.56451" lon="-2.93589">
        <time>2013-10-12T08:36:26Z</time>
      </trkpt>
      <trkpt lat="47.56446" lon="-2.93586">
        <time>2013-10-12T08:36:29Z</time>
      </trkpt>
      <trkpt lat="47.56441" lon="-2.93583">
        <time>2013-10-12T08:36:32Z</time>
      </trkpt>
      <trkpt lat="47.56434" lon="-2.9358">
        <time>2013-10-12T08:36:36Z</time>
      </trkpt>
      <trkpt lat="47.56428" lon="-2.93578">
        <time>2013-10-12T08:36:39Z</time>
      </trkpt>
      <trkpt lat="47.56423" lon="-2.93577">
        <time>2013-10-12T08:36:42Z</time>
      </trkpt>
      <trkpt lat="47.56417" lon="-2.93575">
        <time>2013-10-12T08:36:46Z</time>
      </trkpt>
      <trkpt lat="47.56411" lon="-2.93572">
        <time>2013-10-12T08:36:50Z</time>
      </trkpt>
      <trkpt lat="47.56405" lon="-2.93569">
        <time>2013-10-12T08:36:54Z</time>
      </trkpt>
      <trkpt lat="47.56397" lon="-2.93565">
        <time>2013-10-12T08:36:58Z</time>
      </trkpt>
      <trkpt lat="47.5639" lon="-2.93563">
        <time>2013-10-12T08:37:02Z</time>
      </trkpt>
      <trkpt lat="47.56384" lon="-2.93562">
        <time>2013-10-12T08:37:05Z</time>
      </trkpt>
      <trkpt lat="47.56379" lon="-2.9356">
        <time>2013-10-12T08:37:08Z</time>
      </trkpt>
      <trkpt lat="47.56367" lon="-2.93555">
        <time>2013-10-12T08:37:14Z</time>
      </trkpt>
      <trkpt lat="47.5636" lon="-2.93553">
        <time>2013-10-12T08:37:17Z</time>
      </trkpt>
      <trkpt lat="47.56354" lon="-2.9355">
        <time>2013-10-12T08:37:20Z</time>
      </trkpt>
      <trkpt lat="47.56349" lon="-2.93548">
        <time>2013-10-12T08:37:23Z</time>
      </trkpt>
      <trkpt lat="47.56343" lon="-2.93545">
        <time>2013-10-12T08:37:26Z</time>
      </trkpt>
      <trkpt lat="47.56338" lon="-2.93542">
        <time>2013-10-12T08:37:29Z</time>
      </trkpt>
      <trkpt lat="47.56333" lon="-2.93538">
        <time>2013-10-12T08:37:32Z</time>
      </trkpt>
      <trkpt lat="47.56328" lon="-2.93535">
        <time>2013-10-12T08:37:35Z</time>
      </trkpt>
      <trkpt lat="47.5632" lon="-2.93533">
        <time>2013-10-12T08:37:39Z</time>
      </trkpt>
      <trkpt lat="47.56315" lon="-2.9353">
        <time>2013-10-12T08:37:42Z</time>
      </trkpt>
      <trkpt lat="47.5631" lon="-2.93528">
        <time>2013-10-12T08:37:44Z</time>
      </trkpt>
      <trkpt lat="47.56304" lon="-2.93523">
        <time>2013-10-12T08:37:47Z</time>
      </trkpt>
      <trkpt lat="47.56299" lon="-2.93518">
        <time>2013-10-12T08:37:50Z</time>
      </trkpt>
      <trkpt lat="47.56294" lon="-2.93512">
        <time>2013-10-12T08:37:53Z</time>
      </trkpt>
      <trkpt lat="47.5629" lon="-2.93506">
        <time>2013-10-12T08:37:56Z</time>
      </trkpt>
      <trkpt lat="47.56286" lon="-2.935">
        <time>2013-10-12T08:37:59Z</time>
      </trkpt>
      <trkpt lat="47.56282" lon="-2.93493">
        <time>2013-10-12T08:38:02Z</time>
      </trkpt>
      <trkpt lat="47.56274" lon="-2.93482">
        <time>2013-10-12T08:38:08Z</time>
      </trkpt>
      <trkpt lat="47.56269" lon="-2.93475">
        <time>2013-10-12T08:38:11Z</time>
      </trkpt>
      <trkpt lat="47.56265" lon="-2.93468">
        <time>2013-10-12T08:38:14Z</time>
      </trkpt>
      <trkpt lat="47.56261" lon="-2.93463">
        <time>2013-10-12T08:38:17Z</time>
      </trkpt>
      <trkpt lat="47.56256" lon="-2.93458">
        <time>2013-10-12T08:38:20Z</time>
      </trkpt>
      <trkpt lat="47.56251" lon="-2.93453">
        <time>2013-10-12T08:38:23Z</time>
      </trkpt>
      <trkpt lat="47.56247" lon="-2.93447">
        <time>2013-10-12T08:38:26Z</time>
      </trkpt>
      <trkpt lat="47.56244" lon="-2.9344">
        <time>2013-10-12T08:38:29Z</time>
      </trkpt>
      <trkpt lat="47.56241" lon="-2.93434">
        <time>2013-10-12T08:38:32Z</time>
      </trkpt>
      <trkpt lat="47.56237" lon="-2.93429">
        <time>2013-10-12T08:38:35Z</time>
      </trkpt>
      <trkpt lat="47.56231" lon="-2.93424">
        <time>2013-10-12T08:38:38Z</time>
      </trkpt>
      <trkpt lat="47.56226" lon="-2.93419">
        <time>2013-10-12T08:38:41Z</time>
      </trkpt>
      <trkpt lat="47.56218" lon="-2.93409">
        <time>2013-10-12T08:38:46Z</time>
      </trkpt>
      <trkpt lat="47.56214" lon="-2.93403">
        <time>2013-10-12T08:38:49Z</time>
      </trkpt>
      <trkpt lat="47.5621" lon="-2.93397">
        <time>2013-10-12T08:38:52Z</time>
      </trkpt>
      <trkpt lat="47.56206" lon="-2.9339">
        <time>2013-10-12T08:38:55Z</time>
      </trkpt>
      <trkpt lat="47.56198" lon="-2.9338">
        <time>2013-10-12T08:39:00Z</time>
      </trkpt>
      <trkpt lat="47.56193" lon="-2.93375">
        <time>2013-10-12T08:39:03Z</time>
      </trkpt>
      <trkpt lat="47.56183" lon="-2.93363">
        <time>2013-10-12T08:39:09Z</time>
      </trkpt>
      <trkpt lat="47.56178" lon="-2.93357">
        <time>2013-10-12T08:39:12Z</time>
      </trkpt>
      <trkpt lat="47.56175" lon="-2.93353">
        <time>2013-10-12T08:39:14Z</time>
      </trkpt>
      <trkpt lat="47.56171" lon="-2.93348">
        <time>2013-10-12T08:39:16Z</time>
      </trkpt>
      <trkpt lat="47.56167" lon="-2.93342">
        <time>2013-10-12T08:39:18Z</time>
      </trkpt>
      <trkpt lat="47.56164" lon="-2.93337">
        <ele>5</ele>
        <time>2013-10-12T08:39:20Z</time>
      </trkpt>
      <trkpt lat="47.5616" lon="-2.93332">
        <ele>5</ele>
        <time>2013-10-12T08:39:22Z</time>
      </trkpt>
      <trkpt lat="47.56155" lon="-2.93324">
        <ele>5</ele>
        <time>2013-10-12T08:39:25Z</time>
      </trkpt>
      <trkpt lat="47.56148" lon="-2.93314">
        <ele>5</ele>
        <time>2013-10-12T08:39:29Z</time>
      </trkpt>
      <trkpt lat="47.56144" lon="-2.93308">
        <ele>5</ele>
        <time>2013-10-12T08:39:32Z</time>
      </trkpt>
      <trkpt lat="47.56139" lon="-2.93301">
        <ele>5</ele>
        <time>2013-10-12T08:39:35Z</time>
      </trkpt>
      <trkpt lat="47.56135" lon="-2.93294">
        <ele>5</ele>
        <time>2013-10-12T08:39:38Z</time>
      </trkpt>
      <trkpt lat="47.56132" lon="-2.93287">
        <ele>5</ele>
        <time>2013-10-12T08:39:41Z</time>
      </trkpt>
      <trkpt lat="47.56129" lon="-2.9328">
        <ele>5</ele>
        <time>2013-10-12T08:39:44Z</time>
      </trkpt>
      <trkpt lat="47.56125" lon="-2.93273">
        <ele>5</ele>
        <time>2013-10-12T08:39:47Z</time>
      </trkpt>
      <trkpt lat="47.56121" lon="-2.93265">
        <ele>5</ele>
        <time>2013-10-12T08:39:50Z</time>
      </trkpt>
      <trkpt lat="47.56116" lon="-2.93259">
        <ele>5</ele>
        <time>2013-10-12T08:39:53Z</time>
      </trkpt>
      <trkpt lat="47.56112" lon="-2.93252">
        <ele>5</ele>
        <time>2013-10-12T08:39:56Z</time>
      </trkpt>
      <trkpt lat="47.56108" lon="-2.93246">
        <time>2013-10-12T08:39:59Z</time>
      </trkpt>
      <trkpt lat="47.56104" lon="-2.93238">
        <time>2013-10-12T08:40:02Z</time>
      </trkpt>
      <trkpt lat="47.561" lon="-2.93233">
        <time>2013-10-12T08:40:04Z</time>
      </trkpt>
      <trkpt lat="47.56098" lon="-2.93227">
        <time>2013-10-12T08:40:06Z</time>
      </trkpt>
      <trkpt lat="47.56094" lon="-2.93219">
        <time>2013-10-12T08:40:09Z</time>
      </trkpt>
      <trkpt lat="47.56091" lon="-2.93213">
        <time>2013-10-12T08:40:11Z</time>
      </trkpt>
      <trkpt lat="47.56088" lon="-2.93207">
        <time>2013-10-12T08:40:13Z</time>
      </trkpt>
      <trkpt lat="47.56085" lon="-2.93201">
        <time>2013-10-12T08:40:15Z</time>
      </trkpt>
      <trkpt lat="47.56081" lon="-2.93194">
        <ele>7</ele>
        <time>2013-10-12T08:40:18Z</time>
      </trkpt>
      <trkpt lat="47.56078" lon="-2.93185">
        <ele>7</ele>
        <time>2013-10-12T08:40:21Z</time>
      </trkpt>
      <trkpt lat="47.56072" lon="-2.93173">
        <ele>7</ele>
        <time>2013-10-12T08:40:25Z</time>
      </trkpt>
      <trkpt lat="47.56069" lon="-2.93168">
        <ele>7</ele>
        <time>2013-10-12T08:40:27Z</time>
      </trkpt>
      <trkpt lat="47.56066" lon="-2.93162">
        <time>2013-10-12T08:40:29Z</time>
      </trkpt>
      <trkpt lat="47.56062" lon="-2.93154">
        <time>2013-10-12T08:40:32Z</time>
      </trkpt>
      <trkpt lat="47.56059" lon="-2.93148">
        <time>2013-10-12T08:40:34Z</time>
      </trkpt>
      <trkpt lat="47.56055" lon="-2.93143">
        <time>2013-10-12T08:40:36Z</time>
      </trkpt>
      <trkpt lat="47.56052" lon="-2.93137">
        <time>2013-10-12T08:40:38Z</time>
      </trkpt>
      <trkpt lat="47.56048" lon="-2.93131">
        <time>2013-10-12T08:40:40Z</time>
      </trkpt>
      <trkpt lat="47.56045" lon="-2.93126">
        <time>2013-10-12T08:40:42Z</time>
      </trkpt>
      <trkpt lat="47.56042" lon="-2.9312">
        <time>2013-10-12T08:40:44Z</time>
      </trkpt>
      <trkpt lat="47.56038" lon="-2.93113">
        <time>2013-10-12T08:40:47Z</time>
      </trkpt>
      <trkpt lat="47.56035" lon="-2.93107">
        <time>2013-10-12T08:40:50Z</time>
      </trkpt>
      <trkpt lat="47.56031" lon="-2.931">
        <time>2013-10-12T08:40:53Z</time>
      </trkpt>
      <trkpt lat="47.56028" lon="-2.93089">
        <time>2013-10-12T08:40:57Z</time>
      </trkpt>
      <trkpt lat="47.56026" lon="-2.93081">
        <time>2013-10-12T08:41:00Z</time>
      </trkpt>
      <trkpt lat="47.56025" lon="-2.93073">
        <time>2013-10-12T08:41:03Z</time>
      </trkpt>
      <trkpt lat="47.56025" lon="-2.93064">
        <time>2013-10-12T08:41:06Z</time>
      </trkpt>
      <trkpt lat="47.56024" lon="-2.93054">
        <time>2013-10-12T08:41:09Z</time>
      </trkpt>
      <trkpt lat="47.56023" lon="-2.93045">
        <time>2013-10-12T08:41:12Z</time>
      </trkpt>
      <trkpt lat="47.56021" lon="-2.93039">
        <time>2013-10-12T08:41:14Z</time>
      </trkpt>
      <trkpt lat="47.5602" lon="-2.93029">
        <time>2013-10-12T08:41:17Z</time>
      </trkpt>
      <trkpt lat="47.56017" lon="-2.93021">
        <time>2013-10-12T08:41:20Z</time>
      </trkpt>
      <trkpt lat="47.56016" lon="-2.93013">
        <time>2013-10-12T08:41:23Z</time>
      </trkpt>
      <trkpt lat="47.56015" lon="-2.93004">
        <time>2013-10-12T08:41:26Z</time>
      </trkpt>
      <trkpt lat="47.56014" lon="-2.92997">
        <time>2013-10-12T08:41:29Z</time>
      </trkpt>
      <trkpt lat="47.56013" lon="-2.9299">
        <time>2013-10-12T08:41:32Z</time>
      </trkpt>
      <trkpt lat="47.56011" lon="-2.92982">
        <time>2013-10-12T08:41:35Z</time>
      </trkpt>
      <trkpt lat="47.5601" lon="-2.92973">
        <time>2013-10-12T08:41:38Z</time>
      </trkpt>
      <trkpt lat="47.56009" lon="-2.92964">
        <time>2013-10-12T08:41:41Z</time>
      </trkpt>
      <trkpt lat="47.56007" lon="-2.92955">
        <time>2013-10-12T08:41:44Z</time>
      </trkpt>
      <trkpt lat="47.56006" lon="-2.92949">
        <time>2013-10-12T08:41:46Z</time>
      </trkpt>
      <trkpt lat="47.56005" lon="-2.92939">
        <time>2013-10-12T08:41:49Z</time>
      </trkpt>
      <trkpt lat="47.56004" lon="-2.92929">
        <time>2013-10-12T08:41:52Z</time>
      </trkpt>
      <trkpt lat="47.56002" lon="-2.92919">
        <time>2013-10-12T08:41:55Z</time>
      </trkpt>
      <trkpt lat="47.56001" lon="-2.9291">
        <time>2013-10-12T08:41:58Z</time>
      </trkpt>
      <trkpt lat="47.56001" lon="-2.92901">
        <time>2013-10-12T08:42:01Z</time>
      </trkpt>
      <trkpt lat="47.56001" lon="-2.92893">
        <time>2013-10-12T08:42:04Z</time>
      </trkpt>
      <trkpt lat="47.56001" lon="-2.92885">
        <time>2013-10-12T08:42:07Z</time>
      </trkpt>
      <trkpt lat="47.56001" lon="-2.92878">
        <time>2013-10-12T08:42:10Z</time>
      </trkpt>
      <trkpt lat="47.56001" lon="-2.92871">
        <time>2013-10-12T08:42:13Z</time>
      </trkpt>
      <trkpt lat="47.56001" lon="-2.92863">
        <time>2013-10-12T08:42:16Z</time>
      </trkpt>
      <trkpt lat="47.56001" lon="-2.92855">
        <time>2013-10-12T08:42:19Z</time>
      </trkpt>
      <trkpt lat="47.56" lon="-2.92846">
        <ele>2</ele>
        <time>2013-10-12T08:42:22Z</time>
      </trkpt>
      <trkpt lat="47.55998" lon="-2.92839">
        <ele>2</ele>
        <time>2013-10-12T08:42:25Z</time>
      </trkpt>
      <trkpt lat="47.55997" lon="-2.92831">
        <ele>2</ele>
        <time>2013-10-12T08:42:28Z</time>
      </trkpt>
      <trkpt lat="47.55996" lon="-2.92823">
        <ele>2</ele>
        <time>2013-10-12T08:42:31Z</time>
      </trkpt>
      <trkpt lat="47.55995" lon="-2.92815">
        <ele>2</ele>
        <time>2013-10-12T08:42:34Z</time>
      </trkpt>
      <trkpt lat="47.55992" lon="-2.92808">
        <ele>2</ele>
        <time>2013-10-12T08:42:37Z</time>
      </trkpt>
      <trkpt lat="47.55986" lon="-2.92804">
        <ele>2</ele>
        <time>2013-10-12T08:42:40Z</time>
      </trkpt>
      <trkpt lat="47.55981" lon="-2.92802">
        <ele>2</ele>
        <time>2013-10-12T08:42:42Z</time>
      </trkpt>
      <trkpt lat="47.55976" lon="-2.92799">
        <ele>2</ele>
        <time>2013-10-12T08:42:44Z</time>
      </trkpt>
      <trkpt lat="47.5597" lon="-2.92798">
        <ele>2</ele>
        <time>2013-10-12T08:42:46Z</time>
      </trkpt>
      <trkpt lat="47.55965" lon="-2.92798">
        <ele>2</ele>
        <time>2013-10-12T08:42:48Z</time>
      </trkpt>
      <trkpt lat="47.55959" lon="-2.92797">
        <ele>2</ele>
        <time>2013-10-12T08:42:50Z</time>
      </trkpt>
      <trkpt lat="47.55953" lon="-2.92796">
        <ele>2</ele>
        <time>2013-10-12T08:42:52Z</time>
      </trkpt>
      <trkpt lat="47.55948" lon="-2.92795">
        <ele>2</ele>
        <time>2013-10-12T08:42:54Z</time>
      </trkpt>
      <trkpt lat="47.55944" lon="-2.92792">
        <ele>2</ele>
        <time>2013-10-12T08:42:57Z</time>
      </trkpt>
      <trkpt lat="47.5594" lon="-2.92791">
        <ele>2</ele>
        <time>2013-10-12T08:42:58Z</time>
      </trkpt>
      <trkpt lat="47.55934" lon="-2.92787">
        <ele>2</ele>
        <time>2013-10-12T08:43:01Z</time>
      </trkpt>
      <trkpt lat="47.55929" lon="-2.92786">
        <ele>2</ele>
        <time>2013-10-12T08:43:05Z</time>
      </trkpt>
      <trkpt lat="47.55924" lon="-2.92786">
        <ele>2</ele>
        <time>2013-10-12T08:43:10Z</time>
      </trkpt>
      <trkpt lat="47.5592" lon="-2.92787">
        <ele>2</ele>
        <time>2013-10-12T08:43:17Z</time>
      </trkpt>
      <trkpt lat="47.55915" lon="-2.92785">
        <ele>2</ele>
        <time>2013-10-12T08:43:32Z</time>
      </trkpt>
      <trkpt lat="47.5591" lon="-2.92783">
        <ele>3</ele>
        <time>2013-10-12T08:43:41Z</time>
      </trkpt>
      <trkpt lat="47.55909" lon="-2.92776">
        <ele>3</ele>
        <time>2013-10-12T08:43:57Z</time>
      </trkpt>
      <trkpt lat="47.55908" lon="-2.92769">
        <ele>3</ele>
        <time>2013-10-12T08:44:29Z</time>
      </trkpt>
      <trkpt lat="47.55905" lon="-2.92763">
        <ele>3</ele>
        <time>2013-10-12T08:45:23Z</time>
      </trkpt>
      <trkpt lat="47.55903" lon="-2.92757">
        <ele>3</ele>
        <time>2013-10-12T08:45:31Z</time>
      </trkpt>
      <trkpt lat="47.55901" lon="-2.92751">
        <ele>3</ele>
        <time>2013-10-12T08:45:36Z</time>
      </trkpt>
      <trkpt lat="47.55899" lon="-2.92744">
        <ele>2</ele>
        <time>2013-10-12T08:45:42Z</time>
      </trkpt>
      <trkpt lat="47.55897" lon="-2.92738">
        <ele>2</ele>
        <time>2013-10-12T08:46:03Z</time>
      </trkpt>
      <trkpt lat="47.55894" lon="-2.92733">
        <ele>2</ele>
        <time>2013-10-12T08:47:11Z</time>
      </trkpt>
      <trkpt lat="47.55891" lon="-2.92727">
        <ele>2</ele>
        <time>2013-10-12T08:48:19Z</time>
      </trkpt>
      <trkpt lat="47.55889" lon="-2.92721">
        <ele>2</ele>
        <time>2013-10-12T08:48:24Z</time>
      </trkpt>
      <trkpt lat="47.55887" lon="-2.92715">
        <ele>2</ele>
        <time>2013-10-12T08:48:29Z</time>
      </trkpt>
      <trkpt lat="47.55885" lon="-2.92708">
        <ele>2</ele>
        <time>2013-10-12T08:48:36Z</time>
      </trkpt>
      <trkpt lat="47.55884" lon="-2.927">
        <ele>2</ele>
        <time>2013-10-12T08:48:41Z</time>
      </trkpt>
      <trkpt lat="47.55883" lon="-2.92693">
        <ele>2</ele>
        <time>2013-10-12T08:48:43Z</time>
      </trkpt>
      <trkpt lat="47.55882" lon="-2.92683">
        <ele>2</ele>
        <time>2013-10-12T08:48:46Z</time>
      </trkpt>
      <trkpt lat="47.55883" lon="-2.92675">
        <ele>2</ele>
        <time>2013-10-12T08:48:50Z</time>
      </trkpt>
      <trkpt lat="47.55882" lon="-2.92666">
        <time>2013-10-12T08:48:55Z</time>
      </trkpt>
      <trkpt lat="47.55881" lon="-2.92659">
        <time>2013-10-12T08:48:59Z</time>
      </trkpt>
      <trkpt lat="47.55878" lon="-2.92653">
        <time>2013-10-12T08:49:06Z</time>
      </trkpt>
      <trkpt lat="47.55876" lon="-2.92645">
        <time>2013-10-12T08:49:13Z</time>
      </trkpt>
      <trkpt lat="47.55878" lon="-2.92638">
        <time>2013-10-12T08:49:22Z</time>
      </trkpt>
      <trkpt lat="47.55877" lon="-2.9263">
        <time>2013-10-12T08:49:28Z</time>
      </trkpt>
      <trkpt lat="47.55877" lon="-2.92622">
        <time>2013-10-12T08:49:33Z</time>
      </trkpt>
      <trkpt lat="47.55876" lon="-2.92613">
        <time>2013-10-12T08:49:37Z</time>
      </trkpt>
      <trkpt lat="47.55876" lon="-2.92605">
        <time>2013-10-12T08:49:40Z</time>
      </trkpt>
      <trkpt lat="47.55876" lon="-2.92597">
        <time>2013-10-12T08:49:44Z</time>
      </trkpt>
      <trkpt lat="47.55876" lon="-2.92588">
        <time>2013-10-12T08:49:46Z</time>
      </trkpt>
      <trkpt lat="47.55876" lon="-2.92581">
        <time>2013-10-12T08:49:49Z</time>
      </trkpt>
      <trkpt lat="47.55876" lon="-2.92572">
        <time>2013-10-12T08:49:53Z</time>
      </trkpt>
      <trkpt lat="47.55876" lon="-2.92561">
        <time>2013-10-12T08:49:56Z</time>
      </trkpt>
      <trkpt lat="47.55876" lon="-2.92554">
        <time>2013-10-12T08:49:59Z</time>
      </trkpt>
      <trkpt lat="47.55877" lon="-2.92545">
        <time>2013-10-12T08:50:03Z</time>
      </trkpt>
      <trkpt lat="47.55879" lon="-2.92538">
        <time>2013-10-12T08:50:07Z</time>
      </trkpt>
      <trkpt lat="47.55881" lon="-2.9253">
        <time>2013-10-12T08:50:11Z</time>
      </trkpt>
      <trkpt lat="47.55882" lon="-2.92522">
        <time>2013-10-12T08:50:14Z</time>
      </trkpt>
      <trkpt lat="47.55884" lon="-2.92514">
        <time>2013-10-12T08:50:17Z</time>
      </trkpt>
      <trkpt lat="47.55885" lon="-2.92505">
        <time>2013-10-12T08:50:20Z</time>
      </trkpt>
      <trkpt lat="47.55887" lon="-2.92496">
        <time>2013-10-12T08:50:23Z</time>
      </trkpt>
      <trkpt lat="47.55888" lon="-2.92488">
        <time>2013-10-12T08:50:26Z</time>
      </trkpt>
      <trkpt lat="47.55889" lon="-2.92481">
        <time>2013-10-12T08:50:29Z</time>
      </trkpt>
      <trkpt lat="47.5589" lon="-2.92473">
        <time>2013-10-12T08:50:32Z</time>
      </trkpt>
      <trkpt lat="47.5589" lon="-2.92466">
        <time>2013-10-12T08:50:35Z</time>
      </trkpt>
      <trkpt lat="47.55892" lon="-2.92459">
        <time>2013-10-12T08:50:38Z</time>
      </trkpt>
      <trkpt lat="47.55893" lon="-2.92452">
        <time>2013-10-12T08:50:41Z</time>
      </trkpt>
      <trkpt lat="47.55892" lon="-2.92443">
        <time>2013-10-12T08:50:44Z</time>
      </trkpt>
      <trkpt lat="47.5589" lon="-2.92435">
        <time>2013-10-12T08:50:47Z</time>
      </trkpt>
      <trkpt lat="47.55888" lon="-2.92426">
        <time>2013-10-12T08:50:50Z</time>
      </trkpt>
      <trkpt lat="47.55886" lon="-2.9242">
        <time>2013-10-12T08:50:52Z</time>
      </trkpt>
      <trkpt lat="47.55885" lon="-2.92413">
        <time>2013-10-12T08:50:54Z</time>
      </trkpt>
      <trkpt lat="47.55883" lon="-2.92406">
        <time>2013-10-12T08:50:57Z</time>
      </trkpt>
      <trkpt lat="47.55883" lon="-2.92399">
        <time>2013-10-12T08:50:58Z</time>
      </trkpt>
      <trkpt lat="47.55884" lon="-2.9239">
        <time>2013-10-12T08:51:01Z</time>
      </trkpt>
      <trkpt lat="47.55885" lon="-2.92381">
        <time>2013-10-12T08:51:04Z</time>
      </trkpt>
      <trkpt lat="47.55886" lon="-2.92372">
        <time>2013-10-12T08:51:07Z</time>
      </trkpt>
      <trkpt lat="47.55888" lon="-2.92363">
        <time>2013-10-12T08:51:10Z</time>
      </trkpt>
      <trkpt lat="47.5589" lon="-2.92353">
        <time>2013-10-12T08:51:14Z</time>
      </trkpt>
      <trkpt lat="47.55892" lon="-2.92344">
        <time>2013-10-12T08:51:17Z</time>
      </trkpt>
      <trkpt lat="47.55895" lon="-2.92336">
        <time>2013-10-12T08:51:20Z</time>
      </trkpt>
      <trkpt lat="47.55897" lon="-2.92328">
        <time>2013-10-12T08:51:23Z</time>
      </trkpt>
      <trkpt lat="47.55899" lon="-2.92319">
        <time>2013-10-12T08:51:26Z</time>
      </trkpt>
      <trkpt lat="47.55899" lon="-2.92312">
        <time>2013-10-12T08:51:28Z</time>
      </trkpt>
      <trkpt lat="47.559" lon="-2.92305">
        <time>2013-10-12T08:51:30Z</time>
      </trkpt>
      <trkpt lat="47.55901" lon="-2.92298">
        <time>2013-10-12T08:51:32Z</time>
      </trkpt>
      <trkpt lat="47.55903" lon="-2.92287">
        <time>2013-10-12T08:51:35Z</time>
      </trkpt>
      <trkpt lat="47.55905" lon="-2.9228">
        <time>2013-10-12T08:51:37Z</time>
      </trkpt>
      <trkpt lat="47.55907" lon="-2.92272">
        <time>2013-10-12T08:51:39Z</time>
      </trkpt>
      <trkpt lat="47.55908" lon="-2.92266">
        <time>2013-10-12T08:51:41Z</time>
      </trkpt>
      <trkpt lat="47.55908" lon="-2.92259">
        <time>2013-10-12T08:51:43Z</time>
      </trkpt>
      <trkpt lat="47.5591" lon="-2.9225">
        <time>2013-10-12T08:51:46Z</time>
      </trkpt>
      <trkpt lat="47.55911" lon="-2.92243">
        <time>2013-10-12T08:51:48Z</time>
      </trkpt>
      <trkpt lat="47.55913" lon="-2.92237">
        <time>2013-10-12T08:51:50Z</time>
      </trkpt>
      <trkpt lat="47.55916" lon="-2.92225">
        <time>2013-10-12T08:51:54Z</time>
      </trkpt>
      <trkpt lat="47.55918" lon="-2.92216">
        <time>2013-10-12T08:51:57Z</time>
      </trkpt>
      <trkpt lat="47.5592" lon="-2.92209">
        <time>2013-10-12T08:51:59Z</time>
      </trkpt>
      <trkpt lat="47.55922" lon="-2.922">
        <time>2013-10-12T08:52:02Z</time>
      </trkpt>
      <trkpt lat="47.55923" lon="-2.92192">
        <time>2013-10-12T08:52:05Z</time>
      </trkpt>
      <trkpt lat="47.55926" lon="-2.92185">
        <time>2013-10-12T08:52:07Z</time>
      </trkpt>
      <trkpt lat="47.55928" lon="-2.92175">
        <time>2013-10-12T08:52:10Z</time>
      </trkpt>
      <trkpt lat="47.5593" lon="-2.92169">
        <time>2013-10-12T08:52:12Z</time>
      </trkpt>
      <trkpt lat="47.55932" lon="-2.92159">
        <time>2013-10-12T08:52:15Z</time>
      </trkpt>
      <trkpt lat="47.55932" lon="-2.92151">
        <time>2013-10-12T08:52:17Z</time>
      </trkpt>
      <trkpt lat="47.55933" lon="-2.92144">
        <time>2013-10-12T08:52:20Z</time>
      </trkpt>
      <trkpt lat="47.55936" lon="-2.92133">
        <time>2013-10-12T08:52:22Z</time>
      </trkpt>
      <trkpt lat="47.55938" lon="-2.92124">
        <time>2013-10-12T08:52:25Z</time>
      </trkpt>
      <trkpt lat="47.5594" lon="-2.92115">
        <time>2013-10-12T08:52:29Z</time>
      </trkpt>
      <trkpt lat="47.55942" lon="-2.92107">
        <time>2013-10-12T08:52:31Z</time>
      </trkpt>
      <trkpt lat="47.55943" lon="-2.921">
        <time>2013-10-12T08:52:33Z</time>
      </trkpt>
      <trkpt lat="47.55944" lon="-2.92091">
        <time>2013-10-12T08:52:37Z</time>
      </trkpt>
      <trkpt lat="47.55946" lon="-2.92082">
        <time>2013-10-12T08:52:39Z</time>
      </trkpt>
      <trkpt lat="47.55947" lon="-2.92076">
        <time>2013-10-12T08:52:41Z</time>
      </trkpt>
      <trkpt lat="47.5595" lon="-2.92066">
        <time>2013-10-12T08:52:44Z</time>
      </trkpt>
      <trkpt lat="47.55952" lon="-2.92058">
        <time>2013-10-12T08:52:47Z</time>
      </trkpt>
      <trkpt lat="47.55953" lon="-2.92051">
        <time>2013-10-12T08:52:49Z</time>
      </trkpt>
      <trkpt lat="47.55955" lon="-2.92042">
        <time>2013-10-12T08:52:52Z</time>
      </trkpt>
      <trkpt lat="47.55956" lon="-2.92032">
        <time>2013-10-12T08:52:55Z</time>
      </trkpt>
      <trkpt lat="47.55956" lon="-2.92024">
        <time>2013-10-12T08:52:58Z</time>
      </trkpt>
      <trkpt lat="47.55954" lon="-2.92016">
        <time>2013-10-12T08:53:01Z</time>
      </trkpt>
      <trkpt lat="47.55953" lon="-2.92007">
        <time>2013-10-12T08:53:04Z</time>
      </trkpt>
      <trkpt lat="47.55955" lon="-2.91998">
        <time>2013-10-12T08:53:07Z</time>
      </trkpt>
      <trkpt lat="47.55957" lon="-2.91989">
        <time>2013-10-12T08:53:10Z</time>
      </trkpt>
      <trkpt lat="47.5596" lon="-2.91984">
        <time>2013-10-12T08:53:12Z</time>
      </trkpt>
      <trkpt lat="47.55963" lon="-2.91975">
        <time>2013-10-12T08:53:15Z</time>
      </trkpt>
      <trkpt lat="47.55965" lon="-2.91966">
        <time>2013-10-12T08:53:18Z</time>
      </trkpt>
      <trkpt lat="47.55967" lon="-2.91957">
        <time>2013-10-12T08:53:22Z</time>
      </trkpt>
      <trkpt lat="47.55968" lon="-2.9195">
        <time>2013-10-12T08:53:25Z</time>
      </trkpt>
      <trkpt lat="47.55967" lon="-2.91937">
        <time>2013-10-12T08:53:31Z</time>
      </trkpt>
      <trkpt lat="47.55965" lon="-2.91929">
        <time>2013-10-12T08:53:34Z</time>
      </trkpt>
      <trkpt lat="47.55961" lon="-2.9192">
        <time>2013-10-12T08:53:37Z</time>
      </trkpt>
      <trkpt lat="47.55959" lon="-2.91914">
        <time>2013-10-12T08:53:40Z</time>
      </trkpt>
      <trkpt lat="47.55954" lon="-2.91898">
        <time>2013-10-12T08:53:45Z</time>
      </trkpt>
      <trkpt lat="47.55952" lon="-2.9189">
        <time>2013-10-12T08:53:48Z</time>
      </trkpt>
      <trkpt lat="47.55951" lon="-2.91882">
        <time>2013-10-12T08:53:50Z</time>
      </trkpt>
      <trkpt lat="47.55951" lon="-2.91873">
        <time>2013-10-12T08:53:52Z</time>
      </trkpt>
      <trkpt lat="47.55951" lon="-2.91863">
        <time>2013-10-12T08:53:54Z</time>
      </trkpt>
      <trkpt lat="47.55953" lon="-2.91852">
        <time>2013-10-12T08:53:57Z</time>
      </trkpt>
      <trkpt lat="47.55954" lon="-2.91845">
        <time>2013-10-12T08:53:59Z</time>
      </trkpt>
      <trkpt lat="47.55955" lon="-2.91838">
        <time>2013-10-12T08:54:01Z</time>
      </trkpt>
      <trkpt lat="47.55958" lon="-2.9183">
        <time>2013-10-12T08:54:04Z</time>
      </trkpt>
      <trkpt lat="47.55961" lon="-2.91821">
        <time>2013-10-12T08:54:07Z</time>
      </trkpt>
      <trkpt lat="47.55962" lon="-2.91815">
        <time>2013-10-12T08:54:09Z</time>
      </trkpt>
      <trkpt lat="47.55965" lon="-2.91806">
        <time>2013-10-12T08:54:12Z</time>
      </trkpt>
      <trkpt lat="47.55967" lon="-2.91797">
        <time>2013-10-12T08:54:15Z</time>
      </trkpt>
      <trkpt lat="47.5597" lon="-2.91791">
        <time>2013-10-12T08:54:17Z</time>
      </trkpt>
      <trkpt lat="47.55973" lon="-2.91782">
        <time>2013-10-12T08:54:20Z</time>
      </trkpt>
      <trkpt lat="47.55976" lon="-2.91769">
        <time>2013-10-12T08:54:24Z</time>
      </trkpt>
      <trkpt lat="47.55979" lon="-2.91762">
        <time>2013-10-12T08:54:26Z</time>
      </trkpt>
      <trkpt lat="47.55981" lon="-2.91751">
        <time>2013-10-12T08:54:29Z</time>
      </trkpt>
      <trkpt lat="47.55985" lon="-2.91735">
        <time>2013-10-12T08:54:33Z</time>
      </trkpt>
      <trkpt lat="47.55987" lon="-2.91729">
        <time>2013-10-12T08:54:35Z</time>
      </trkpt>
      <trkpt lat="47.55989" lon="-2.91723">
        <time>2013-10-12T08:54:37Z</time>
      </trkpt>
      <trkpt lat="47.55991" lon="-2.91716">
        <time>2013-10-12T08:54:39Z</time>
      </trkpt>
      <trkpt lat="47.55994" lon="-2.91709">
        <time>2013-10-12T08:54:41Z</time>
      </trkpt>
      <trkpt lat="47.55996" lon="-2.91703">
        <time>2013-10-12T08:54:43Z</time>
      </trkpt>
      <trkpt lat="47.55998" lon="-2.91695">
        <time>2013-10-12T08:54:45Z</time>
      </trkpt>
      <trkpt lat="47.55999" lon="-2.91688">
        <time>2013-10-12T08:54:47Z</time>
      </trkpt>
      <trkpt lat="47.56" lon="-2.9168">
        <time>2013-10-12T08:54:49Z</time>
      </trkpt>
      <trkpt lat="47.56001" lon="-2.91671">
        <time>2013-10-12T08:54:51Z</time>
      </trkpt>
      <trkpt lat="47.56002" lon="-2.91661">
        <time>2013-10-12T08:54:53Z</time>
      </trkpt>
      <trkpt lat="47.56004" lon="-2.91653">
        <time>2013-10-12T08:54:55Z</time>
      </trkpt>
      <trkpt lat="47.56009" lon="-2.91642">
        <time>2013-10-12T08:54:58Z</time>
      </trkpt>
      <trkpt lat="47.56014" lon="-2.91632">
        <time>2013-10-12T08:55:01Z</time>
      </trkpt>
      <trkpt lat="47.56016" lon="-2.91625">
        <time>2013-10-12T08:55:03Z</time>
      </trkpt>
      <trkpt lat="47.5602" lon="-2.9162">
        <time>2013-10-12T08:55:05Z</time>
      </trkpt>
      <trkpt lat="47.56022" lon="-2.91614">
        <time>2013-10-12T08:55:07Z</time>
      </trkpt>
      <trkpt lat="47.56025" lon="-2.91608">
        <time>2013-10-12T08:55:09Z</time>
      </trkpt>
      <trkpt lat="47.56027" lon="-2.91601">
        <time>2013-10-12T08:55:11Z</time>
      </trkpt>
      <trkpt lat="47.56029" lon="-2.91592">
        <time>2013-10-12T08:55:13Z</time>
      </trkpt>
      <trkpt lat="47.56031" lon="-2.91584">
        <time>2013-10-12T08:55:15Z</time>
      </trkpt>
      <trkpt lat="47.56032" lon="-2.91577">
        <time>2013-10-12T08:55:18Z</time>
      </trkpt>
      <trkpt lat="47.56034" lon="-2.91571">
        <time>2013-10-12T08:55:19Z</time>
      </trkpt>
      <trkpt lat="47.56035" lon="-2.91563">
        <time>2013-10-12T08:55:21Z</time>
      </trkpt>
      <trkpt lat="47.56038" lon="-2.91551">
        <time>2013-10-12T08:55:24Z</time>
      </trkpt>
      <trkpt lat="47.56039" lon="-2.91543">
        <time>2013-10-12T08:55:26Z</time>
      </trkpt>
      <trkpt lat="47.56041" lon="-2.91536">
        <time>2013-10-12T08:55:28Z</time>
      </trkpt>
      <trkpt lat="47.56043" lon="-2.91527">
        <time>2013-10-12T08:55:30Z</time>
      </trkpt>
      <trkpt lat="47.56044" lon="-2.91521">
        <time>2013-10-12T08:55:32Z</time>
      </trkpt>
      <trkpt lat="47.56047" lon="-2.91513">
        <time>2013-10-12T08:55:34Z</time>
      </trkpt>
      <trkpt lat="47.56049" lon="-2.91506">
        <time>2013-10-12T08:55:36Z</time>
      </trkpt>
      <trkpt lat="47.56051" lon="-2.91499">
        <time>2013-10-12T08:55:38Z</time>
      </trkpt>
      <trkpt lat="47.56052" lon="-2.91491">
        <time>2013-10-12T08:55:41Z</time>
      </trkpt>
      <trkpt lat="47.56054" lon="-2.91483">
        <time>2013-10-12T08:55:42Z</time>
      </trkpt>
      <trkpt lat="47.56056" lon="-2.91475">
        <time>2013-10-12T08:55:44Z</time>
      </trkpt>
      <trkpt lat="47.56058" lon="-2.91467">
        <time>2013-10-12T08:55:46Z</time>
      </trkpt>
      <trkpt lat="47.5606" lon="-2.91459">
        <time>2013-10-12T08:55:48Z</time>
      </trkpt>
      <trkpt lat="47.56063" lon="-2.91451">
        <time>2013-10-12T08:55:50Z</time>
      </trkpt>
      <trkpt lat="47.56066" lon="-2.91444">
        <time>2013-10-12T08:55:52Z</time>
      </trkpt>
      <trkpt lat="47.56068" lon="-2.91437">
        <time>2013-10-12T08:55:54Z</time>
      </trkpt>
      <trkpt lat="47.56073" lon="-2.91425">
        <time>2013-10-12T08:55:58Z</time>
      </trkpt>
      <trkpt lat="47.56075" lon="-2.91418">
        <time>2013-10-12T08:56:01Z</time>
      </trkpt>
      <trkpt lat="47.56076" lon="-2.91408">
        <time>2013-10-12T08:56:05Z</time>
      </trkpt>
      <trkpt lat="47.56077" lon="-2.91401">
        <time>2013-10-12T08:56:07Z</time>
      </trkpt>
      <trkpt lat="47.56078" lon="-2.91393">
        <time>2013-10-12T08:56:09Z</time>
      </trkpt>
      <trkpt lat="47.56078" lon="-2.91384">
        <time>2013-10-12T08:56:11Z</time>
      </trkpt>
      <trkpt lat="47.56078" lon="-2.91374">
        <time>2013-10-12T08:56:13Z</time>
      </trkpt>
      <trkpt lat="47.56078" lon="-2.91365">
        <time>2013-10-12T08:56:15Z</time>
      </trkpt>
      <trkpt lat="47.56077" lon="-2.91358">
        <time>2013-10-12T08:56:17Z</time>
      </trkpt>
      <trkpt lat="47.56076" lon="-2.91342">
        <time>2013-10-12T08:56:22Z</time>
      </trkpt>
      <trkpt lat="47.56076" lon="-2.91333">
        <time>2013-10-12T08:56:25Z</time>
      </trkpt>
      <trkpt lat="47.56076" lon="-2.91324">
        <time>2013-10-12T08:56:28Z</time>
      </trkpt>
      <trkpt lat="47.56075" lon="-2.91317">
        <time>2013-10-12T08:56:30Z</time>
      </trkpt>
      <trkpt lat="47.56076" lon="-2.9131">
        <time>2013-10-12T08:56:32Z</time>
      </trkpt>
      <trkpt lat="47.56076" lon="-2.91303">
        <time>2013-10-12T08:56:34Z</time>
      </trkpt>
      <trkpt lat="47.56077" lon="-2.91295">
        <time>2013-10-12T08:56:36Z</time>
      </trkpt>
      <trkpt lat="47.56078" lon="-2.91288">
        <time>2013-10-12T08:56:38Z</time>
      </trkpt>
      <trkpt lat="47.56081" lon="-2.91281">
        <time>2013-10-12T08:56:40Z</time>
      </trkpt>
      <trkpt lat="47.56086" lon="-2.91271">
        <time>2013-10-12T08:56:43Z</time>
      </trkpt>
      <trkpt lat="47.56087" lon="-2.91264">
        <time>2013-10-12T08:56:45Z</time>
      </trkpt>
      <trkpt lat="47.56088" lon="-2.91257">
        <time>2013-10-12T08:56:47Z</time>
      </trkpt>
      <trkpt lat="47.56087" lon="-2.91251">
        <time>2013-10-12T08:56:49Z</time>
      </trkpt>
      <trkpt lat="47.56086" lon="-2.91241">
        <time>2013-10-12T08:56:52Z</time>
      </trkpt>
      <trkpt lat="47.56088" lon="-2.91232">
        <time>2013-10-12T08:56:55Z</time>
      </trkpt>
      <trkpt lat="47.56091" lon="-2.91225">
        <time>2013-10-12T08:56:57Z</time>
      </trkpt>
      <trkpt lat="47.56093" lon="-2.91219">
        <time>2013-10-12T08:56:59Z</time>
      </trkpt>
      <trkpt lat="47.56096" lon="-2.91213">
        <time>2013-10-12T08:57:01Z</time>
      </trkpt>
      <trkpt lat="47.56099" lon="-2.912">
        <time>2013-10-12T08:57:05Z</time>
      </trkpt>
      <trkpt lat="47.56101" lon="-2.91192">
        <time>2013-10-12T08:57:08Z</time>
      </trkpt>
      <trkpt lat="47.56104" lon="-2.91185">
        <time>2013-10-12T08:57:11Z</time>
      </trkpt>
      <trkpt lat="47.56108" lon="-2.91179">
        <time>2013-10-12T08:57:14Z</time>
      </trkpt>
      <trkpt lat="47.56114" lon="-2.91167">
        <time>2013-10-12T08:57:18Z</time>
      </trkpt>
      <trkpt lat="47.56117" lon="-2.9116">
        <time>2013-10-12T08:57:20Z</time>
      </trkpt>
      <trkpt lat="47.56119" lon="-2.91152">
        <time>2013-10-12T08:57:22Z</time>
      </trkpt>
      <trkpt lat="47.56122" lon="-2.91142">
        <time>2013-10-12T08:57:24Z</time>
      </trkpt>
      <trkpt lat="47.56125" lon="-2.91132">
        <time>2013-10-12T08:57:26Z</time>
      </trkpt>
      <trkpt lat="47.56128" lon="-2.91123">
        <time>2013-10-12T08:57:28Z</time>
      </trkpt>
      <trkpt lat="47.56131" lon="-2.91113">
        <time>2013-10-12T08:57:30Z</time>
      </trkpt>
      <trkpt lat="47.56134" lon="-2.91105">
        <time>2013-10-12T08:57:32Z</time>
      </trkpt>
      <trkpt lat="47.56136" lon="-2.91097">
        <time>2013-10-12T08:57:34Z</time>
      </trkpt>
      <trkpt lat="47.56139" lon="-2.91088">
        <time>2013-10-12T08:57:36Z</time>
      </trkpt>
      <trkpt lat="47.56141" lon="-2.91083">
        <time>2013-10-12T08:57:38Z</time>
      </trkpt>
      <trkpt lat="47.56145" lon="-2.91068">
        <time>2013-10-12T08:57:42Z</time>
      </trkpt>
      <trkpt lat="47.56147" lon="-2.91061">
        <time>2013-10-12T08:57:44Z</time>
      </trkpt>
      <trkpt lat="47.5615" lon="-2.91055">
        <time>2013-10-12T08:57:46Z</time>
      </trkpt>
      <trkpt lat="47.56153" lon="-2.91048">
        <time>2013-10-12T08:57:49Z</time>
      </trkpt>
      <trkpt lat="47.56155" lon="-2.9104">
        <time>2013-10-12T08:57:53Z</time>
      </trkpt>
      <trkpt lat="47.56155" lon="-2.91031">
        <time>2013-10-12T08:57:57Z</time>
      </trkpt>
      <trkpt lat="47.56157" lon="-2.91017">
        <time>2013-10-12T08:58:03Z</time>
      </trkpt>
      <trkpt lat="47.56159" lon="-2.91008">
        <time>2013-10-12T08:58:06Z</time>
      </trkpt>
      <trkpt lat="47.5616" lon="-2.91">
        <time>2013-10-12T08:58:08Z</time>
      </trkpt>
      <trkpt lat="47.56162" lon="-2.90994">
        <time>2013-10-12T08:58:10Z</time>
      </trkpt>
      <trkpt lat="47.56164" lon="-2.90988">
        <time>2013-10-12T08:58:12Z</time>
      </trkpt>
      <trkpt lat="47.56167" lon="-2.9098">
        <time>2013-10-12T08:58:15Z</time>
      </trkpt>
      <trkpt lat="47.56171" lon="-2.90974">
        <time>2013-10-12T08:58:18Z</time>
      </trkpt>
      <trkpt lat="47.56175" lon="-2.90968">
        <time>2013-10-12T08:58:21Z</time>
      </trkpt>
      <trkpt lat="47.56179" lon="-2.90962">
        <time>2013-10-12T08:58:24Z</time>
      </trkpt>
      <trkpt lat="47.56183" lon="-2.90956">
        <time>2013-10-12T08:58:27Z</time>
      </trkpt>
      <trkpt lat="47.56188" lon="-2.90946">
        <time>2013-10-12T08:58:31Z</time>
      </trkpt>
      <trkpt lat="47.5619" lon="-2.9094">
        <time>2013-10-12T08:58:33Z</time>
      </trkpt>
      <trkpt lat="47.56192" lon="-2.90934">
        <time>2013-10-12T08:58:35Z</time>
      </trkpt>
      <trkpt lat="47.56195" lon="-2.90927">
        <time>2013-10-12T08:58:37Z</time>
      </trkpt>
      <trkpt lat="47.56202" lon="-2.90916">
        <ele>5</ele>
        <time>2013-10-12T08:58:41Z</time>
      </trkpt>
      <trkpt lat="47.56205" lon="-2.90911">
        <ele>5</ele>
        <time>2013-10-12T08:58:43Z</time>
      </trkpt>
      <trkpt lat="47.56208" lon="-2.90905">
        <ele>5</ele>
        <time>2013-10-12T08:58:45Z</time>
      </trkpt>
      <trkpt lat="47.56211" lon="-2.90899">
        <ele>5</ele>
        <time>2013-10-12T08:58:47Z</time>
      </trkpt>
      <trkpt lat="47.56217" lon="-2.90892">
        <ele>5</ele>
        <time>2013-10-12T08:58:50Z</time>
      </trkpt>
      <trkpt lat="47.5622" lon="-2.90887">
        <ele>5</ele>
        <time>2013-10-12T08:58:52Z</time>
      </trkpt>
      <trkpt lat="47.56224" lon="-2.90881">
        <ele>5</ele>
        <time>2013-10-12T08:58:55Z</time>
      </trkpt>
      <trkpt lat="47.56228" lon="-2.90876">
        <ele>5</ele>
        <time>2013-10-12T08:58:58Z</time>
      </trkpt>
      <trkpt lat="47.56231" lon="-2.90871">
        <ele>5</ele>
        <time>2013-10-12T08:59:01Z</time>
      </trkpt>
      <trkpt lat="47.56235" lon="-2.90866">
        <ele>5</ele>
        <time>2013-10-12T08:59:05Z</time>
      </trkpt>
      <trkpt lat="47.56238" lon="-2.90861">
        <ele>5</ele>
        <time>2013-10-12T08:59:11Z</time>
      </trkpt>
      <trkpt lat="47.56237" lon="-2.90853">
        <ele>5</ele>
        <time>2013-10-12T08:59:18Z</time>
      </trkpt>
      <trkpt lat="47.56237" lon="-2.90847">
        <ele>5</ele>
        <time>2013-10-12T08:59:29Z</time>
      </trkpt>
      <trkpt lat="47.5624" lon="-2.90841">
        <ele>5</ele>
        <time>2013-10-12T08:59:41Z</time>
      </trkpt>
      <trkpt lat="47.56244" lon="-2.90836">
        <ele>5</ele>
        <time>2013-10-12T08:59:47Z</time>
      </trkpt>
      <trkpt lat="47.56245" lon="-2.9083">
        <ele>7</ele>
        <time>2013-10-12T09:00:49Z</time>
      </trkpt>
      <trkpt lat="47.56248" lon="-2.90823">
        <ele>7</ele>
        <time>2013-10-12T09:00:58Z</time>
      </trkpt>
      <trkpt lat="47.56244" lon="-2.90825">
        <ele>7</ele>
        <time>2013-10-12T09:01:52Z</time>
      </trkpt>
      <trkpt lat="47.56242" lon="-2.90832">
        <ele>7</ele>
        <time>2013-10-12T09:02:06Z</time>
      </trkpt>
      <trkpt lat="47.56243" lon="-2.90839">
        <ele>5</ele>
        <time>2013-10-12T09:02:11Z</time>
      </trkpt>
      <trkpt lat="47.56246" lon="-2.90845">
        <ele>5</ele>
        <time>2013-10-12T09:02:16Z</time>
      </trkpt>
      <trkpt lat="47.5625" lon="-2.90848">
        <time>2013-10-12T09:02:23Z</time>
      </trkpt>
      <trkpt lat="47.56255" lon="-2.90847">
        <time>2013-10-12T09:02:30Z</time>
      </trkpt>
      <trkpt lat="47.56259" lon="-2.90845">
        <time>2013-10-12T09:02:35Z</time>
      </trkpt>
      <trkpt lat="47.56264" lon="-2.90842">
        <time>2013-10-12T09:02:44Z</time>
      </trkpt>
      <trkpt lat="47.56269" lon="-2.9084">
        <time>2013-10-12T09:02:51Z</time>
      </trkpt>
      <trkpt lat="47.56274" lon="-2.90838">
        <time>2013-10-12T09:02:56Z</time>
      </trkpt>
      <trkpt lat="47.56279" lon="-2.90836">
        <time>2013-10-12T09:03:03Z</time>
      </trkpt>
      <trkpt lat="47.56283" lon="-2.90836">
        <time>2013-10-12T09:03:05Z</time>
      </trkpt>
      <trkpt lat="47.56288" lon="-2.90837">
        <time>2013-10-12T09:03:09Z</time>
      </trkpt>
      <trkpt lat="47.56293" lon="-2.90838">
        <time>2013-10-12T09:03:12Z</time>
      </trkpt>
      <trkpt lat="47.56297" lon="-2.9084">
        <time>2013-10-12T09:03:14Z</time>
      </trkpt>
      <trkpt lat="47.56303" lon="-2.90841">
        <time>2013-10-12T09:03:15Z</time>
      </trkpt>
      <trkpt lat="47.56308" lon="-2.90843">
        <time>2013-10-12T09:03:18Z</time>
      </trkpt>
      <trkpt lat="47.56312" lon="-2.90845">
        <time>2013-10-12T09:03:19Z</time>
      </trkpt>
      <trkpt lat="47.56318" lon="-2.90847">
        <time>2013-10-12T09:03:22Z</time>
      </trkpt>
      <trkpt lat="47.56323" lon="-2.90849">
        <time>2013-10-12T09:03:23Z</time>
      </trkpt>
      <trkpt lat="47.56329" lon="-2.90851">
        <time>2013-10-12T09:03:26Z</time>
      </trkpt>
      <trkpt lat="47.56334" lon="-2.90853">
        <time>2013-10-12T09:03:27Z</time>
      </trkpt>
      <trkpt lat="47.56339" lon="-2.90854">
        <time>2013-10-12T09:03:30Z</time>
      </trkpt>
      <trkpt lat="47.56344" lon="-2.90856">
        <time>2013-10-12T09:03:31Z</time>
      </trkpt>
      <trkpt lat="47.56349" lon="-2.90858">
        <time>2013-10-12T09:03:33Z</time>
      </trkpt>
      <trkpt lat="47.56353" lon="-2.90859">
        <time>2013-10-12T09:03:35Z</time>
      </trkpt>
      <trkpt lat="47.56358" lon="-2.9086">
        <time>2013-10-12T09:03:37Z</time>
      </trkpt>
      <trkpt lat="47.56363" lon="-2.90861">
        <time>2013-10-12T09:03:40Z</time>
      </trkpt>
      <trkpt lat="47.56369" lon="-2.90865">
        <time>2013-10-12T09:03:45Z</time>
      </trkpt>
      <trkpt lat="47.56375" lon="-2.90868">
        <time>2013-10-12T09:03:47Z</time>
      </trkpt>
      <trkpt lat="47.5638" lon="-2.9087">
        <time>2013-10-12T09:03:50Z</time>
      </trkpt>
      <trkpt lat="47.56385" lon="-2.90872">
        <time>2013-10-12T09:03:53Z</time>
      </trkpt>
      <trkpt lat="47.5639" lon="-2.90874">
        <time>2013-10-12T09:03:56Z</time>
      </trkpt>
      <trkpt lat="47.56396" lon="-2.90877">
        <time>2013-10-12T09:03:59Z</time>
      </trkpt>
      <trkpt lat="47.56402" lon="-2.90879">
        <time>2013-10-12T09:04:02Z</time>
      </trkpt>
      <trkpt lat="47.56407" lon="-2.90882">
        <time>2013-10-12T09:04:05Z</time>
      </trkpt>
      <trkpt lat="47.56411" lon="-2.90885">
        <time>2013-10-12T09:04:08Z</time>
      </trkpt>
      <trkpt lat="47.56415" lon="-2.90888">
        <time>2013-10-12T09:04:13Z</time>
      </trkpt>
      <trkpt lat="47.5642" lon="-2.90889">
        <time>2013-10-12T09:04:15Z</time>
      </trkpt>
      <trkpt lat="47.56427" lon="-2.90892">
        <time>2013-10-12T09:04:18Z</time>
      </trkpt>
      <trkpt lat="47.56433" lon="-2.90894">
        <time>2013-10-12T09:04:21Z</time>
      </trkpt>
      <trkpt lat="47.56439" lon="-2.90896">
        <time>2013-10-12T09:04:25Z</time>
      </trkpt>
      <trkpt lat="47.56444" lon="-2.90898">
        <time>2013-10-12T09:04:27Z</time>
      </trkpt>
      <trkpt lat="47.5645" lon="-2.909">
        <time>2013-10-12T09:04:31Z</time>
      </trkpt>
      <trkpt lat="47.56456" lon="-2.90903">
        <time>2013-10-12T09:04:34Z</time>
      </trkpt>
      <trkpt lat="47.56461" lon="-2.90906">
        <time>2013-10-12T09:04:36Z</time>
      </trkpt>
      <trkpt lat="47.56467" lon="-2.9091">
        <time>2013-10-12T09:04:40Z</time>
      </trkpt>
      <trkpt lat="47.56472" lon="-2.90914">
        <time>2013-10-12T09:04:42Z</time>
      </trkpt>
      <trkpt lat="47.5648" lon="-2.90918">
        <time>2013-10-12T09:04:46Z</time>
      </trkpt>
      <trkpt lat="47.56486" lon="-2.90921">
        <time>2013-10-12T09:04:49Z</time>
      </trkpt>
      <trkpt lat="47.56492" lon="-2.90921">
        <time>2013-10-12T09:04:53Z</time>
      </trkpt>
      <trkpt lat="47.565" lon="-2.90921">
        <time>2013-10-12T09:04:57Z</time>
      </trkpt>
      <trkpt lat="47.56505" lon="-2.90924">
        <time>2013-10-12T09:05:00Z</time>
      </trkpt>
      <trkpt lat="47.5651" lon="-2.90925">
        <time>2013-10-12T09:05:04Z</time>
      </trkpt>
      <trkpt lat="47.56515" lon="-2.90928">
        <time>2013-10-12T09:05:09Z</time>
      </trkpt>
      <trkpt lat="47.56519" lon="-2.90932">
        <time>2013-10-12T09:05:13Z</time>
      </trkpt>
      <trkpt lat="47.56524" lon="-2.90934">
        <time>2013-10-12T09:05:17Z</time>
      </trkpt>
      <trkpt lat="47.56529" lon="-2.90934">
        <time>2013-10-12T09:05:21Z</time>
      </trkpt>
      <trkpt lat="47.56536" lon="-2.90936">
        <time>2013-10-12T09:05:24Z</time>
      </trkpt>
      <trkpt lat="47.56543" lon="-2.90939">
        <time>2013-10-12T09:05:28Z</time>
      </trkpt>
      <trkpt lat="47.56548" lon="-2.90941">
        <time>2013-10-12T09:05:31Z</time>
      </trkpt>
      <trkpt lat="47.56553" lon="-2.9094">
        <time>2013-10-12T09:05:34Z</time>
      </trkpt>
      <trkpt lat="47.56558" lon="-2.90939">
        <time>2013-10-12T09:05:38Z</time>
      </trkpt>
      <trkpt lat="47.56567" lon="-2.90936">
        <time>2013-10-12T09:05:41Z</time>
      </trkpt>
      <trkpt lat="47.56573" lon="-2.90935">
        <time>2013-10-12T09:05:44Z</time>
      </trkpt>
      <trkpt lat="47.56579" lon="-2.90933">
        <time>2013-10-12T09:05:47Z</time>
      </trkpt>
      <trkpt lat="47.56584" lon="-2.9093">
        <time>2013-10-12T09:05:50Z</time>
      </trkpt>
      <trkpt lat="47.5659" lon="-2.90928">
        <time>2013-10-12T09:05:53Z</time>
      </trkpt>
      <trkpt lat="47.56595" lon="-2.90927">
        <time>2013-10-12T09:05:56Z</time>
      </trkpt>
      <trkpt lat="47.56602" lon="-2.90927">
        <time>2013-10-12T09:06:00Z</time>
      </trkpt>
      <trkpt lat="47.56608" lon="-2.90926">
        <time>2013-10-12T09:06:03Z</time>
      </trkpt>
      <trkpt lat="47.56613" lon="-2.90926">
        <time>2013-10-12T09:06:06Z</time>
      </trkpt>
      <trkpt lat="47.56619" lon="-2.90924">
        <time>2013-10-12T09:06:08Z</time>
      </trkpt>
      <trkpt lat="47.56625" lon="-2.90922">
        <time>2013-10-12T09:06:12Z</time>
      </trkpt>
      <trkpt lat="47.56631" lon="-2.9092">
        <time>2013-10-12T09:06:15Z</time>
      </trkpt>
      <trkpt lat="47.56638" lon="-2.9092">
        <time>2013-10-12T09:06:17Z</time>
      </trkpt>
      <trkpt lat="47.56643" lon="-2.9092">
        <time>2013-10-12T09:06:21Z</time>
      </trkpt>
      <trkpt lat="47.56649" lon="-2.9092">
        <time>2013-10-12T09:06:25Z</time>
      </trkpt>
      <trkpt lat="47.56655" lon="-2.90918">
        <time>2013-10-12T09:06:27Z</time>
      </trkpt>
      <trkpt lat="47.56661" lon="-2.90917">
        <time>2013-10-12T09:06:30Z</time>
      </trkpt>
      <trkpt lat="47.56666" lon="-2.90918">
        <time>2013-10-12T09:06:34Z</time>
      </trkpt>
      <trkpt lat="47.56671" lon="-2.90917">
        <ele>8</ele>
        <time>2013-10-12T09:06:40Z</time>
      </trkpt>
      <trkpt lat="47.56676" lon="-2.90914">
        <ele>10</ele>
        <time>2013-10-12T09:06:45Z</time>
      </trkpt>
      <trkpt lat="47.5668" lon="-2.90912">
        <ele>10</ele>
        <time>2013-10-12T09:06:48Z</time>
      </trkpt>
      <trkpt lat="47.56685" lon="-2.90914">
        <ele>10</ele>
        <time>2013-10-12T09:06:54Z</time>
      </trkpt>
      <trkpt lat="47.56686" lon="-2.9092">
        <ele>8</ele>
        <time>2013-10-12T09:07:05Z</time>
      </trkpt>
      <trkpt lat="47.5669" lon="-2.90926">
        <ele>8</ele>
        <time>2013-10-12T09:07:14Z</time>
      </trkpt>
      <trkpt lat="47.56695" lon="-2.90929">
        <ele>8</ele>
        <time>2013-10-12T09:07:20Z</time>
      </trkpt>
      <trkpt lat="47.56699" lon="-2.90934">
        <ele>8</ele>
        <time>2013-10-12T09:07:26Z</time>
      </trkpt>
      <trkpt lat="47.56703" lon="-2.90938">
        <ele>8</ele>
        <time>2013-10-12T09:07:31Z</time>
      </trkpt>
      <trkpt lat="47.56705" lon="-2.90945">
        <ele>8</ele>
        <time>2013-10-12T09:07:39Z</time>
      </trkpt>
      <trkpt lat="47.5671" lon="-2.90948">
        <ele>8</ele>
        <time>2013-10-12T09:07:43Z</time>
      </trkpt>
      <trkpt lat="47.56713" lon="-2.90954">
        <ele>8</ele>
        <time>2013-10-12T09:07:49Z</time>
      </trkpt>
      <trkpt lat="47.56716" lon="-2.9096">
        <ele>8</ele>
        <time>2013-10-12T09:07:53Z</time>
      </trkpt>
      <trkpt lat="47.5672" lon="-2.90967">
        <ele>8</ele>
        <time>2013-10-12T09:07:58Z</time>
      </trkpt>
      <trkpt lat="47.56724" lon="-2.90972">
        <ele>8</ele>
        <time>2013-10-12T09:08:02Z</time>
      </trkpt>
      <trkpt lat="47.56727" lon="-2.90978">
        <ele>8</ele>
        <time>2013-10-12T09:08:06Z</time>
      </trkpt>
      <trkpt lat="47.56731" lon="-2.90984">
        <ele>8</ele>
        <time>2013-10-12T09:08:10Z</time>
      </trkpt>
      <trkpt lat="47.56735" lon="-2.9099">
        <ele>8</ele>
        <time>2013-10-12T09:08:14Z</time>
      </trkpt>
      <trkpt lat="47.56739" lon="-2.90995">
        <ele>8</ele>
        <time>2013-10-12T09:08:18Z</time>
      </trkpt>
      <trkpt lat="47.56746" lon="-2.90998">
        <ele>8</ele>
        <time>2013-10-12T09:08:23Z</time>
      </trkpt>
      <trkpt lat="47.56751" lon="-2.90999">
        <ele>10</ele>
        <time>2013-10-12T09:08:26Z</time>
      </trkpt>
      <trkpt lat="47.56756" lon="-2.91">
        <ele>10</ele>
        <time>2013-10-12T09:08:30Z</time>
      </trkpt>
      <trkpt lat="47.56761" lon="-2.91001">
        <ele>8</ele>
        <time>2013-10-12T09:08:35Z</time>
      </trkpt>
      <trkpt lat="47.56766" lon="-2.91003">
        <ele>8</ele>
        <time>2013-10-12T09:08:37Z</time>
      </trkpt>
      <trkpt lat="47.56771" lon="-2.91005">
        <ele>8</ele>
        <time>2013-10-12T09:08:41Z</time>
      </trkpt>
      <trkpt lat="47.56777" lon="-2.91006">
        <ele>8</ele>
        <time>2013-10-12T09:08:43Z</time>
      </trkpt>
      <trkpt lat="47.56783" lon="-2.91008">
        <ele>8</ele>
        <time>2013-10-12T09:08:46Z</time>
      </trkpt>
      <trkpt lat="47.56788" lon="-2.9101">
        <ele>8</ele>
        <time>2013-10-12T09:08:49Z</time>
      </trkpt>
      <trkpt lat="47.56793" lon="-2.91014">
        <ele>8</ele>
        <time>2013-10-12T09:08:55Z</time>
      </trkpt>
      <trkpt lat="47.56796" lon="-2.91019">
        <ele>8</ele>
        <time>2013-10-12T09:09:28Z</time>
      </trkpt>
      <trkpt lat="47.568" lon="-2.91023">
        <ele>8</ele>
        <time>2013-10-12T09:09:46Z</time>
      </trkpt>
      <trkpt lat="47.56805" lon="-2.91025">
        <ele>8</ele>
        <time>2013-10-12T09:09:49Z</time>
      </trkpt>
      <trkpt lat="47.56812" lon="-2.91026">
        <ele>8</ele>
        <time>2013-10-12T09:09:52Z</time>
      </trkpt>
      <trkpt lat="47.56817" lon="-2.91027">
        <ele>8</ele>
        <time>2013-10-12T09:09:55Z</time>
      </trkpt>
      <trkpt lat="47.56823" lon="-2.91029">
        <ele>8</ele>
        <time>2013-10-12T09:09:59Z</time>
      </trkpt>
      <trkpt lat="47.56828" lon="-2.91031">
        <ele>8</ele>
        <time>2013-10-12T09:10:02Z</time>
      </trkpt>
      <trkpt lat="47.56833" lon="-2.91033">
        <ele>8</ele>
        <time>2013-10-12T09:10:04Z</time>
      </trkpt>
      <trkpt lat="47.56838" lon="-2.91035">
        <ele>9</ele>
        <time>2013-10-12T09:10:08Z</time>
      </trkpt>
      <trkpt lat="47.56843" lon="-2.91038">
        <ele>9</ele>
        <time>2013-10-12T09:10:12Z</time>
      </trkpt>
      <trkpt lat="47.56848" lon="-2.91041">
        <ele>9</ele>
        <time>2013-10-12T09:10:16Z</time>
      </trkpt>
      <trkpt lat="47.56853" lon="-2.91043">
        <ele>9</ele>
        <time>2013-10-12T09:10:20Z</time>
      </trkpt>
      <trkpt lat="47.56858" lon="-2.91045">
        <ele>9</ele>
        <time>2013-10-12T09:10:25Z</time>
      </trkpt>
      <trkpt lat="47.56863" lon="-2.91044">
        <ele>9</ele>
        <time>2013-10-12T09:10:29Z</time>
      </trkpt>
      <trkpt lat="47.56869" lon="-2.91046">
        <ele>9</ele>
        <time>2013-10-12T09:10:33Z</time>
      </trkpt>
      <trkpt lat="47.56875" lon="-2.91049">
        <ele>9</ele>
        <time>2013-10-12T09:10:38Z</time>
      </trkpt>
      <trkpt lat="47.56879" lon="-2.91052">
        <ele>10</ele>
        <time>2013-10-12T09:10:46Z</time>
      </trkpt>
      <trkpt lat="47.56885" lon="-2.91053">
        <ele>10</ele>
        <time>2013-10-12T09:10:52Z</time>
      </trkpt>
      <trkpt lat="47.5689" lon="-2.91053">
        <ele>10</ele>
        <time>2013-10-12T09:10:54Z</time>
      </trkpt>
      <trkpt lat="47.56895" lon="-2.91052">
        <ele>10</ele>
        <time>2013-10-12T09:10:58Z</time>
      </trkpt>
      <trkpt lat="47.56902" lon="-2.91051">
        <ele>10</ele>
        <time>2013-10-12T09:11:00Z</time>
      </trkpt>
      <trkpt lat="47.56907" lon="-2.91051">
        <ele>10</ele>
        <time>2013-10-12T09:11:02Z</time>
      </trkpt>
      <trkpt lat="47.56912" lon="-2.91051">
        <ele>10</ele>
        <time>2013-10-12T09:11:04Z</time>
      </trkpt>
      <trkpt lat="47.56921" lon="-2.91051">
        <ele>10</ele>
        <time>2013-10-12T09:11:08Z</time>
      </trkpt>
      <trkpt lat="47.56927" lon="-2.91049">
        <ele>10</ele>
        <time>2013-10-12T09:11:12Z</time>
      </trkpt>
      <trkpt lat="47.56933" lon="-2.91049">
        <ele>10</ele>
        <time>2013-10-12T09:11:14Z</time>
      </trkpt>
      <trkpt lat="47.56938" lon="-2.91049">
        <ele>10</ele>
        <time>2013-10-12T09:11:17Z</time>
      </trkpt>
      <trkpt lat="47.56944" lon="-2.9105">
        <ele>10</ele>
        <time>2013-10-12T09:11:21Z</time>
      </trkpt>
      <trkpt lat="47.56949" lon="-2.9105">
        <ele>10</ele>
        <time>2013-10-12T09:11:24Z</time>
      </trkpt>
      <trkpt lat="47.56953" lon="-2.91051">
        <ele>10</ele>
        <time>2013-10-12T09:11:26Z</time>
      </trkpt>
      <trkpt lat="47.56959" lon="-2.91052">
        <ele>10</ele>
        <time>2013-10-12T09:11:30Z</time>
      </trkpt>
      <trkpt lat="47.56965" lon="-2.91052">
        <ele>10</ele>
        <time>2013-10-12T09:11:35Z</time>
      </trkpt>
      <trkpt lat="47.5697" lon="-2.91052">
        <ele>10</ele>
        <time>2013-10-12T09:11:38Z</time>
      </trkpt>
      <trkpt lat="47.56975" lon="-2.91052">
        <ele>10</ele>
        <time>2013-10-12T09:11:41Z</time>
      </trkpt>
      <trkpt lat="47.5698" lon="-2.91052">
        <ele>10</ele>
        <time>2013-10-12T09:11:44Z</time>
      </trkpt>
      <trkpt lat="47.56985" lon="-2.91052">
        <ele>10</ele>
        <time>2013-10-12T09:11:48Z</time>
      </trkpt>
      <trkpt lat="47.5699" lon="-2.91052">
        <ele>10</ele>
        <time>2013-10-12T09:11:52Z</time>
      </trkpt>
      <trkpt lat="47.56995" lon="-2.91051">
        <ele>10</ele>
        <time>2013-10-12T09:11:55Z</time>
      </trkpt>
      <trkpt lat="47.57001" lon="-2.9105">
        <ele>9</ele>
        <time>2013-10-12T09:11:59Z</time>
      </trkpt>
      <trkpt lat="47.57007" lon="-2.91047">
        <ele>9</ele>
        <time>2013-10-12T09:12:03Z</time>
      </trkpt>
      <trkpt lat="47.57013" lon="-2.91045">
        <ele>9</ele>
        <time>2013-10-12T09:12:06Z</time>
      </trkpt>
      <trkpt lat="47.57018" lon="-2.91043">
        <ele>9</ele>
        <time>2013-10-12T09:12:09Z</time>
      </trkpt>
      <trkpt lat="47.57023" lon="-2.91041">
        <ele>9</ele>
        <time>2013-10-12T09:12:12Z</time>
      </trkpt>
      <trkpt lat="47.57028" lon="-2.91041">
        <ele>9</ele>
        <time>2013-10-12T09:12:16Z</time>
      </trkpt>
      <trkpt lat="47.57034" lon="-2.9104">
        <ele>9</ele>
        <time>2013-10-12T09:12:19Z</time>
      </trkpt>
      <trkpt lat="47.57039" lon="-2.91039">
        <ele>9</ele>
        <time>2013-10-12T09:12:21Z</time>
      </trkpt>
      <trkpt lat="47.57045" lon="-2.91039">
        <ele>9</ele>
        <time>2013-10-12T09:12:24Z</time>
      </trkpt>
      <trkpt lat="47.57051" lon="-2.9104">
        <ele>9</ele>
        <time>2013-10-12T09:12:28Z</time>
      </trkpt>
      <trkpt lat="47.57057" lon="-2.91039">
        <ele>9</ele>
        <time>2013-10-12T09:12:30Z</time>
      </trkpt>
      <trkpt lat="47.57062" lon="-2.91038">
        <ele>9</ele>
        <time>2013-10-12T09:12:33Z</time>
      </trkpt>
      <trkpt lat="47.57067" lon="-2.91038">
        <ele>9</ele>
        <time>2013-10-12T09:12:36Z</time>
      </trkpt>
      <trkpt lat="47.57074" lon="-2.91038">
        <ele>9</ele>
        <time>2013-10-12T09:12:40Z</time>
      </trkpt>
      <trkpt lat="47.57079" lon="-2.91037">
        <ele>9</ele>
        <time>2013-10-12T09:12:43Z</time>
      </trkpt>
      <trkpt lat="47.57085" lon="-2.91036">
        <ele>9</ele>
        <time>2013-10-12T09:12:47Z</time>
      </trkpt>
      <trkpt lat="47.5709" lon="-2.91035">
        <ele>9</ele>
        <time>2013-10-12T09:12:49Z</time>
      </trkpt>
      <trkpt lat="47.57095" lon="-2.91034">
        <ele>9</ele>
        <time>2013-10-12T09:12:52Z</time>
      </trkpt>
      <trkpt lat="47.571" lon="-2.91033">
        <ele>9</ele>
        <time>2013-10-12T09:12:56Z</time>
      </trkpt>
      <trkpt lat="47.57107" lon="-2.91032">
        <ele>9</ele>
        <time>2013-10-12T09:13:00Z</time>
      </trkpt>
      <trkpt lat="47.57113" lon="-2.91031">
        <ele>9</ele>
        <time>2013-10-12T09:13:02Z</time>
      </trkpt>
      <trkpt lat="47.57119" lon="-2.9103">
        <ele>9</ele>
        <time>2013-10-12T09:13:06Z</time>
      </trkpt>
      <trkpt lat="47.57123" lon="-2.91029">
        <ele>9</ele>
        <time>2013-10-12T09:13:09Z</time>
      </trkpt>
      <trkpt lat="47.5713" lon="-2.91027">
        <ele>9</ele>
        <time>2013-10-12T09:13:12Z</time>
      </trkpt>
      <trkpt lat="47.57136" lon="-2.91026">
        <ele>9</ele>
        <time>2013-10-12T09:13:16Z</time>
      </trkpt>
      <trkpt lat="47.57142" lon="-2.91024">
        <ele>9</ele>
        <time>2013-10-12T09:13:20Z</time>
      </trkpt>
      <trkpt lat="47.57148" lon="-2.91024">
        <ele>9</ele>
        <time>2013-10-12T09:13:24Z</time>
      </trkpt>
      <trkpt lat="47.57153" lon="-2.91025">
        <ele>9</ele>
        <time>2013-10-12T09:13:28Z</time>
      </trkpt>
      <trkpt lat="47.57158" lon="-2.91025">
        <ele>9</ele>
        <time>2013-10-12T09:13:30Z</time>
      </trkpt>
      <trkpt lat="47.57164" lon="-2.91025">
        <ele>9</ele>
        <time>2013-10-12T09:13:33Z</time>
      </trkpt>
      <trkpt lat="47.5717" lon="-2.91026">
        <ele>10</ele>
        <time>2013-10-12T09:13:36Z</time>
      </trkpt>
      <trkpt lat="47.57176" lon="-2.91028">
        <ele>10</ele>
        <time>2013-10-12T09:13:39Z</time>
      </trkpt>
      <trkpt lat="47.57181" lon="-2.91029">
        <ele>10</ele>
        <time>2013-10-12T09:13:42Z</time>
      </trkpt>
      <trkpt lat="47.57187" lon="-2.91031">
        <ele>10</ele>
        <time>2013-10-12T09:13:45Z</time>
      </trkpt>
      <trkpt lat="47.57193" lon="-2.91033">
        <ele>10</ele>
        <time>2013-10-12T09:13:48Z</time>
      </trkpt>
      <trkpt lat="47.57198" lon="-2.91036">
        <ele>10</ele>
        <time>2013-10-12T09:13:51Z</time>
      </trkpt>
      <trkpt lat="47.57204" lon="-2.91039">
        <ele>10</ele>
        <time>2013-10-12T09:13:54Z</time>
      </trkpt>
      <trkpt lat="47.5721" lon="-2.9104">
        <ele>10</ele>
        <time>2013-10-12T09:13:57Z</time>
      </trkpt>
      <trkpt lat="47.57216" lon="-2.91041">
        <ele>10</ele>
        <time>2013-10-12T09:14:01Z</time>
      </trkpt>
      <trkpt lat="47.57222" lon="-2.91043">
        <ele>10</ele>
        <time>2013-10-12T09:14:04Z</time>
      </trkpt>
      <trkpt lat="47.57228" lon="-2.91047">
        <ele>10</ele>
        <time>2013-10-12T09:14:06Z</time>
      </trkpt>
      <trkpt lat="47.57232" lon="-2.91051">
        <ele>10</ele>
        <time>2013-10-12T09:14:08Z</time>
      </trkpt>
      <trkpt lat="47.57236" lon="-2.91052">
        <ele>10</ele>
        <time>2013-10-12T09:14:10Z</time>
      </trkpt>
      <trkpt lat="47.57242" lon="-2.91054">
        <ele>10</ele>
        <time>2013-10-12T09:14:14Z</time>
      </trkpt>
      <trkpt lat="47.57248" lon="-2.91056">
        <ele>10</ele>
        <time>2013-10-12T09:14:17Z</time>
      </trkpt>
      <trkpt lat="47.57254" lon="-2.91058">
        <ele>9</ele>
        <time>2013-10-12T09:14:19Z</time>
      </trkpt>
      <trkpt lat="47.57259" lon="-2.91061">
        <ele>9</ele>
        <time>2013-10-12T09:14:22Z</time>
      </trkpt>
      <trkpt lat="47.57265" lon="-2.91063">
        <ele>9</ele>
        <time>2013-10-12T09:14:25Z</time>
      </trkpt>
      <trkpt lat="47.57272" lon="-2.91065">
        <ele>9</ele>
        <time>2013-10-12T09:14:29Z</time>
      </trkpt>
      <trkpt lat="47.57277" lon="-2.91067">
        <ele>8</ele>
        <time>2013-10-12T09:14:32Z</time>
      </trkpt>
      <trkpt lat="47.57282" lon="-2.91068">
        <ele>8</ele>
        <time>2013-10-12T09:14:36Z</time>
      </trkpt>
      <trkpt lat="47.57286" lon="-2.91069">
        <ele>8</ele>
        <time>2013-10-12T09:14:38Z</time>
      </trkpt>
      <trkpt lat="47.57291" lon="-2.91071">
        <ele>8</ele>
        <time>2013-10-12T09:14:42Z</time>
      </trkpt>
      <trkpt lat="47.57296" lon="-2.91072">
        <ele>8</ele>
        <time>2013-10-12T09:14:44Z</time>
      </trkpt>
      <trkpt lat="47.57301" lon="-2.91073">
        <ele>7</ele>
        <time>2013-10-12T09:14:47Z</time>
      </trkpt>
      <trkpt lat="47.57306" lon="-2.91074">
        <ele>7</ele>
        <time>2013-10-12T09:14:51Z</time>
      </trkpt>
      <trkpt lat="47.57311" lon="-2.91076">
        <ele>7</ele>
        <time>2013-10-12T09:14:53Z</time>
      </trkpt>
      <trkpt lat="47.57317" lon="-2.91078">
        <ele>6</ele>
        <time>2013-10-12T09:14:56Z</time>
      </trkpt>
      <trkpt lat="47.57323" lon="-2.9108">
        <ele>5</ele>
        <time>2013-10-12T09:15:00Z</time>
      </trkpt>
      <trkpt lat="47.57328" lon="-2.91083">
        <ele>5</ele>
        <time>2013-10-12T09:15:02Z</time>
      </trkpt>
      <trkpt lat="47.57334" lon="-2.91086">
        <ele>4</ele>
        <time>2013-10-12T09:15:05Z</time>
      </trkpt>
      <trkpt lat="47.57339" lon="-2.91089">
        <ele>5</ele>
        <time>2013-10-12T09:15:08Z</time>
      </trkpt>
      <trkpt lat="47.57344" lon="-2.91091">
        <ele>5</ele>
        <time>2013-10-12T09:15:12Z</time>
      </trkpt>
      <trkpt lat="47.57348" lon="-2.91094">
        <ele>5</ele>
        <time>2013-10-12T09:15:14Z</time>
      </trkpt>
      <trkpt lat="47.57354" lon="-2.91096">
        <ele>6</ele>
        <time>2013-10-12T09:15:18Z</time>
      </trkpt>
      <trkpt lat="47.57359" lon="-2.91099">
        <ele>6</ele>
        <time>2013-10-12T09:15:21Z</time>
      </trkpt>
      <trkpt lat="47.57365" lon="-2.91103">
        <ele>6</ele>
        <time>2013-10-12T09:15:24Z</time>
      </trkpt>
      <trkpt lat="47.57369" lon="-2.91107">
        <ele>7</ele>
        <time>2013-10-12T09:15:27Z</time>
      </trkpt>
      <trkpt lat="47.57374" lon="-2.91109">
        <ele>7</ele>
        <time>2013-10-12T09:15:30Z</time>
      </trkpt>
      <trkpt lat="47.57382" lon="-2.91111">
        <ele>7</ele>
        <time>2013-10-12T09:15:36Z</time>
      </trkpt>
      <trkpt lat="47.57387" lon="-2.91112">
        <ele>8</ele>
        <time>2013-10-12T09:15:38Z</time>
      </trkpt>
      <trkpt lat="47.57392" lon="-2.91115">
        <ele>8</ele>
        <time>2013-10-12T09:15:41Z</time>
      </trkpt>
      <trkpt lat="47.57397" lon="-2.91118">
        <ele>8</ele>
        <time>2013-10-12T09:15:44Z</time>
      </trkpt>
      <trkpt lat="47.57402" lon="-2.91121">
        <ele>8</ele>
        <time>2013-10-12T09:15:47Z</time>
      </trkpt>
      <trkpt lat="47.57407" lon="-2.91122">
        <ele>8</ele>
        <time>2013-10-12T09:15:51Z</time>
      </trkpt>
      <trkpt lat="47.57412" lon="-2.91122">
        <ele>8</ele>
        <time>2013-10-12T09:15:54Z</time>
      </trkpt>
      <trkpt lat="47.57417" lon="-2.91123">
        <ele>8</ele>
        <time>2013-10-12T09:15:57Z</time>
      </trkpt>
      <trkpt lat="47.57421" lon="-2.91125">
        <ele>10</ele>
        <time>2013-10-12T09:16:00Z</time>
      </trkpt>
      <trkpt lat="47.57427" lon="-2.91127">
        <ele>10</ele>
        <time>2013-10-12T09:16:03Z</time>
      </trkpt>
      <trkpt lat="47.57432" lon="-2.91129">
        <ele>10</ele>
        <time>2013-10-12T09:16:06Z</time>
      </trkpt>
      <trkpt lat="47.57437" lon="-2.91132">
        <ele>10</ele>
        <time>2013-10-12T09:16:09Z</time>
      </trkpt>
      <trkpt lat="47.57442" lon="-2.91134">
        <ele>10</ele>
        <time>2013-10-12T09:16:12Z</time>
      </trkpt>
      <trkpt lat="47.57448" lon="-2.91137">
        <ele>10</ele>
        <time>2013-10-12T09:16:15Z</time>
      </trkpt>
      <trkpt lat="47.57453" lon="-2.91138">
        <ele>10</ele>
        <time>2013-10-12T09:16:18Z</time>
      </trkpt>
      <trkpt lat="47.57459" lon="-2.91141">
        <ele>11</ele>
        <time>2013-10-12T09:16:22Z</time>
      </trkpt>
      <trkpt lat="47.57464" lon="-2.91144">
        <ele>11</ele>
        <time>2013-10-12T09:16:25Z</time>
      </trkpt>
      <trkpt lat="47.5747" lon="-2.91145">
        <ele>11</ele>
        <time>2013-10-12T09:16:27Z</time>
      </trkpt>
      <trkpt lat="47.57475" lon="-2.91146">
        <ele>11</ele>
        <time>2013-10-12T09:16:30Z</time>
      </trkpt>
      <trkpt lat="47.5748" lon="-2.91147">
        <ele>11</ele>
        <time>2013-10-12T09:16:33Z</time>
      </trkpt>
      <trkpt lat="47.57486" lon="-2.91147">
        <ele>11</ele>
        <time>2013-10-12T09:16:37Z</time>
      </trkpt>
      <trkpt lat="47.57492" lon="-2.91148">
        <ele>11</ele>
        <time>2013-10-12T09:16:41Z</time>
      </trkpt>
      <trkpt lat="47.57497" lon="-2.91148">
        <ele>11</ele>
        <time>2013-10-12T09:16:44Z</time>
      </trkpt>
      <trkpt lat="47.57502" lon="-2.91148">
        <ele>11</ele>
        <time>2013-10-12T09:16:48Z</time>
      </trkpt>
      <trkpt lat="47.57507" lon="-2.91151">
        <ele>11</ele>
        <time>2013-10-12T09:16:50Z</time>
      </trkpt>
      <trkpt lat="47.57511" lon="-2.91155">
        <ele>11</ele>
        <time>2013-10-12T09:16:54Z</time>
      </trkpt>
      <trkpt lat="47.57516" lon="-2.91158">
        <ele>11</ele>
        <time>2013-10-12T09:16:57Z</time>
      </trkpt>
      <trkpt lat="47.57521" lon="-2.91161">
        <ele>11</ele>
        <time>2013-10-12T09:16:59Z</time>
      </trkpt>
      <trkpt lat="47.57527" lon="-2.91163">
        <ele>11</ele>
        <time>2013-10-12T09:17:03Z</time>
      </trkpt>
      <trkpt lat="47.57533" lon="-2.91166">
        <ele>11</ele>
        <time>2013-10-12T09:17:05Z</time>
      </trkpt>
      <trkpt lat="47.57538" lon="-2.91168">
        <time>2013-10-12T09:17:08Z</time>
      </trkpt>
      <trkpt lat="47.57545" lon="-2.91169">
        <time>2013-10-12T09:17:11Z</time>
      </trkpt>
      <trkpt lat="47.57549" lon="-2.9117">
        <time>2013-10-12T09:17:14Z</time>
      </trkpt>
      <trkpt lat="47.57554" lon="-2.9117">
        <time>2013-10-12T09:17:15Z</time>
      </trkpt>
      <trkpt lat="47.57559" lon="-2.9117">
        <time>2013-10-12T09:17:17Z</time>
      </trkpt>
      <trkpt lat="47.57564" lon="-2.9117">
        <time>2013-10-12T09:17:19Z</time>
      </trkpt>
      <trkpt lat="47.57569" lon="-2.9117">
        <time>2013-10-12T09:17:21Z</time>
      </trkpt>
      <trkpt lat="47.57574" lon="-2.9117">
        <time>2013-10-12T09:17:24Z</time>
      </trkpt>
      <trkpt lat="47.57579" lon="-2.91169">
        <time>2013-10-12T09:17:25Z</time>
      </trkpt>
      <trkpt lat="47.57586" lon="-2.91168">
        <time>2013-10-12T09:17:29Z</time>
      </trkpt>
      <trkpt lat="47.5759" lon="-2.91166">
        <ele>12</ele>
        <time>2013-10-12T09:17:30Z</time>
      </trkpt>
      <trkpt lat="47.57595" lon="-2.91166">
        <ele>12</ele>
        <time>2013-10-12T09:17:33Z</time>
      </trkpt>
      <trkpt lat="47.576" lon="-2.91164">
        <ele>12</ele>
        <time>2013-10-12T09:17:34Z</time>
      </trkpt>
      <trkpt lat="47.57604" lon="-2.91162">
        <ele>12</ele>
        <time>2013-10-12T09:17:37Z</time>
      </trkpt>
      <trkpt lat="47.57613" lon="-2.91159">
        <ele>12</ele>
        <time>2013-10-12T09:17:41Z</time>
      </trkpt>
      <trkpt lat="47.57619" lon="-2.91156">
        <ele>12</ele>
        <time>2013-10-12T09:17:43Z</time>
      </trkpt>
      <trkpt lat="47.57623" lon="-2.91153">
        <ele>12</ele>
        <time>2013-10-12T09:17:46Z</time>
      </trkpt>
      <trkpt lat="47.57629" lon="-2.91148">
        <ele>12</ele>
        <time>2013-10-12T09:17:48Z</time>
      </trkpt>
      <trkpt lat="47.57633" lon="-2.91145">
        <ele>12</ele>
        <time>2013-10-12T09:17:51Z</time>
      </trkpt>
      <trkpt lat="47.57638" lon="-2.91142">
        <ele>12</ele>
        <time>2013-10-12T09:17:52Z</time>
      </trkpt>
      <trkpt lat="47.57642" lon="-2.91139">
        <ele>12</ele>
        <time>2013-10-12T09:17:55Z</time>
      </trkpt>
      <trkpt lat="47.57646" lon="-2.91136">
        <ele>12</ele>
        <time>2013-10-12T09:17:57Z</time>
      </trkpt>
      <trkpt lat="47.57649" lon="-2.91132">
        <ele>12</ele>
        <time>2013-10-12T09:17:58Z</time>
      </trkpt>
      <trkpt lat="47.57654" lon="-2.91127">
        <ele>12</ele>
        <time>2013-10-12T09:18:01Z</time>
      </trkpt>
      <trkpt lat="47.57659" lon="-2.91122">
        <ele>12</ele>
        <time>2013-10-12T09:18:05Z</time>
      </trkpt>
      <trkpt lat="47.57663" lon="-2.91117">
        <ele>12</ele>
        <time>2013-10-12T09:18:07Z</time>
      </trkpt>
      <trkpt lat="47.57668" lon="-2.91111">
        <time>2013-10-12T09:18:10Z</time>
      </trkpt>
      <trkpt lat="47.57672" lon="-2.91105">
        <time>2013-10-12T09:18:13Z</time>
      </trkpt>
      <trkpt lat="47.57677" lon="-2.91101">
        <time>2013-10-12T09:18:16Z</time>
      </trkpt>
      <trkpt lat="47.57683" lon="-2.91096">
        <time>2013-10-12T09:18:20Z</time>
      </trkpt>
      <trkpt lat="47.57691" lon="-2.91091">
        <time>2013-10-12T09:18:24Z</time>
      </trkpt>
      <trkpt lat="47.57696" lon="-2.91086">
        <time>2013-10-12T09:18:27Z</time>
      </trkpt>
      <trkpt lat="47.57703" lon="-2.9108">
        <ele>15</ele>
        <time>2013-10-12T09:18:30Z</time>
      </trkpt>
      <trkpt lat="47.57708" lon="-2.91076">
        <ele>15</ele>
        <time>2013-10-12T09:18:33Z</time>
      </trkpt>
      <trkpt lat="47.57714" lon="-2.91072">
        <ele>15</ele>
        <time>2013-10-12T09:18:37Z</time>
      </trkpt>
      <trkpt lat="47.5772" lon="-2.91068">
        <ele>15</ele>
        <time>2013-10-12T09:18:39Z</time>
      </trkpt>
      <trkpt lat="47.57724" lon="-2.91065">
        <ele>15</ele>
        <time>2013-10-12T09:18:42Z</time>
      </trkpt>
      <trkpt lat="47.57728" lon="-2.91062">
        <ele>15</ele>
        <time>2013-10-12T09:18:43Z</time>
      </trkpt>
      <trkpt lat="47.57733" lon="-2.9106">
        <ele>15</ele>
        <time>2013-10-12T09:18:46Z</time>
      </trkpt>
      <trkpt lat="47.57737" lon="-2.91057">
        <ele>15</ele>
        <time>2013-10-12T09:18:47Z</time>
      </trkpt>
      <trkpt lat="47.57742" lon="-2.91054">
        <ele>15</ele>
        <time>2013-10-12T09:18:50Z</time>
      </trkpt>
      <trkpt lat="47.57746" lon="-2.91052">
        <ele>15</ele>
        <time>2013-10-12T09:18:52Z</time>
      </trkpt>
      <trkpt lat="47.57752" lon="-2.91048">
        <time>2013-10-12T09:18:55Z</time>
      </trkpt>
      <trkpt lat="47.57758" lon="-2.91044">
        <time>2013-10-12T09:18:57Z</time>
      </trkpt>
      <trkpt lat="47.57763" lon="-2.91039">
        <time>2013-10-12T09:19:01Z</time>
      </trkpt>
      <trkpt lat="47.57768" lon="-2.91036">
        <time>2013-10-12T09:19:04Z</time>
      </trkpt>
      <trkpt lat="47.57772" lon="-2.91032">
        <time>2013-10-12T09:19:06Z</time>
      </trkpt>
      <trkpt lat="47.57777" lon="-2.91028">
        <ele>3</ele>
        <time>2013-10-12T09:19:09Z</time>
      </trkpt>
      <trkpt lat="47.57781" lon="-2.91024">
        <time>2013-10-12T09:19:13Z</time>
      </trkpt>
      <trkpt lat="47.57785" lon="-2.9102">
        <time>2013-10-12T09:19:15Z</time>
      </trkpt>
      <trkpt lat="47.57789" lon="-2.91017">
        <time>2013-10-12T09:19:19Z</time>
      </trkpt>
      <trkpt lat="47.57794" lon="-2.91013">
        <time>2013-10-12T09:19:23Z</time>
      </trkpt>
      <trkpt lat="47.57798" lon="-2.91008">
        <time>2013-10-12T09:19:27Z</time>
      </trkpt>
      <trkpt lat="47.57803" lon="-2.91003">
        <time>2013-10-12T09:19:32Z</time>
      </trkpt>
      <trkpt lat="47.57808" lon="-2.90998">
        <time>2013-10-12T09:19:37Z</time>
      </trkpt>
      <trkpt lat="47.57808" lon="-2.90991">
        <time>2013-10-12T09:19:44Z</time>
      </trkpt>
      <trkpt lat="47.57805" lon="-2.90985">
        <time>2013-10-12T09:19:54Z</time>
      </trkpt>
      <trkpt lat="47.57802" lon="-2.9098">
        <time>2013-10-12T09:19:59Z</time>
      </trkpt>
      <trkpt lat="47.57802" lon="-2.90973">
        <time>2013-10-12T09:20:03Z</time>
      </trkpt>
      <trkpt lat="47.57804" lon="-2.90965">
        <time>2013-10-12T09:20:09Z</time>
      </trkpt>
      <trkpt lat="47.57807" lon="-2.90961">
        <time>2013-10-12T09:20:13Z</time>
      </trkpt>
      <trkpt lat="47.57812" lon="-2.90957">
        <time>2013-10-12T09:20:17Z</time>
      </trkpt>
      <trkpt lat="47.57819" lon="-2.90954">
        <time>2013-10-12T09:20:22Z</time>
      </trkpt>
      <trkpt lat="47.57824" lon="-2.9095">
        <time>2013-10-12T09:20:25Z</time>
      </trkpt>
      <trkpt lat="47.57829" lon="-2.90949">
        <time>2013-10-12T09:20:29Z</time>
      </trkpt>
      <trkpt lat="47.57834" lon="-2.90946">
        <time>2013-10-12T09:20:33Z</time>
      </trkpt>
      <trkpt lat="47.57838" lon="-2.90943">
        <time>2013-10-12T09:20:36Z</time>
      </trkpt>
      <trkpt lat="47.57842" lon="-2.9094">
        <time>2013-10-12T09:20:40Z</time>
      </trkpt>
      <trkpt lat="47.57847" lon="-2.90936">
        <time>2013-10-12T09:20:42Z</time>
      </trkpt>
      <trkpt lat="47.57852" lon="-2.90931">
        <time>2013-10-12T09:20:46Z</time>
      </trkpt>
      <trkpt lat="47.57858" lon="-2.90926">
        <time>2013-10-12T09:20:50Z</time>
      </trkpt>
      <trkpt lat="47.57863" lon="-2.90921">
        <time>2013-10-12T09:20:53Z</time>
      </trkpt>
      <trkpt lat="47.57867" lon="-2.90917">
        <time>2013-10-12T09:20:55Z</time>
      </trkpt>
      <trkpt lat="47.57872" lon="-2.90912">
        <time>2013-10-12T09:20:59Z</time>
      </trkpt>
      <trkpt lat="47.57877" lon="-2.90907">
        <time>2013-10-12T09:21:02Z</time>
      </trkpt>
      <trkpt lat="47.57883" lon="-2.90902">
        <time>2013-10-12T09:21:05Z</time>
      </trkpt>
      <trkpt lat="47.57887" lon="-2.90896">
        <time>2013-10-12T09:21:08Z</time>
      </trkpt>
      <trkpt lat="47.57891" lon="-2.90888">
        <time>2013-10-12T09:21:11Z</time>
      </trkpt>
      <trkpt lat="47.57895" lon="-2.9088">
        <time>2013-10-12T09:21:14Z</time>
      </trkpt>
      <trkpt lat="47.57897" lon="-2.90873">
        <time>2013-10-12T09:21:16Z</time>
      </trkpt>
      <trkpt lat="47.57899" lon="-2.90867">
        <time>2013-10-12T09:21:18Z</time>
      </trkpt>
      <trkpt lat="47.57901" lon="-2.9086">
        <time>2013-10-12T09:21:20Z</time>
      </trkpt>
      <trkpt lat="47.57903" lon="-2.90853">
        <time>2013-10-12T09:21:22Z</time>
      </trkpt>
      <trkpt lat="47.57906" lon="-2.90843">
        <time>2013-10-12T09:21:25Z</time>
      </trkpt>
      <trkpt lat="47.57908" lon="-2.90836">
        <time>2013-10-12T09:21:27Z</time>
      </trkpt>
      <trkpt lat="47.5791" lon="-2.90828">
        <time>2013-10-12T09:21:30Z</time>
      </trkpt>
      <trkpt lat="47.57912" lon="-2.90821">
        <time>2013-10-12T09:21:31Z</time>
      </trkpt>
      <trkpt lat="47.57914" lon="-2.90814">
        <time>2013-10-12T09:21:34Z</time>
      </trkpt>
      <trkpt lat="47.57916" lon="-2.90807">
        <time>2013-10-12T09:21:35Z</time>
      </trkpt>
      <trkpt lat="47.57918" lon="-2.90801">
        <time>2013-10-12T09:21:37Z</time>
      </trkpt>
      <trkpt lat="47.5792" lon="-2.90795">
        <time>2013-10-12T09:21:40Z</time>
      </trkpt>
      <trkpt lat="47.57922" lon="-2.90788">
        <time>2013-10-12T09:21:41Z</time>
      </trkpt>
      <trkpt lat="47.57924" lon="-2.90781">
        <time>2013-10-12T09:21:43Z</time>
      </trkpt>
      <trkpt lat="47.57926" lon="-2.90774">
        <time>2013-10-12T09:21:45Z</time>
      </trkpt>
      <trkpt lat="47.57927" lon="-2.90767">
        <time>2013-10-12T09:21:47Z</time>
      </trkpt>
      <trkpt lat="47.57929" lon="-2.90761">
        <time>2013-10-12T09:21:49Z</time>
      </trkpt>
      <trkpt lat="47.57931" lon="-2.90754">
        <time>2013-10-12T09:21:51Z</time>
      </trkpt>
      <trkpt lat="47.57933" lon="-2.90747">
        <time>2013-10-12T09:21:53Z</time>
      </trkpt>
      <trkpt lat="47.57935" lon="-2.90739">
        <time>2013-10-12T09:21:56Z</time>
      </trkpt>
      <trkpt lat="47.5794" lon="-2.90729">
        <time>2013-10-12T09:22:00Z</time>
      </trkpt>
      <trkpt lat="47.57943" lon="-2.90721">
        <time>2013-10-12T09:22:03Z</time>
      </trkpt>
      <trkpt lat="47.57945" lon="-2.90713">
        <time>2013-10-12T09:22:06Z</time>
      </trkpt>
      <trkpt lat="47.57946" lon="-2.90704">
        <time>2013-10-12T09:22:09Z</time>
      </trkpt>
      <trkpt lat="47.57948" lon="-2.90692">
        <time>2013-10-12T09:22:13Z</time>
      </trkpt>
      <trkpt lat="47.57951" lon="-2.90683">
        <time>2013-10-12T09:22:16Z</time>
      </trkpt>
      <trkpt lat="47.57953" lon="-2.90674">
        <time>2013-10-12T09:22:19Z</time>
      </trkpt>
      <trkpt lat="47.57955" lon="-2.90665">
        <time>2013-10-12T09:22:22Z</time>
      </trkpt>
      <trkpt lat="47.57956" lon="-2.90657">
        <time>2013-10-12T09:22:24Z</time>
      </trkpt>
      <trkpt lat="47.57957" lon="-2.9065">
        <time>2013-10-12T09:22:26Z</time>
      </trkpt>
      <trkpt lat="47.57958" lon="-2.90642">
        <time>2013-10-12T09:22:29Z</time>
      </trkpt>
      <trkpt lat="47.57958" lon="-2.90634">
        <time>2013-10-12T09:22:31Z</time>
      </trkpt>
      <trkpt lat="47.57959" lon="-2.90627">
        <time>2013-10-12T09:22:32Z</time>
      </trkpt>
      <trkpt lat="47.5796" lon="-2.9062">
        <time>2013-10-12T09:22:35Z</time>
      </trkpt>
      <trkpt lat="47.57961" lon="-2.90612">
        <time>2013-10-12T09:22:36Z</time>
      </trkpt>
      <trkpt lat="47.57961" lon="-2.90605">
        <time>2013-10-12T09:22:38Z</time>
      </trkpt>
      <trkpt lat="47.57962" lon="-2.90597">
        <time>2013-10-12T09:22:40Z</time>
      </trkpt>
      <trkpt lat="47.57963" lon="-2.9059">
        <time>2013-10-12T09:22:43Z</time>
      </trkpt>
      <trkpt lat="47.57963" lon="-2.90583">
        <time>2013-10-12T09:22:45Z</time>
      </trkpt>
      <trkpt lat="47.57964" lon="-2.90575">
        <time>2013-10-12T09:22:46Z</time>
      </trkpt>
      <trkpt lat="47.57964" lon="-2.90568">
        <time>2013-10-12T09:22:49Z</time>
      </trkpt>
      <trkpt lat="47.57965" lon="-2.90561">
        <time>2013-10-12T09:22:50Z</time>
      </trkpt>
      <trkpt lat="47.57966" lon="-2.90555">
        <time>2013-10-12T09:22:52Z</time>
      </trkpt>
      <trkpt lat="47.57967" lon="-2.90545">
        <time>2013-10-12T09:22:55Z</time>
      </trkpt>
      <trkpt lat="47.57967" lon="-2.90537">
        <time>2013-10-12T09:22:57Z</time>
      </trkpt>
      <trkpt lat="47.57968" lon="-2.9053">
        <time>2013-10-12T09:22:59Z</time>
      </trkpt>
      <trkpt lat="47.57969" lon="-2.90523">
        <time>2013-10-12T09:23:01Z</time>
      </trkpt>
      <trkpt lat="47.5797" lon="-2.90516">
        <time>2013-10-12T09:23:03Z</time>
      </trkpt>
      <trkpt lat="47.5797" lon="-2.90509">
        <time>2013-10-12T09:23:05Z</time>
      </trkpt>
      <trkpt lat="47.57971" lon="-2.90501">
        <time>2013-10-12T09:23:07Z</time>
      </trkpt>
      <trkpt lat="47.57972" lon="-2.90493">
        <time>2013-10-12T09:23:10Z</time>
      </trkpt>
      <trkpt lat="47.57972" lon="-2.90482">
        <time>2013-10-12T09:23:12Z</time>
      </trkpt>
      <trkpt lat="47.57973" lon="-2.90475">
        <time>2013-10-12T09:23:15Z</time>
      </trkpt>
      <trkpt lat="47.57973" lon="-2.90468">
        <time>2013-10-12T09:23:17Z</time>
      </trkpt>
      <trkpt lat="47.57974" lon="-2.9046">
        <time>2013-10-12T09:23:18Z</time>
      </trkpt>
      <trkpt lat="47.57974" lon="-2.90452">
        <time>2013-10-12T09:23:20Z</time>
      </trkpt>
      <trkpt lat="47.57974" lon="-2.90445">
        <time>2013-10-12T09:23:22Z</time>
      </trkpt>
      <trkpt lat="47.57974" lon="-2.90436">
        <time>2013-10-12T09:23:24Z</time>
      </trkpt>
      <trkpt lat="47.57974" lon="-2.90428">
        <time>2013-10-12T09:23:26Z</time>
      </trkpt>
      <trkpt lat="47.57975" lon="-2.90421">
        <time>2013-10-12T09:23:28Z</time>
      </trkpt>
      <trkpt lat="47.57976" lon="-2.90414">
        <time>2013-10-12T09:23:30Z</time>
      </trkpt>
      <trkpt lat="47.57977" lon="-2.90407">
        <time>2013-10-12T09:23:32Z</time>
      </trkpt>
      <trkpt lat="47.57978" lon="-2.904">
        <time>2013-10-12T09:23:34Z</time>
      </trkpt>
      <trkpt lat="47.57979" lon="-2.90393">
        <time>2013-10-12T09:23:36Z</time>
      </trkpt>
      <trkpt lat="47.57981" lon="-2.90386">
        <time>2013-10-12T09:23:39Z</time>
      </trkpt>
      <trkpt lat="47.57983" lon="-2.90378">
        <time>2013-10-12T09:23:41Z</time>
      </trkpt>
      <trkpt lat="47.57984" lon="-2.9037">
        <time>2013-10-12T09:23:43Z</time>
      </trkpt>
      <trkpt lat="47.57985" lon="-2.90357">
        <time>2013-10-12T09:23:45Z</time>
      </trkpt>
      <trkpt lat="47.57985" lon="-2.90349">
        <time>2013-10-12T09:23:48Z</time>
      </trkpt>
      <trkpt lat="47.57987" lon="-2.90342">
        <time>2013-10-12T09:23:49Z</time>
      </trkpt>
      <trkpt lat="47.57988" lon="-2.90335">
        <time>2013-10-12T09:23:51Z</time>
      </trkpt>
      <trkpt lat="47.5799" lon="-2.90327">
        <time>2013-10-12T09:23:53Z</time>
      </trkpt>
      <trkpt lat="47.5799" lon="-2.90318">
        <time>2013-10-12T09:23:55Z</time>
      </trkpt>
      <trkpt lat="47.57992" lon="-2.90312">
        <time>2013-10-12T09:23:57Z</time>
      </trkpt>
      <trkpt lat="47.57993" lon="-2.90305">
        <time>2013-10-12T09:23:59Z</time>
      </trkpt>
      <trkpt lat="47.57995" lon="-2.90298">
        <time>2013-10-12T09:24:01Z</time>
      </trkpt>
      <trkpt lat="47.57997" lon="-2.90291">
        <time>2013-10-12T09:24:03Z</time>
      </trkpt>
      <trkpt lat="47.57999" lon="-2.90284">
        <time>2013-10-12T09:24:05Z</time>
      </trkpt>
      <trkpt lat="47.58001" lon="-2.90276">
        <time>2013-10-12T09:24:07Z</time>
      </trkpt>
      <trkpt lat="47.58003" lon="-2.90268">
        <time>2013-10-12T09:24:10Z</time>
      </trkpt>
      <trkpt lat="47.58005" lon="-2.9026">
        <time>2013-10-12T09:24:11Z</time>
      </trkpt>
      <trkpt lat="47.58006" lon="-2.90252">
        <time>2013-10-12T09:24:13Z</time>
      </trkpt>
      <trkpt lat="47.58007" lon="-2.90244">
        <time>2013-10-12T09:24:15Z</time>
      </trkpt>
      <trkpt lat="47.58009" lon="-2.90236">
        <time>2013-10-12T09:24:17Z</time>
      </trkpt>
      <trkpt lat="47.58011" lon="-2.90229">
        <time>2013-10-12T09:24:19Z</time>
      </trkpt>
      <trkpt lat="47.58015" lon="-2.90215">
        <time>2013-10-12T09:24:24Z</time>
      </trkpt>
      <trkpt lat="47.58017" lon="-2.90209">
        <time>2013-10-12T09:24:25Z</time>
      </trkpt>
      <trkpt lat="47.58021" lon="-2.90198">
        <time>2013-10-12T09:24:28Z</time>
      </trkpt>
      <trkpt lat="47.58023" lon="-2.90191">
        <time>2013-10-12T09:24:30Z</time>
      </trkpt>
      <trkpt lat="47.58028" lon="-2.90179">
        <time>2013-10-12T09:24:34Z</time>
      </trkpt>
      <trkpt lat="47.5803" lon="-2.90172">
        <time>2013-10-12T09:24:35Z</time>
      </trkpt>
      <trkpt lat="47.58035" lon="-2.90161">
        <time>2013-10-12T09:24:38Z</time>
      </trkpt>
      <trkpt lat="47.58037" lon="-2.90153">
        <time>2013-10-12T09:24:40Z</time>
      </trkpt>
      <trkpt lat="47.5804" lon="-2.90146">
        <time>2013-10-12T09:24:42Z</time>
      </trkpt>
      <trkpt lat="47.58042" lon="-2.90138">
        <time>2013-10-12T09:24:44Z</time>
      </trkpt>
      <trkpt lat="47.58045" lon="-2.9013">
        <time>2013-10-12T09:24:46Z</time>
      </trkpt>
      <trkpt lat="47.58047" lon="-2.90123">
        <time>2013-10-12T09:24:48Z</time>
      </trkpt>
      <trkpt lat="47.5805" lon="-2.90115">
        <time>2013-10-12T09:24:50Z</time>
      </trkpt>
      <trkpt lat="47.58052" lon="-2.90108">
        <time>2013-10-12T09:24:52Z</time>
      </trkpt>
      <trkpt lat="47.58055" lon="-2.90101">
        <time>2013-10-12T09:24:55Z</time>
      </trkpt>
      <trkpt lat="47.58057" lon="-2.90093">
        <time>2013-10-12T09:24:56Z</time>
      </trkpt>
      <trkpt lat="47.5806" lon="-2.90085">
        <time>2013-10-12T09:24:58Z</time>
      </trkpt>
      <trkpt lat="47.58064" lon="-2.9007">
        <time>2013-10-12T09:25:02Z</time>
      </trkpt>
      <trkpt lat="47.58066" lon="-2.90061">
        <time>2013-10-12T09:25:04Z</time>
      </trkpt>
      <trkpt lat="47.58068" lon="-2.90054">
        <time>2013-10-12T09:25:06Z</time>
      </trkpt>
      <trkpt lat="47.58071" lon="-2.90043">
        <time>2013-10-12T09:25:10Z</time>
      </trkpt>
      <trkpt lat="47.58072" lon="-2.90036">
        <time>2013-10-12T09:25:11Z</time>
      </trkpt>
      <trkpt lat="47.58075" lon="-2.90026">
        <time>2013-10-12T09:25:15Z</time>
      </trkpt>
      <trkpt lat="47.58077" lon="-2.90019">
        <time>2013-10-12T09:25:16Z</time>
      </trkpt>
      <trkpt lat="47.58079" lon="-2.90012">
        <time>2013-10-12T09:25:18Z</time>
      </trkpt>
      <trkpt lat="47.58082" lon="-2.90001">
        <time>2013-10-12T09:25:22Z</time>
      </trkpt>
      <trkpt lat="47.58084" lon="-2.89994">
        <time>2013-10-12T09:25:24Z</time>
      </trkpt>
      <trkpt lat="47.58086" lon="-2.89987">
        <time>2013-10-12T09:25:25Z</time>
      </trkpt>
      <trkpt lat="47.58087" lon="-2.8998">
        <time>2013-10-12T09:25:27Z</time>
      </trkpt>
      <trkpt lat="47.58089" lon="-2.89972">
        <time>2013-10-12T09:25:30Z</time>
      </trkpt>
      <trkpt lat="47.5809" lon="-2.89965">
        <time>2013-10-12T09:25:31Z</time>
      </trkpt>
      <trkpt lat="47.58092" lon="-2.89957">
        <time>2013-10-12T09:25:34Z</time>
      </trkpt>
      <trkpt lat="47.58093" lon="-2.89949">
        <time>2013-10-12T09:25:36Z</time>
      </trkpt>
      <trkpt lat="47.58095" lon="-2.89941">
        <time>2013-10-12T09:25:37Z</time>
      </trkpt>
      <trkpt lat="47.58096" lon="-2.89933">
        <time>2013-10-12T09:25:39Z</time>
      </trkpt>
      <trkpt lat="47.58097" lon="-2.89925">
        <time>2013-10-12T09:25:42Z</time>
      </trkpt>
      <trkpt lat="47.58098" lon="-2.89917">
        <time>2013-10-12T09:25:44Z</time>
      </trkpt>
      <trkpt lat="47.58099" lon="-2.89909">
        <time>2013-10-12T09:25:45Z</time>
      </trkpt>
      <trkpt lat="47.581" lon="-2.89902">
        <time>2013-10-12T09:25:48Z</time>
      </trkpt>
      <trkpt lat="47.581" lon="-2.89894">
        <time>2013-10-12T09:25:50Z</time>
      </trkpt>
      <trkpt lat="47.58101" lon="-2.89886">
        <time>2013-10-12T09:25:51Z</time>
      </trkpt>
      <trkpt lat="47.58102" lon="-2.89878">
        <time>2013-10-12T09:25:54Z</time>
      </trkpt>
      <trkpt lat="47.58103" lon="-2.8987">
        <time>2013-10-12T09:25:56Z</time>
      </trkpt>
      <trkpt lat="47.58104" lon="-2.89862">
        <time>2013-10-12T09:25:57Z</time>
      </trkpt>
      <trkpt lat="47.58104" lon="-2.89854">
        <time>2013-10-12T09:25:59Z</time>
      </trkpt>
      <trkpt lat="47.58105" lon="-2.89846">
        <time>2013-10-12T09:26:01Z</time>
      </trkpt>
      <trkpt lat="47.58105" lon="-2.89838">
        <time>2013-10-12T09:26:04Z</time>
      </trkpt>
      <trkpt lat="47.58106" lon="-2.89829">
        <time>2013-10-12T09:26:05Z</time>
      </trkpt>
      <trkpt lat="47.58107" lon="-2.89821">
        <time>2013-10-12T09:26:08Z</time>
      </trkpt>
      <trkpt lat="47.58108" lon="-2.89813">
        <time>2013-10-12T09:26:09Z</time>
      </trkpt>
      <trkpt lat="47.58109" lon="-2.89805">
        <time>2013-10-12T09:26:11Z</time>
      </trkpt>
      <trkpt lat="47.58109" lon="-2.89798">
        <time>2013-10-12T09:26:14Z</time>
      </trkpt>
      <trkpt lat="47.5811" lon="-2.89791">
        <time>2013-10-12T09:26:16Z</time>
      </trkpt>
      <trkpt lat="47.58111" lon="-2.89783">
        <time>2013-10-12T09:26:17Z</time>
      </trkpt>
      <trkpt lat="47.58111" lon="-2.89775">
        <time>2013-10-12T09:26:19Z</time>
      </trkpt>
      <trkpt lat="47.58112" lon="-2.89767">
        <time>2013-10-12T09:26:21Z</time>
      </trkpt>
      <trkpt lat="47.58113" lon="-2.8976">
        <time>2013-10-12T09:26:23Z</time>
      </trkpt>
      <trkpt lat="47.58114" lon="-2.89752">
        <time>2013-10-12T09:26:25Z</time>
      </trkpt>
      <trkpt lat="47.58114" lon="-2.89745">
        <time>2013-10-12T09:26:28Z</time>
      </trkpt>
      <trkpt lat="47.58115" lon="-2.89737">
        <time>2013-10-12T09:26:30Z</time>
      </trkpt>
      <trkpt lat="47.58116" lon="-2.89725">
        <time>2013-10-12T09:26:32Z</time>
      </trkpt>
      <trkpt lat="47.58117" lon="-2.89718">
        <time>2013-10-12T09:26:35Z</time>
      </trkpt>
      <trkpt lat="47.58118" lon="-2.8971">
        <time>2013-10-12T09:26:37Z</time>
      </trkpt>
      <trkpt lat="47.58119" lon="-2.89699">
        <time>2013-10-12T09:26:39Z</time>
      </trkpt>
      <trkpt lat="47.5812" lon="-2.89693">
        <time>2013-10-12T09:26:41Z</time>
      </trkpt>
      <trkpt lat="47.5812" lon="-2.89685">
        <time>2013-10-12T09:26:45Z</time>
      </trkpt>
      <trkpt lat="47.58121" lon="-2.89677">
        <time>2013-10-12T09:26:51Z</time>
      </trkpt>
      <trkpt lat="47.58122" lon="-2.89669">
        <time>2013-10-12T09:26:54Z</time>
      </trkpt>
      <trkpt lat="47.58122" lon="-2.89659">
        <time>2013-10-12T09:26:57Z</time>
      </trkpt>
      <trkpt lat="47.58123" lon="-2.8965">
        <time>2013-10-12T09:27:00Z</time>
      </trkpt>
      <trkpt lat="47.58123" lon="-2.8964">
        <time>2013-10-12T09:27:04Z</time>
      </trkpt>
      <trkpt lat="47.58123" lon="-2.89631">
        <time>2013-10-12T09:27:06Z</time>
      </trkpt>
      <trkpt lat="47.58123" lon="-2.89623">
        <time>2013-10-12T09:27:10Z</time>
      </trkpt>
      <trkpt lat="47.58123" lon="-2.89615">
        <time>2013-10-12T09:27:12Z</time>
      </trkpt>
      <trkpt lat="47.58123" lon="-2.89607">
        <time>2013-10-12T09:27:15Z</time>
      </trkpt>
      <trkpt lat="47.58123" lon="-2.896">
        <time>2013-10-12T09:27:18Z</time>
      </trkpt>
      <trkpt lat="47.58123" lon="-2.89591">
        <time>2013-10-12T09:27:21Z</time>
      </trkpt>
      <trkpt lat="47.58123" lon="-2.89583">
        <time>2013-10-12T09:27:24Z</time>
      </trkpt>
      <trkpt lat="47.58122" lon="-2.89576">
        <time>2013-10-12T09:27:27Z</time>
      </trkpt>
      <trkpt lat="47.58122" lon="-2.89568">
        <time>2013-10-12T09:27:31Z</time>
      </trkpt>
      <trkpt lat="47.58122" lon="-2.89561">
        <time>2013-10-12T09:27:33Z</time>
      </trkpt>
      <trkpt lat="47.58122" lon="-2.89554">
        <time>2013-10-12T09:27:37Z</time>
      </trkpt>
      <trkpt lat="47.58122" lon="-2.89548">
        <time>2013-10-12T09:27:39Z</time>
      </trkpt>
      <trkpt lat="47.58121" lon="-2.89539">
        <time>2013-10-12T09:27:43Z</time>
      </trkpt>
      <trkpt lat="47.58122" lon="-2.89531">
        <time>2013-10-12T09:27:46Z</time>
      </trkpt>
      <trkpt lat="47.58123" lon="-2.89524">
        <time>2013-10-12T09:27:50Z</time>
      </trkpt>
      <trkpt lat="47.58126" lon="-2.89518">
        <time>2013-10-12T09:27:52Z</time>
      </trkpt>
      <trkpt lat="47.5813" lon="-2.89515">
        <time>2013-10-12T09:27:56Z</time>
      </trkpt>
      <trkpt lat="47.58134" lon="-2.89511">
        <time>2013-10-12T09:27:59Z</time>
      </trkpt>
      <trkpt lat="47.58139" lon="-2.89508">
        <time>2013-10-12T09:28:01Z</time>
      </trkpt>
      <trkpt lat="47.58143" lon="-2.89505">
        <time>2013-10-12T09:28:05Z</time>
      </trkpt>
      <trkpt lat="47.58148" lon="-2.89506">
        <time>2013-10-12T09:28:10Z</time>
      </trkpt>
      <trkpt lat="47.58153" lon="-2.8951">
        <time>2013-10-12T09:28:14Z</time>
      </trkpt>
      <trkpt lat="47.58155" lon="-2.89517">
        <time>2013-10-12T09:28:20Z</time>
      </trkpt>
      <trkpt lat="47.58164" lon="-2.89518">
        <time>2013-10-12T09:28:39Z</time>
      </trkpt>
      <trkpt lat="47.58168" lon="-2.89515">
        <ele>4</ele>
        <time>2013-10-12T09:29:31Z</time>
      </trkpt>
      <trkpt lat="47.58173" lon="-2.89514">
        <ele>4</ele>
        <time>2013-10-12T09:29:35Z</time>
      </trkpt>
      <trkpt lat="47.58178" lon="-2.89511">
        <ele>4</ele>
        <time>2013-10-12T09:29:41Z</time>
      </trkpt>
      <trkpt lat="47.58183" lon="-2.89511">
        <ele>4</ele>
        <time>2013-10-12T09:29:45Z</time>
      </trkpt>
      <trkpt lat="47.58188" lon="-2.89515">
        <ele>4</ele>
        <time>2013-10-12T09:29:50Z</time>
      </trkpt>
      <trkpt lat="47.58192" lon="-2.89517">
        <ele>4</ele>
        <time>2013-10-12T09:29:55Z</time>
      </trkpt>
    </trkseg>
  </trk>
</gpx>